<?xml version='1.0' encoding='UTF-8'?><gpx version="1.1" creator="JPX - https://github.com/jenetics/jpx" xmlns="http://www.topografix.com/GPX/1/1"><trk><trkseg><trkpt lat="45.33045146048238" lon="9.398042475551804"><ele>83.0</ele><time>2026-03-30T08:45:55Z</time></trkpt><trkpt lat="45.330536860616384" lon="9.398082093976486"><ele>83.0</ele><time>2026-03-30T08:45:57Z</time></trkpt><trkpt lat="45.33061152500061" lon="9.398083550780544"><ele>83.0</ele><time>2026-03-30T08:45:58Z</time></trkpt><trkpt lat="45.33067662946584" lon="9.398107267467218"><ele>83.0</ele><time>2026-03-30T08:45:59Z</time></trkpt><trkpt lat="45.33077912897116" lon="9.398191378578844"><ele>83.0</ele><time>2026-03-30T08:46:01Z</time></trkpt><trkpt lat="45.33081374954592" lon="9.398273176348228"><ele>83.0</ele><time>2026-03-30T08:46:02Z</time></trkpt><trkpt lat="45.33084309500349" lon="9.398415169175761"><ele>83.0</ele><time>2026-03-30T08:46:04Z</time></trkpt><trkpt lat="45.33087485430984" lon="9.398493694321514"><ele>83.0</ele><time>2026-03-30T08:46:06Z</time></trkpt><trkpt lat="45.33090618726971" lon="9.398583296080565"><ele>83.0</ele><time>2026-03-30T08:46:09Z</time></trkpt><trkpt lat="45.330976948071125" lon="9.398665564645873"><ele>83.0</ele><time>2026-03-30T08:46:31.999Z</time></trkpt><trkpt lat="45.33101697441156" lon="9.398735562312707"><ele>83.0</ele><time>2026-03-30T08:46:32.999Z</time></trkpt><trkpt lat="45.33106234843362" lon="9.398837751161977"><ele>83.0</ele><time>2026-03-30T08:46:34.999Z</time></trkpt><trkpt lat="45.33100172811772" lon="9.399017475319022"><ele>83.0</ele><time>2026-03-30T08:46:36.999Z</time></trkpt><trkpt lat="45.33093557860881" lon="9.399133716342599"><ele>83.0</ele><time>2026-03-30T08:46:38.999Z</time></trkpt><trkpt lat="45.33089127684046" lon="9.399222815544762"><ele>83.0</ele><time>2026-03-30T08:46:39.999Z</time></trkpt><trkpt lat="45.33085002235762" lon="9.39929660018845"><ele>83.0</ele><time>2026-03-30T08:46:40.999Z</time></trkpt><trkpt lat="45.33077844025257" lon="9.3994514489996"><ele>83.0</ele><time>2026-03-30T08:46:42.999Z</time></trkpt><trkpt lat="45.33073781914406" lon="9.399529939956702"><ele>83.0</ele><time>2026-03-30T08:46:43.999Z</time></trkpt><trkpt lat="45.330699048047805" lon="9.399613212314273"><ele>83.16666666666667</ele><time>2026-03-30T08:46:44.999Z</time></trkpt><trkpt lat="45.33065589723155" lon="9.399701045231486"><ele>83.33333333333334</ele><time>2026-03-30T08:46:45.999Z</time></trkpt><trkpt lat="45.33060985231713" lon="9.399789523824145"><ele>83.5</ele><time>2026-03-30T08:46:46.999Z</time></trkpt><trkpt lat="45.33057034434433" lon="9.399881470125909"><ele>83.66666666666667</ele><time>2026-03-30T08:46:47.999Z</time></trkpt><trkpt lat="45.330525202690275" lon="9.39997403638877"><ele>83.83333333333333</ele><time>2026-03-30T08:46:48.999Z</time></trkpt><trkpt lat="45.33047960049432" lon="9.40006676822121"><ele>84.0</ele><time>2026-03-30T08:46:49.999Z</time></trkpt><trkpt lat="45.33043190509811" lon="9.400160969361641"><ele>84.0</ele><time>2026-03-30T08:46:50.999Z</time></trkpt><trkpt lat="45.330385454067056" lon="9.40025222373235"><ele>84.0</ele><time>2026-03-30T08:46:51.999Z</time></trkpt><trkpt lat="45.33034311377791" lon="9.400333717955705"><ele>84.0</ele><time>2026-03-30T08:46:52.999Z</time></trkpt><trkpt lat="45.33027195115862" lon="9.400460921089522"><ele>84.0</ele><time>2026-03-30T08:46:54.999Z</time></trkpt><trkpt lat="45.330232092416374" lon="9.400541798587453"><ele>84.0</ele><time>2026-03-30T08:46:55.999Z</time></trkpt><trkpt lat="45.330184717250575" lon="9.400638100922029"><ele>84.0</ele><time>2026-03-30T08:46:56.999Z</time></trkpt><trkpt lat="45.33013514269931" lon="9.400738874059556"><ele>83.80000000000001</ele><time>2026-03-30T08:46:57.999Z</time></trkpt><trkpt lat="45.33007457424694" lon="9.400862088104297"><ele>83.60000000000001</ele><time>2026-03-30T08:46:58.999Z</time></trkpt><trkpt lat="45.33001378218608" lon="9.400986193714905"><ele>83.4</ele><time>2026-03-30T08:46:59.999Z</time></trkpt><trkpt lat="45.32996912457589" lon="9.40112826715826"><ele>83.2</ele><time>2026-03-30T08:47:00.999Z</time></trkpt><trkpt lat="45.329900137113704" lon="9.401254729074498"><ele>83.0</ele><time>2026-03-30T08:47:01.999Z</time></trkpt><trkpt lat="45.32982716307189" lon="9.40139049530841"><ele>83.0</ele><time>2026-03-30T08:47:02.999Z</time></trkpt><trkpt lat="45.32975860714955" lon="9.40154039606059"><ele>83.0</ele><time>2026-03-30T08:47:03.999Z</time></trkpt><trkpt lat="45.32968411587283" lon="9.401692924559974"><ele>83.0</ele><time>2026-03-30T08:47:04.999Z</time></trkpt><trkpt lat="45.329609573931634" lon="9.40184702477578"><ele>83.0</ele><time>2026-03-30T08:47:05.999Z</time></trkpt><trkpt lat="45.329531604144286" lon="9.402007275688385"><ele>83.25</ele><time>2026-03-30T08:47:06.999Z</time></trkpt><trkpt lat="45.32944848152143" lon="9.402165154332652"><ele>83.5</ele><time>2026-03-30T08:47:07.999Z</time></trkpt><trkpt lat="45.329369304957766" lon="9.402334175594893"><ele>83.75</ele><time>2026-03-30T08:47:08.999Z</time></trkpt><trkpt lat="45.329282536096024" lon="9.402476604018226"><ele>84.0</ele><time>2026-03-30T08:47:09.999Z</time></trkpt><trkpt lat="45.32921346311951" lon="9.402621029103821"><ele>84.0</ele><time>2026-03-30T08:47:10.999Z</time></trkpt><trkpt lat="45.3291656231799" lon="9.402763612717822"><ele>84.0</ele><time>2026-03-30T08:47:11.999Z</time></trkpt><trkpt lat="45.32911224040703" lon="9.402898646117036"><ele>84.0</ele><time>2026-03-30T08:47:12.999Z</time></trkpt><trkpt lat="45.32907314155507" lon="9.403036402249802"><ele>84.0</ele><time>2026-03-30T08:47:13.999Z</time></trkpt><trkpt lat="45.32904490661643" lon="9.403178671931055"><ele>84.0</ele><time>2026-03-30T08:47:14.999Z</time></trkpt><trkpt lat="45.329023823519904" lon="9.403316099882415"><ele>84.2</ele><time>2026-03-30T08:47:15.999Z</time></trkpt><trkpt lat="45.32901331171279" lon="9.403447182119544"><ele>84.4</ele><time>2026-03-30T08:47:16.999Z</time></trkpt><trkpt lat="45.32900969297186" lon="9.40358052761072"><ele>84.6</ele><time>2026-03-30T08:47:17.999Z</time></trkpt><trkpt lat="45.32900589078955" lon="9.403710064244665"><ele>84.8</ele><time>2026-03-30T08:47:18.999Z</time></trkpt><trkpt lat="45.32900275387557" lon="9.403834109579822"><ele>85.0</ele><time>2026-03-30T08:47:19.999Z</time></trkpt><trkpt lat="45.32901078601538" lon="9.403959135692212"><ele>85.0</ele><time>2026-03-30T08:47:20.999Z</time></trkpt><trkpt lat="45.329017213675776" lon="9.40407874753078"><ele>85.0</ele><time>2026-03-30T08:47:21.999Z</time></trkpt><trkpt lat="45.32902750919335" lon="9.404203006088926"><ele>85.0</ele><time>2026-03-30T08:47:22.999Z</time></trkpt><trkpt lat="45.32903715989059" lon="9.404324424719782"><ele>85.0</ele><time>2026-03-30T08:47:23.999Z</time></trkpt><trkpt lat="45.32904402875284" lon="9.404449344042051"><ele>85.0</ele><time>2026-03-30T08:47:24.999Z</time></trkpt><trkpt lat="45.32905564542255" lon="9.404573783570742"><ele>85.0</ele><time>2026-03-30T08:47:25.999Z</time></trkpt><trkpt lat="45.32906639139395" lon="9.404699504091933"><ele>85.0</ele><time>2026-03-30T08:47:26.999Z</time></trkpt><trkpt lat="45.32907821054736" lon="9.404824236424828"><ele>85.0</ele><time>2026-03-30T08:47:27.999Z</time></trkpt><trkpt lat="45.32908995638277" lon="9.404945652187678"><ele>85.0</ele><time>2026-03-30T08:47:28.999Z</time></trkpt><trkpt lat="45.329103710726386" lon="9.40506874948563"><ele>85.0</ele><time>2026-03-30T08:47:29.999Z</time></trkpt><trkpt lat="45.32911702870392" lon="9.405193391566467"><ele>85.0</ele><time>2026-03-30T08:47:30.999Z</time></trkpt><trkpt lat="45.32912724030135" lon="9.405322181970917"><ele>85.0</ele><time>2026-03-30T08:47:31.999Z</time></trkpt><trkpt lat="45.32914214418567" lon="9.405461140789262"><ele>85.0</ele><time>2026-03-30T08:47:32.999Z</time></trkpt><trkpt lat="45.32915625431188" lon="9.405598940562399"><ele>85.0</ele><time>2026-03-30T08:47:33.999Z</time></trkpt><trkpt lat="45.32919473457088" lon="9.405740073537519"><ele>85.0</ele><time>2026-03-30T08:47:34.999Z</time></trkpt><trkpt lat="45.329196710300096" lon="9.405882813521135"><ele>85.0</ele><time>2026-03-30T08:47:35.999Z</time></trkpt><trkpt lat="45.32921956806115" lon="9.4060271524175"><ele>85.0</ele><time>2026-03-30T08:47:36.999Z</time></trkpt><trkpt lat="45.32924627914232" lon="9.406174389952685"><ele>85.0</ele><time>2026-03-30T08:47:37.999Z</time></trkpt><trkpt lat="45.32927157356377" lon="9.406321657302863"><ele>85.0</ele><time>2026-03-30T08:47:38.999Z</time></trkpt><trkpt lat="45.32929546456342" lon="9.406473726265583"><ele>85.0</ele><time>2026-03-30T08:47:39.999Z</time></trkpt><trkpt lat="45.32932115347975" lon="9.40662887419189"><ele>85.0</ele><time>2026-03-30T08:47:40.999Z</time></trkpt><trkpt lat="45.329347857681114" lon="9.406786539590206"><ele>85.0</ele><time>2026-03-30T08:47:41.999Z</time></trkpt><trkpt lat="45.32937315707219" lon="9.406947714346055"><ele>85.25</ele><time>2026-03-30T08:47:42.999Z</time></trkpt><trkpt lat="45.32939772168517" lon="9.407112360716614"><ele>85.5</ele><time>2026-03-30T08:47:43.999Z</time></trkpt><trkpt lat="45.329419440482376" lon="9.407274590473401"><ele>85.75</ele><time>2026-03-30T08:47:44.999Z</time></trkpt><trkpt lat="45.32944067679798" lon="9.407445451066602"><ele>86.0</ele><time>2026-03-30T08:47:45.999Z</time></trkpt><trkpt lat="45.329463802836855" lon="9.407611457745324"><ele>86.0</ele><time>2026-03-30T08:47:46.999Z</time></trkpt><trkpt lat="45.329486060814716" lon="9.407772794377758"><ele>86.0</ele><time>2026-03-30T08:47:47.999Z</time></trkpt><trkpt lat="45.32950313854951" lon="9.40793252603356"><ele>86.0</ele><time>2026-03-30T08:47:48.999Z</time></trkpt><trkpt lat="45.32952322924688" lon="9.408089071948572"><ele>86.0</ele><time>2026-03-30T08:47:49.999Z</time></trkpt><trkpt lat="45.32954632065633" lon="9.408240497160577"><ele>86.0</ele><time>2026-03-30T08:47:50.999Z</time></trkpt><trkpt lat="45.32956811684386" lon="9.408385437247736"><ele>86.0</ele><time>2026-03-30T08:47:51.999Z</time></trkpt><trkpt lat="45.329589903969534" lon="9.408532672230795"><ele>86.0</ele><time>2026-03-30T08:47:52.999Z</time></trkpt><trkpt lat="45.32961239922936" lon="9.408675153432345"><ele>86.0</ele><time>2026-03-30T08:47:53.999Z</time></trkpt><trkpt lat="45.329635581760364" lon="9.408816614295915"><ele>86.0</ele><time>2026-03-30T08:47:54.999Z</time></trkpt><trkpt lat="45.32965503861477" lon="9.408951951026799"><ele>86.0</ele><time>2026-03-30T08:47:55.999Z</time></trkpt><trkpt lat="45.32967410547826" lon="9.409101249441672"><ele>86.0</ele><time>2026-03-30T08:47:56.999Z</time></trkpt><trkpt lat="45.32969697257784" lon="9.409257880528122"><ele>86.0</ele><time>2026-03-30T08:47:57.999Z</time></trkpt><trkpt lat="45.32971988773317" lon="9.409431342568727"><ele>86.0</ele><time>2026-03-30T08:47:58.999Z</time></trkpt><trkpt lat="45.32974579599536" lon="9.409611776920915"><ele>86.0</ele><time>2026-03-30T08:47:59.999Z</time></trkpt><trkpt lat="45.329774076227125" lon="9.409801937435132"><ele>86.0</ele><time>2026-03-30T08:48:00.999Z</time></trkpt><trkpt lat="45.32981048099257" lon="9.410028055119625"><ele>86.0</ele><time>2026-03-30T08:48:01.999Z</time></trkpt><trkpt lat="45.329852783967425" lon="9.410291438733541"><ele>85.33333333333334</ele><time>2026-03-30T08:48:02.999Z</time></trkpt><trkpt lat="45.32989946789963" lon="9.410578749664147"><ele>84.66666666666667</ele><time>2026-03-30T08:48:03.999Z</time></trkpt><trkpt lat="45.329940555579036" lon="9.410869350671282"><ele>84.0</ele><time>2026-03-30T08:48:04.999Z</time></trkpt><trkpt lat="45.329981453779936" lon="9.411164840842927"><ele>83.5</ele><time>2026-03-30T08:48:05.999Z</time></trkpt><trkpt lat="45.330025013168616" lon="9.411476682921048"><ele>83.0</ele><time>2026-03-30T08:48:06.999Z</time></trkpt><trkpt lat="45.33006943164138" lon="9.411798234825268"><ele>83.0</ele><time>2026-03-30T08:48:07.999Z</time></trkpt><trkpt lat="45.33011426340436" lon="9.412113197567349"><ele>83.0</ele><time>2026-03-30T08:48:08.999Z</time></trkpt><trkpt lat="45.330156643311014" lon="9.4124172135764"><ele>83.0</ele><time>2026-03-30T08:48:09.999Z</time></trkpt><trkpt lat="45.3301960023181" lon="9.412715188930017"><ele>82.66666666666667</ele><time>2026-03-30T08:48:10.999Z</time></trkpt><trkpt lat="45.33023629240046" lon="9.413008949376136"><ele>82.33333333333333</ele><time>2026-03-30T08:48:11.999Z</time></trkpt><trkpt lat="45.33027704119581" lon="9.413285951557972"><ele>82.0</ele><time>2026-03-30T08:48:12.999Z</time></trkpt><trkpt lat="45.33031466901194" lon="9.413548741727904"><ele>82.0</ele><time>2026-03-30T08:48:13.999Z</time></trkpt><trkpt lat="45.330350681379464" lon="9.413790722628397"><ele>82.0</ele><time>2026-03-30T08:48:14.999Z</time></trkpt><trkpt lat="45.33038796035803" lon="9.414022961195304"><ele>82.0</ele><time>2026-03-30T08:48:15.999Z</time></trkpt><trkpt lat="45.330425931379196" lon="9.414251208125686"><ele>82.0</ele><time>2026-03-30T08:48:16.999Z</time></trkpt><trkpt lat="45.33046889948725" lon="9.41447621969132"><ele>82.0</ele><time>2026-03-30T08:48:17.999Z</time></trkpt><trkpt lat="45.33051679760136" lon="9.414704203150945"><ele>82.0</ele><time>2026-03-30T08:48:18.999Z</time></trkpt><trkpt lat="45.33056735768782" lon="9.414928757691987"><ele>82.0</ele><time>2026-03-30T08:48:19.999Z</time></trkpt><trkpt lat="45.330636205082456" lon="9.415147965930956"><ele>82.0</ele><time>2026-03-30T08:48:20.999Z</time></trkpt><trkpt lat="45.33071192765098" lon="9.415361732471315"><ele>82.0</ele><time>2026-03-30T08:48:21.999Z</time></trkpt><trkpt lat="45.33079702491715" lon="9.415563974313029"><ele>82.33333333333333</ele><time>2026-03-30T08:48:22.999Z</time></trkpt><trkpt lat="45.33089469896482" lon="9.415748055639039"><ele>82.66666666666667</ele><time>2026-03-30T08:48:23.999Z</time></trkpt><trkpt lat="45.33100670729852" lon="9.415906511824444"><ele>83.0</ele><time>2026-03-30T08:48:24.999Z</time></trkpt><trkpt lat="45.331128221986084" lon="9.41603378026946"><ele>83.0</ele><time>2026-03-30T08:48:25.999Z</time></trkpt><trkpt lat="45.33126584810011" lon="9.416093611002909"><ele>83.0</ele><time>2026-03-30T08:48:26.999Z</time></trkpt><trkpt lat="45.3313477021048" lon="9.416192911506936"><ele>83.0</ele><time>2026-03-30T08:48:27.999Z</time></trkpt><trkpt lat="45.33142362920903" lon="9.416278359866956"><ele>83.0</ele><time>2026-03-30T08:48:28.999Z</time></trkpt><trkpt lat="45.331468954348004" lon="9.416399583946687"><ele>83.0</ele><time>2026-03-30T08:48:29.999Z</time></trkpt><trkpt lat="45.33150494813501" lon="9.416537923280684"><ele>83.0</ele><time>2026-03-30T08:48:30.999Z</time></trkpt><trkpt lat="45.33152890967624" lon="9.416829503176318"><ele>83.0</ele><time>2026-03-30T08:48:32.999Z</time></trkpt><trkpt lat="45.3314897634553" lon="9.417007926891168"><ele>83.0</ele><time>2026-03-30T08:48:33.999Z</time></trkpt><trkpt lat="45.331471018682805" lon="9.417245176013434"><ele>82.33333333333334</ele><time>2026-03-30T08:48:34.999Z</time></trkpt><trkpt lat="45.331436188721156" lon="9.417522232431374"><ele>81.66666666666667</ele><time>2026-03-30T08:48:35.999Z</time></trkpt><trkpt lat="45.33141561835854" lon="9.417818800856026"><ele>81.0</ele><time>2026-03-30T08:48:36.999Z</time></trkpt><trkpt lat="45.33141485055758" lon="9.418152739955298"><ele>81.0</ele><time>2026-03-30T08:48:37.999Z</time></trkpt><trkpt lat="45.3314191270347" lon="9.418479469967327"><ele>81.0</ele><time>2026-03-30T08:48:38.999Z</time></trkpt><trkpt lat="45.33143412029376" lon="9.418840722018507"><ele>81.5</ele><time>2026-03-30T08:48:39.999Z</time></trkpt><trkpt lat="45.33145627204528" lon="9.419213126657866"><ele>82.0</ele><time>2026-03-30T08:48:40.999Z</time></trkpt><trkpt lat="45.331484380090956" lon="9.419582369482756"><ele>81.5</ele><time>2026-03-30T08:48:41.999Z</time></trkpt><trkpt lat="45.33151358517976" lon="9.4199759476822"><ele>81.0</ele><time>2026-03-30T08:48:42.999Z</time></trkpt><trkpt lat="45.33154129966818" lon="9.4203795136611"><ele>81.0</ele><time>2026-03-30T08:48:43.999Z</time></trkpt><trkpt lat="45.33156973780104" lon="9.420785400458872"><ele>81.0</ele><time>2026-03-30T08:48:44.999Z</time></trkpt><trkpt lat="45.33159933184888" lon="9.421196755365512"><ele>80.5</ele><time>2026-03-30T08:48:45.999Z</time></trkpt><trkpt lat="45.331621887275396" lon="9.421606134301848"><ele>80.0</ele><time>2026-03-30T08:48:46.999Z</time></trkpt><trkpt lat="45.33164157354978" lon="9.422008424088093"><ele>80.5</ele><time>2026-03-30T08:48:47.999Z</time></trkpt><trkpt lat="45.33165061616804" lon="9.422405865981572"><ele>81.0</ele><time>2026-03-30T08:48:48.999Z</time></trkpt><trkpt lat="45.33164123999276" lon="9.422793260924417"><ele>81.0</ele><time>2026-03-30T08:48:49.999Z</time></trkpt><trkpt lat="45.33160886351663" lon="9.423161599990408"><ele>81.0</ele><time>2026-03-30T08:48:50.999Z</time></trkpt><trkpt lat="45.33155453899818" lon="9.423501449745828"><ele>82.0</ele><time>2026-03-30T08:48:51.999Z</time></trkpt><trkpt lat="45.331549884044016" lon="9.423904518890682"><ele>83.0</ele><time>2026-03-30T08:48:52.999Z</time></trkpt><trkpt lat="45.33151113474003" lon="9.42425960548811"><ele>83.0</ele><time>2026-03-30T08:48:53.999Z</time></trkpt><trkpt lat="45.33147481219967" lon="9.424601833060962"><ele>83.0</ele><time>2026-03-30T08:48:54.999Z</time></trkpt><trkpt lat="45.33143973353583" lon="9.424927099154067"><ele>82.33333333333334</ele><time>2026-03-30T08:48:55.999Z</time></trkpt><trkpt lat="45.33140569900142" lon="9.425242636191133"><ele>81.66666666666667</ele><time>2026-03-30T08:48:56.999Z</time></trkpt><trkpt lat="45.33137257197075" lon="9.42555411144789"><ele>81.0</ele><time>2026-03-30T08:48:57.999Z</time></trkpt><trkpt lat="45.331341202318356" lon="9.425857239783001"><ele>80.66666666666667</ele><time>2026-03-30T08:48:58.999Z</time></trkpt><trkpt lat="45.33131330703226" lon="9.42615821671281"><ele>80.33333333333334</ele><time>2026-03-30T08:48:59.999Z</time></trkpt><trkpt lat="45.33128710212359" lon="9.42646208705255"><ele>80.0</ele><time>2026-03-30T08:49:00.999Z</time></trkpt><trkpt lat="45.33125989639156" lon="9.42677301751097"><ele>80.0</ele><time>2026-03-30T08:49:01.999Z</time></trkpt><trkpt lat="45.331228182723365" lon="9.42708335415124"><ele>80.0</ele><time>2026-03-30T08:49:02.999Z</time></trkpt><trkpt lat="45.331198216565866" lon="9.427388003964342"><ele>80.0</ele><time>2026-03-30T08:49:03.999Z</time></trkpt><trkpt lat="45.331168318522344" lon="9.42769072631782"><ele>80.0</ele><time>2026-03-30T08:49:04.999Z</time></trkpt><trkpt lat="45.331136250239055" lon="9.427985439412591"><ele>80.0</ele><time>2026-03-30T08:49:05.999Z</time></trkpt><trkpt lat="45.33110631842607" lon="9.428271615195387"><ele>80.0</ele><time>2026-03-30T08:49:06.999Z</time></trkpt><trkpt lat="45.3310763508402" lon="9.42854470759357"><ele>80.0</ele><time>2026-03-30T08:49:07.999Z</time></trkpt><trkpt lat="45.3310520167889" lon="9.428800061071012"><ele>80.0</ele><time>2026-03-30T08:49:08.999Z</time></trkpt><trkpt lat="45.33102838730213" lon="9.429035357804429"><ele>80.0</ele><time>2026-03-30T08:49:09.999Z</time></trkpt><trkpt lat="45.331001315907976" lon="9.429256170231525"><ele>80.66666666666667</ele><time>2026-03-30T08:49:10.999Z</time></trkpt><trkpt lat="45.330976279648" lon="9.429469449049588"><ele>81.33333333333333</ele><time>2026-03-30T08:49:11.999Z</time></trkpt><trkpt lat="45.33094488445228" lon="9.42969292326436"><ele>82.0</ele><time>2026-03-30T08:49:12.999Z</time></trkpt><trkpt lat="45.330915588466794" lon="9.429922617038988"><ele>83.0</ele><time>2026-03-30T08:49:13.999Z</time></trkpt><trkpt lat="45.33088819653069" lon="9.430157250503305"><ele>84.0</ele><time>2026-03-30T08:49:14.999Z</time></trkpt><trkpt lat="45.33086298388666" lon="9.430391754956883"><ele>85.0</ele><time>2026-03-30T08:49:15.999Z</time></trkpt><trkpt lat="45.330825439288105" lon="9.430615406386117"><ele>85.0</ele><time>2026-03-30T08:49:16.999Z</time></trkpt><trkpt lat="45.33078671300537" lon="9.43084545725023"><ele>85.0</ele><time>2026-03-30T08:49:17.999Z</time></trkpt><trkpt lat="45.33074139311089" lon="9.431079368189945"><ele>85.0</ele><time>2026-03-30T08:49:18.999Z</time></trkpt><trkpt lat="45.33069043616434" lon="9.431317820962553"><ele>84.0</ele><time>2026-03-30T08:49:19.999Z</time></trkpt><trkpt lat="45.330635161751275" lon="9.431550875916411"><ele>83.0</ele><time>2026-03-30T08:49:20.999Z</time></trkpt><trkpt lat="45.33057665665046" lon="9.431775473393332"><ele>82.0</ele><time>2026-03-30T08:49:21.999Z</time></trkpt><trkpt lat="45.33051714005161" lon="9.431999099805289"><ele>81.66666666666666</ele><time>2026-03-30T08:49:22.999Z</time></trkpt><trkpt lat="45.330456063807844" lon="9.432219266210385"><ele>81.33333333333333</ele><time>2026-03-30T08:49:23.999Z</time></trkpt><trkpt lat="45.33039447198785" lon="9.432438791436388"><ele>81.0</ele><time>2026-03-30T08:49:24.999Z</time></trkpt><trkpt lat="45.330333623915685" lon="9.43266010498797"><ele>81.0</ele><time>2026-03-30T08:49:25.999Z</time></trkpt><trkpt lat="45.33027439857209" lon="9.432881149038767"><ele>81.0</ele><time>2026-03-30T08:49:26.999Z</time></trkpt><trkpt lat="45.33021994386564" lon="9.433096922313329"><ele>81.0</ele><time>2026-03-30T08:49:27.999Z</time></trkpt><trkpt lat="45.33016460755826" lon="9.433306682082065"><ele>81.33333333333333</ele><time>2026-03-30T08:49:28.999Z</time></trkpt><trkpt lat="45.33011010294195" lon="9.433512554084198"><ele>81.66666666666666</ele><time>2026-03-30T08:49:29.999Z</time></trkpt><trkpt lat="45.33005388892006" lon="9.433717825765147"><ele>82.0</ele><time>2026-03-30T08:49:30.999Z</time></trkpt><trkpt lat="45.329999314616074" lon="9.433925682627384"><ele>82.66666666666666</ele><time>2026-03-30T08:49:31.999Z</time></trkpt><trkpt lat="45.329946634238816" lon="9.434129049460973"><ele>83.33333333333333</ele><time>2026-03-30T08:49:32.999Z</time></trkpt><trkpt lat="45.329895517831346" lon="9.434333155889203"><ele>84.0</ele><time>2026-03-30T08:49:33.999Z</time></trkpt><trkpt lat="45.329842984756084" lon="9.434539846802641"><ele>84.25</ele><time>2026-03-30T08:49:34.999Z</time></trkpt><trkpt lat="45.329788354546174" lon="9.434740343198884"><ele>84.5</ele><time>2026-03-30T08:49:35.999Z</time></trkpt><trkpt lat="45.32973681004121" lon="9.434935863936348"><ele>84.75</ele><time>2026-03-30T08:49:36.999Z</time></trkpt><trkpt lat="45.32968246598502" lon="9.435121105871616"><ele>85.0</ele><time>2026-03-30T08:49:37.999Z</time></trkpt><trkpt lat="45.32963793362514" lon="9.435291755774129"><ele>85.0</ele><time>2026-03-30T08:49:38.999Z</time></trkpt><trkpt lat="45.329594361539336" lon="9.435451381625697"><ele>85.0</ele><time>2026-03-30T08:49:39.999Z</time></trkpt><trkpt lat="45.329551270949906" lon="9.43561117644282"><ele>85.0</ele><time>2026-03-30T08:49:40.999Z</time></trkpt><trkpt lat="45.32950903587707" lon="9.435780052172404"><ele>85.0</ele><time>2026-03-30T08:49:41.999Z</time></trkpt><trkpt lat="45.32941520686163" lon="9.43614660436511"><ele>84.25</ele><time>2026-03-30T08:49:43.999Z</time></trkpt><trkpt lat="45.32936495720199" lon="9.43634303615435"><ele>83.5</ele><time>2026-03-30T08:49:44.999Z</time></trkpt><trkpt lat="45.32931553086815" lon="9.436540144230039"><ele>82.75</ele><time>2026-03-30T08:49:45.999Z</time></trkpt><trkpt lat="45.32926403771213" lon="9.43673290950626"><ele>82.0</ele><time>2026-03-30T08:49:46.999Z</time></trkpt><trkpt lat="45.32921337494375" lon="9.436922336009458"><ele>82.0</ele><time>2026-03-30T08:49:47.999Z</time></trkpt><trkpt lat="45.32916376162217" lon="9.437106660272013"><ele>82.0</ele><time>2026-03-30T08:49:48.999Z</time></trkpt><trkpt lat="45.329116700585345" lon="9.437285371681991"><ele>82.0</ele><time>2026-03-30T08:49:49.999Z</time></trkpt><trkpt lat="45.32907152148862" lon="9.437464665594407"><ele>82.0</ele><time>2026-03-30T08:49:50.999Z</time></trkpt><trkpt lat="45.32902691050104" lon="9.437643754385302"><ele>82.25</ele><time>2026-03-30T08:49:51.999Z</time></trkpt><trkpt lat="45.328976455480166" lon="9.437814245755582"><ele>82.5</ele><time>2026-03-30T08:49:52.999Z</time></trkpt><trkpt lat="45.32892573997084" lon="9.43799247435273"><ele>82.75</ele><time>2026-03-30T08:49:53.999Z</time></trkpt><trkpt lat="45.32887308218177" lon="9.43818686141969"><ele>83.0</ele><time>2026-03-30T08:49:54.999Z</time></trkpt><trkpt lat="45.3288205004432" lon="9.4383848582767"><ele>83.0</ele><time>2026-03-30T08:49:55.999Z</time></trkpt><trkpt lat="45.32877136872338" lon="9.438586855621015"><ele>83.0</ele><time>2026-03-30T08:49:56.999Z</time></trkpt><trkpt lat="45.32872103046683" lon="9.438789232545831"><ele>83.0</ele><time>2026-03-30T08:49:57.999Z</time></trkpt><trkpt lat="45.32866681831132" lon="9.438989913339343"><ele>83.0</ele><time>2026-03-30T08:49:58.999Z</time></trkpt><trkpt lat="45.32861411038944" lon="9.439189082579853"><ele>83.0</ele><time>2026-03-30T08:49:59.999Z</time></trkpt><trkpt lat="45.32851335919731" lon="9.43957574278234"><ele>83.0</ele><time>2026-03-30T08:50:01.999Z</time></trkpt><trkpt lat="45.32846018759594" lon="9.43977383655972"><ele>83.33333333333334</ele><time>2026-03-30T08:50:02.999Z</time></trkpt><trkpt lat="45.328406029057675" lon="9.439977703483287"><ele>83.66666666666667</ele><time>2026-03-30T08:50:03.999Z</time></trkpt><trkpt lat="45.32834905954918" lon="9.440187984171178"><ele>84.0</ele><time>2026-03-30T08:50:04.999Z</time></trkpt><trkpt lat="45.32828874391661" lon="9.440405285859569"><ele>84.33333333333333</ele><time>2026-03-30T08:50:05.999Z</time></trkpt><trkpt lat="45.328228471282685" lon="9.44062142419415"><ele>84.66666666666666</ele><time>2026-03-30T08:50:06.999Z</time></trkpt><trkpt lat="45.32816659973474" lon="9.440836423152126"><ele>85.0</ele><time>2026-03-30T08:50:07.999Z</time></trkpt><trkpt lat="45.32810363912884" lon="9.441048112534869"><ele>83.66666666666666</ele><time>2026-03-30T08:50:08.999Z</time></trkpt><trkpt lat="45.32804165290148" lon="9.441255908154726"><ele>82.33333333333333</ele><time>2026-03-30T08:50:09.999Z</time></trkpt><trkpt lat="45.327978072385214" lon="9.441466026636395"><ele>81.0</ele><time>2026-03-30T08:50:10.999Z</time></trkpt><trkpt lat="45.32791039724941" lon="9.441676297988982"><ele>81.0</ele><time>2026-03-30T08:50:11.999Z</time></trkpt><trkpt lat="45.32783897879228" lon="9.441896217663315"><ele>81.0</ele><time>2026-03-30T08:50:12.999Z</time></trkpt><trkpt lat="45.32775719825964" lon="9.44213381864118"><ele>81.0</ele><time>2026-03-30T08:50:13.999Z</time></trkpt><trkpt lat="45.32767514590218" lon="9.442383891119645"><ele>81.33333333333333</ele><time>2026-03-30T08:50:14.999Z</time></trkpt><trkpt lat="45.32759587688056" lon="9.442630457720096"><ele>81.66666666666666</ele><time>2026-03-30T08:50:15.999Z</time></trkpt><trkpt lat="45.327525576084554" lon="9.442874421357494"><ele>82.0</ele><time>2026-03-30T08:50:17Z</time></trkpt><trkpt lat="45.32743372102894" lon="9.443121046885505"><ele>82.5</ele><time>2026-03-30T08:50:18Z</time></trkpt><trkpt lat="45.327340783540485" lon="9.443402780625243"><ele>83.0</ele><time>2026-03-30T08:50:19Z</time></trkpt><trkpt lat="45.32725170187245" lon="9.443726404456187"><ele>82.0</ele><time>2026-03-30T08:50:20Z</time></trkpt><trkpt lat="45.32713984310371" lon="9.444054173799083"><ele>81.0</ele><time>2026-03-30T08:50:21Z</time></trkpt><trkpt lat="45.327022629546384" lon="9.444383318047588"><ele>80.5</ele><time>2026-03-30T08:50:22Z</time></trkpt><trkpt lat="45.326907419086204" lon="9.444711490190377"><ele>80.0</ele><time>2026-03-30T08:50:23Z</time></trkpt><trkpt lat="45.326795731061026" lon="9.445038695055247"><ele>80.0</ele><time>2026-03-30T08:50:24Z</time></trkpt><trkpt lat="45.32668251836274" lon="9.445381846396218"><ele>80.0</ele><time>2026-03-30T08:50:25Z</time></trkpt><trkpt lat="45.32656449297335" lon="9.44574111446635"><ele>80.0</ele><time>2026-03-30T08:50:26Z</time></trkpt><trkpt lat="45.32644801402103" lon="9.446096650871933"><ele>80.0</ele><time>2026-03-30T08:50:27Z</time></trkpt><trkpt lat="45.326331875018745" lon="9.446448769912807"><ele>80.0</ele><time>2026-03-30T08:50:28Z</time></trkpt><trkpt lat="45.3262177450269" lon="9.446796833376615"><ele>80.0</ele><time>2026-03-30T08:50:29Z</time></trkpt><trkpt lat="45.32610505024772" lon="9.44714424505637"><ele>80.0</ele><time>2026-03-30T08:50:30Z</time></trkpt><trkpt lat="45.32599255508031" lon="9.447487430255428"><ele>80.0</ele><time>2026-03-30T08:50:31Z</time></trkpt><trkpt lat="45.3258770899492" lon="9.4478326656574"><ele>80.0</ele><time>2026-03-30T08:50:32Z</time></trkpt><trkpt lat="45.32575774621479" lon="9.448184074791676"><ele>80.0</ele><time>2026-03-30T08:50:33Z</time></trkpt><trkpt lat="45.325634150834496" lon="9.448550623057242"><ele>81.0</ele><time>2026-03-30T08:50:34Z</time></trkpt><trkpt lat="45.32551376284116" lon="9.448912468380016"><ele>82.0</ele><time>2026-03-30T08:50:35Z</time></trkpt><trkpt lat="45.32539969848729" lon="9.449265068016542"><ele>82.0</ele><time>2026-03-30T08:50:36Z</time></trkpt><trkpt lat="45.32528664623154" lon="9.449610221263491"><ele>82.0</ele><time>2026-03-30T08:50:37Z</time></trkpt><trkpt lat="45.325074088595905" lon="9.450279184874024"><ele>81.0</ele><time>2026-03-30T08:50:39Z</time></trkpt><trkpt lat="45.324975797686896" lon="9.450610340077215"><ele>80.0</ele><time>2026-03-30T08:50:40Z</time></trkpt><trkpt lat="45.32488483187427" lon="9.450939276852056"><ele>80.0</ele><time>2026-03-30T08:50:41Z</time></trkpt><trkpt lat="45.32480379088165" lon="9.451271541335363"><ele>80.0</ele><time>2026-03-30T08:50:42Z</time></trkpt><trkpt lat="45.32473430916673" lon="9.451606229943156"><ele>80.0</ele><time>2026-03-30T08:50:43Z</time></trkpt><trkpt lat="45.32467126341115" lon="9.451933757156556"><ele>80.0</ele><time>2026-03-30T08:50:44Z</time></trkpt><trkpt lat="45.324614308016336" lon="9.452245127335363"><ele>80.33333333333334</ele><time>2026-03-30T08:50:45Z</time></trkpt><trkpt lat="45.32456023274414" lon="9.452536643789552"><ele>80.66666666666667</ele><time>2026-03-30T08:50:46Z</time></trkpt><trkpt lat="45.324514510579775" lon="9.452821517011568"><ele>81.0</ele><time>2026-03-30T08:50:47Z</time></trkpt><trkpt lat="45.3244440308303" lon="9.453094010440973"><ele>81.0</ele><time>2026-03-30T08:50:48Z</time></trkpt><trkpt lat="45.324391687813694" lon="9.453360079607993"><ele>81.0</ele><time>2026-03-30T08:50:49Z</time></trkpt><trkpt lat="45.32436177854559" lon="9.453621469897563"><ele>81.0</ele><time>2026-03-30T08:50:50Z</time></trkpt><trkpt lat="45.324309364767444" lon="9.453866852246167"><ele>81.0</ele><time>2026-03-30T08:50:51Z</time></trkpt><trkpt lat="45.32425406829753" lon="9.454105712288458"><ele>81.0</ele><time>2026-03-30T08:50:52Z</time></trkpt><trkpt lat="45.32420730647142" lon="9.454348829017826"><ele>81.0</ele><time>2026-03-30T08:50:53Z</time></trkpt><trkpt lat="45.32415772025785" lon="9.454597284488996"><ele>81.0</ele><time>2026-03-30T08:50:54Z</time></trkpt><trkpt lat="45.3241090842215" lon="9.454863236056525"><ele>81.0</ele><time>2026-03-30T08:50:54.999Z</time></trkpt><trkpt lat="45.32405996280878" lon="9.455119169610619"><ele>81.0</ele><time>2026-03-30T08:50:55.999Z</time></trkpt><trkpt lat="45.3240084999569" lon="9.455356126995753"><ele>80.66666666666667</ele><time>2026-03-30T08:50:56.999Z</time></trkpt><trkpt lat="45.32395770077538" lon="9.455582549647644"><ele>80.33333333333334</ele><time>2026-03-30T08:50:57.999Z</time></trkpt><trkpt lat="45.3239050471249" lon="9.455796362830293"><ele>80.0</ele><time>2026-03-30T08:50:58.999Z</time></trkpt><trkpt lat="45.32384878488379" lon="9.45599434923285"><ele>80.0</ele><time>2026-03-30T08:50:59.999Z</time></trkpt><trkpt lat="45.32378693367422" lon="9.456189979555713"><ele>80.0</ele><time>2026-03-30T08:51:00.999Z</time></trkpt><trkpt lat="45.32372254277266" lon="9.456380245962666"><ele>80.0</ele><time>2026-03-30T08:51:01.999Z</time></trkpt><trkpt lat="45.32364939591448" lon="9.456573354240865"><ele>80.0</ele><time>2026-03-30T08:51:02.999Z</time></trkpt><trkpt lat="45.323566933974796" lon="9.456772611263117"><ele>80.0</ele><time>2026-03-30T08:51:03.999Z</time></trkpt><trkpt lat="45.32347370400732" lon="9.456962933496872"><ele>80.0</ele><time>2026-03-30T08:51:04.999Z</time></trkpt><trkpt lat="45.32337552689355" lon="9.457141041680966"><ele>80.0</ele><time>2026-03-30T08:51:05.999Z</time></trkpt><trkpt lat="45.323280120686356" lon="9.45730890183773"><ele>80.0</ele><time>2026-03-30T08:51:06.999Z</time></trkpt><trkpt lat="45.32318706881612" lon="9.457471785033219"><ele>80.0</ele><time>2026-03-30T08:51:07.999Z</time></trkpt><trkpt lat="45.32309382297338" lon="9.457641007522954"><ele>80.25</ele><time>2026-03-30T08:51:08.999Z</time></trkpt><trkpt lat="45.323006902309764" lon="9.457803042009685"><ele>80.5</ele><time>2026-03-30T08:51:09.999Z</time></trkpt><trkpt lat="45.32291647305293" lon="9.457968961317954"><ele>80.75</ele><time>2026-03-30T08:51:10.999Z</time></trkpt><trkpt lat="45.32282413980248" lon="9.458135442526315"><ele>81.0</ele><time>2026-03-30T08:51:11.999Z</time></trkpt><trkpt lat="45.322728943078616" lon="9.458309437646957"><ele>81.0</ele><time>2026-03-30T08:51:12.999Z</time></trkpt><trkpt lat="45.3226208387226" lon="9.458516325910876"><ele>81.0</ele><time>2026-03-30T08:51:13.999Z</time></trkpt><trkpt lat="45.32250295587763" lon="9.458746858462119"><ele>81.0</ele><time>2026-03-30T08:51:14.999Z</time></trkpt><trkpt lat="45.322383538298396" lon="9.458981250463173"><ele>81.0</ele><time>2026-03-30T08:51:15.999Z</time></trkpt><trkpt lat="45.32226094520158" lon="9.459209005578042"><ele>81.0</ele><time>2026-03-30T08:51:16.999Z</time></trkpt><trkpt lat="45.32214886390036" lon="9.459426359243396"><ele>81.0</ele><time>2026-03-30T08:51:17.999Z</time></trkpt><trkpt lat="45.32203669908253" lon="9.459636490466435"><ele>80.33333333333333</ele><time>2026-03-30T08:51:18.999Z</time></trkpt><trkpt lat="45.321929848264084" lon="9.459827150520859"><ele>79.66666666666666</ele><time>2026-03-30T08:51:19.999Z</time></trkpt><trkpt lat="45.32183215464252" lon="9.460011904776618"><ele>79.0</ele><time>2026-03-30T08:51:20.999Z</time></trkpt><trkpt lat="45.32173358850029" lon="9.460200312472466"><ele>79.0</ele><time>2026-03-30T08:51:21.999Z</time></trkpt><trkpt lat="45.32163372453958" lon="9.460390205043337"><ele>79.0</ele><time>2026-03-30T08:51:22.999Z</time></trkpt><trkpt lat="45.32153293286761" lon="9.460586307053932"><ele>79.0</ele><time>2026-03-30T08:51:23.999Z</time></trkpt><trkpt lat="45.3214270881794" lon="9.460791895109235"><ele>79.33333333333333</ele><time>2026-03-30T08:51:24.999Z</time></trkpt><trkpt lat="45.32131654792577" lon="9.460998029424141"><ele>79.66666666666667</ele><time>2026-03-30T08:51:25.999Z</time></trkpt><trkpt lat="45.32121087977103" lon="9.461196467226786"><ele>80.0</ele><time>2026-03-30T08:51:26.999Z</time></trkpt><trkpt lat="45.32110307087225" lon="9.461397270884538"><ele>80.0</ele><time>2026-03-30T08:51:27.999Z</time></trkpt><trkpt lat="45.320994487099334" lon="9.461599743914856"><ele>80.0</ele><time>2026-03-30T08:51:28.999Z</time></trkpt><trkpt lat="45.32088655928291" lon="9.461798544104052"><ele>80.0</ele><time>2026-03-30T08:51:29.999Z</time></trkpt><trkpt lat="45.320781847525566" lon="9.461993320187503"><ele>79.66666666666667</ele><time>2026-03-30T08:51:30.999Z</time></trkpt><trkpt lat="45.320676141875275" lon="9.462193121203805"><ele>79.33333333333333</ele><time>2026-03-30T08:51:31.999Z</time></trkpt><trkpt lat="45.32056994991814" lon="9.462393871663975"><ele>79.0</ele><time>2026-03-30T08:51:32.999Z</time></trkpt><trkpt lat="45.3204616621066" lon="9.462596282411752"><ele>79.0</ele><time>2026-03-30T08:51:33.999Z</time></trkpt><trkpt lat="45.320351019360956" lon="9.462800272212089"><ele>79.0</ele><time>2026-03-30T08:51:34.999Z</time></trkpt><trkpt lat="45.32023539802669" lon="9.463023499837396"><ele>79.0</ele><time>2026-03-30T08:51:35.999Z</time></trkpt><trkpt lat="45.32011723690388" lon="9.463263777558776"><ele>79.0</ele><time>2026-03-30T08:51:36.999Z</time></trkpt><trkpt lat="45.319999767270055" lon="9.463516743921295"><ele>79.0</ele><time>2026-03-30T08:51:37.999Z</time></trkpt><trkpt lat="45.31988264436199" lon="9.463792446755756"><ele>79.0</ele><time>2026-03-30T08:51:38.999Z</time></trkpt><trkpt lat="45.31976347915978" lon="9.464081887570497"><ele>78.5</ele><time>2026-03-30T08:51:39.999Z</time></trkpt><trkpt lat="45.319639915980396" lon="9.464387780252624"><ele>78.0</ele><time>2026-03-30T08:51:40.999Z</time></trkpt><trkpt lat="45.31951610454569" lon="9.46469504869735"><ele>78.0</ele><time>2026-03-30T08:51:41.999Z</time></trkpt><trkpt lat="45.31939729186837" lon="9.465019497865102"><ele>78.0</ele><time>2026-03-30T08:51:42.999Z</time></trkpt><trkpt lat="45.31928370896524" lon="9.465341674304458"><ele>77.5</ele><time>2026-03-30T08:51:43.999Z</time></trkpt><trkpt lat="45.3191775498275" lon="9.46568604433007"><ele>77.0</ele><time>2026-03-30T08:51:44.999Z</time></trkpt><trkpt lat="45.31906852746399" lon="9.466038073191623"><ele>77.0</ele><time>2026-03-30T08:51:45.999Z</time></trkpt><trkpt lat="45.31895580056631" lon="9.46639268342138"><ele>77.0</ele><time>2026-03-30T08:51:46.999Z</time></trkpt><trkpt lat="45.31884325470689" lon="9.466751382523974"><ele>75.5</ele><time>2026-03-30T08:51:47.999Z</time></trkpt><trkpt lat="45.31873241897242" lon="9.467116471093584"><ele>74.0</ele><time>2026-03-30T08:51:48.999Z</time></trkpt><trkpt lat="45.31861924342306" lon="9.467478608805884"><ele>74.0</ele><time>2026-03-30T08:51:49.999Z</time></trkpt><trkpt lat="45.318503941785686" lon="9.467840400660913"><ele>74.0</ele><time>2026-03-30T08:51:50.999Z</time></trkpt><trkpt lat="45.318389998637684" lon="9.468205569917256"><ele>73.5</ele><time>2026-03-30T08:51:51.999Z</time></trkpt><trkpt lat="45.3182780327437" lon="9.468574119905979"><ele>73.0</ele><time>2026-03-30T08:51:53Z</time></trkpt><trkpt lat="45.31816863171956" lon="9.468951694962666"><ele>75.0</ele><time>2026-03-30T08:51:54Z</time></trkpt><trkpt lat="45.31805638901718" lon="9.469327680484774"><ele>77.0</ele><time>2026-03-30T08:51:55Z</time></trkpt><trkpt lat="45.31792887024788" lon="9.46969383973903"><ele>77.5</ele><time>2026-03-30T08:51:56Z</time></trkpt><trkpt lat="45.317786043426715" lon="9.470044429006158"><ele>78.0</ele><time>2026-03-30T08:51:57Z</time></trkpt><trkpt lat="45.31763090258961" lon="9.470380172123944"><ele>77.5</ele><time>2026-03-30T08:51:58Z</time></trkpt><trkpt lat="45.31746357323799" lon="9.470688337518794"><ele>77.0</ele><time>2026-03-30T08:51:59Z</time></trkpt><trkpt lat="45.317282478137145" lon="9.47097883535393"><ele>76.5</ele><time>2026-03-30T08:52:00Z</time></trkpt><trkpt lat="45.31709649573591" lon="9.471241255201488"><ele>76.0</ele><time>2026-03-30T08:52:01Z</time></trkpt><trkpt lat="45.316904067488025" lon="9.471492424304119"><ele>76.0</ele><time>2026-03-30T08:52:02Z</time></trkpt><trkpt lat="45.31670279861017" lon="9.471727026529747"><ele>76.0</ele><time>2026-03-30T08:52:03Z</time></trkpt><trkpt lat="45.31649325255002" lon="9.471951740256095"><ele>77.5</ele><time>2026-03-30T08:52:04Z</time></trkpt><trkpt lat="45.31626598219301" lon="9.472173757544907"><ele>79.0</ele><time>2026-03-30T08:52:05Z</time></trkpt><trkpt lat="45.31601173794035" lon="9.472368168763277"><ele>79.0</ele><time>2026-03-30T08:52:06Z</time></trkpt><trkpt lat="45.31573885565076" lon="9.472537681507909"><ele>79.0</ele><time>2026-03-30T08:52:07Z</time></trkpt><trkpt lat="45.3154584305921" lon="9.472676692147846"><ele>77.5</ele><time>2026-03-30T08:52:08Z</time></trkpt><trkpt lat="45.31518020679597" lon="9.472786308493966"><ele>76.0</ele><time>2026-03-30T08:52:09Z</time></trkpt><trkpt lat="45.31490374969964" lon="9.472878546111167"><ele>77.0</ele><time>2026-03-30T08:52:10Z</time></trkpt><trkpt lat="45.314627755116064" lon="9.4729569799772"><ele>78.0</ele><time>2026-03-30T08:52:11Z</time></trkpt><trkpt lat="45.31434113060451" lon="9.473008482447575"><ele>78.0</ele><time>2026-03-30T08:52:12Z</time></trkpt><trkpt lat="45.31405133773639" lon="9.473055500205076"><ele>78.0</ele><time>2026-03-30T08:52:13Z</time></trkpt><trkpt lat="45.31374600464781" lon="9.473101408629734"><ele>78.5</ele><time>2026-03-30T08:52:14Z</time></trkpt><trkpt lat="45.31343309058001" lon="9.473150361603174"><ele>79.0</ele><time>2026-03-30T08:52:15Z</time></trkpt><trkpt lat="45.31311947531531" lon="9.473201588161222"><ele>79.0</ele><time>2026-03-30T08:52:16Z</time></trkpt><trkpt lat="45.3124989230306" lon="9.473291890604486"><ele>79.5</ele><time>2026-03-30T08:52:18Z</time></trkpt><trkpt lat="45.31219202670469" lon="9.473334884261279"><ele>80.0</ele><time>2026-03-30T08:52:19Z</time></trkpt><trkpt lat="45.31189022971872" lon="9.473383885521386"><ele>80.0</ele><time>2026-03-30T08:52:20Z</time></trkpt><trkpt lat="45.31159311041725" lon="9.473435213605379"><ele>80.0</ele><time>2026-03-30T08:52:21Z</time></trkpt><trkpt lat="45.3113027269591" lon="9.473487401635023"><ele>79.0</ele><time>2026-03-30T08:52:22Z</time></trkpt><trkpt lat="45.31101501181814" lon="9.473537809933768"><ele>78.0</ele><time>2026-03-30T08:52:23Z</time></trkpt><trkpt lat="45.31073497146649" lon="9.473588743739901"><ele>78.0</ele><time>2026-03-30T08:52:24Z</time></trkpt><trkpt lat="45.31017712231279" lon="9.473684655413992"><ele>78.0</ele><time>2026-03-30T08:52:26Z</time></trkpt><trkpt lat="45.30990314659548" lon="9.473734974256958"><ele>78.0</ele><time>2026-03-30T08:52:27Z</time></trkpt><trkpt lat="45.30963397933957" lon="9.4737941490165"><ele>76.5</ele><time>2026-03-30T08:52:28Z</time></trkpt><trkpt lat="45.30937542976062" lon="9.47385476016269"><ele>75.0</ele><time>2026-03-30T08:52:29Z</time></trkpt><trkpt lat="45.30912685803924" lon="9.473936877494532"><ele>75.5</ele><time>2026-03-30T08:52:30Z</time></trkpt><trkpt lat="45.30887905543389" lon="9.47405137472076"><ele>76.0</ele><time>2026-03-30T08:52:31Z</time></trkpt><trkpt lat="45.30863499955252" lon="9.474187539447353"><ele>76.0</ele><time>2026-03-30T08:52:32Z</time></trkpt><trkpt lat="45.30839267987551" lon="9.474333757235678"><ele>76.0</ele><time>2026-03-30T08:52:33Z</time></trkpt><trkpt lat="45.30815197876812" lon="9.474496511345755"><ele>75.5</ele><time>2026-03-30T08:52:34Z</time></trkpt><trkpt lat="45.30791473928797" lon="9.474676485043275"><ele>75.0</ele><time>2026-03-30T08:52:35Z</time></trkpt><trkpt lat="45.30768223621288" lon="9.474875573590893"><ele>75.0</ele><time>2026-03-30T08:52:36Z</time></trkpt><trkpt lat="45.30745996826268" lon="9.475092691657965"><ele>75.0</ele><time>2026-03-30T08:52:37Z</time></trkpt><trkpt lat="45.30723024960516" lon="9.475288956663602"><ele>76.5</ele><time>2026-03-30T08:52:38Z</time></trkpt><trkpt lat="45.3070430080528" lon="9.475590965173707"><ele>78.0</ele><time>2026-03-30T08:52:39Z</time></trkpt><trkpt lat="45.30685179892445" lon="9.475872806614072"><ele>78.0</ele><time>2026-03-30T08:52:40Z</time></trkpt><trkpt lat="45.30667365665584" lon="9.476166354109958"><ele>78.0</ele><time>2026-03-30T08:52:41Z</time></trkpt><trkpt lat="45.30650511528058" lon="9.476476972867049"><ele>77.5</ele><time>2026-03-30T08:52:42Z</time></trkpt><trkpt lat="45.30634097260817" lon="9.476795419876934"><ele>77.0</ele><time>2026-03-30T08:52:43Z</time></trkpt><trkpt lat="45.306187078799105" lon="9.477103001392827"><ele>77.0</ele><time>2026-03-30T08:52:44Z</time></trkpt><trkpt lat="45.30604283163227" lon="9.477422861063326"><ele>77.0</ele><time>2026-03-30T08:52:45Z</time></trkpt><trkpt lat="45.30576300104881" lon="9.478085603533522"><ele>77.5</ele><time>2026-03-30T08:52:47Z</time></trkpt><trkpt lat="45.30561747634558" lon="9.478412414435505"><ele>78.0</ele><time>2026-03-30T08:52:48Z</time></trkpt><trkpt lat="45.30547425990734" lon="9.478726500949907"><ele>77.0</ele><time>2026-03-30T08:52:49Z</time></trkpt><trkpt lat="45.305341479889414" lon="9.479013862446141"><ele>76.0</ele><time>2026-03-30T08:52:50Z</time></trkpt><trkpt lat="45.30520807122396" lon="9.479294034462674"><ele>76.0</ele><time>2026-03-30T08:52:51Z</time></trkpt><trkpt lat="45.30506955768355" lon="9.479568821464161"><ele>76.0</ele><time>2026-03-30T08:52:52Z</time></trkpt><trkpt lat="45.3049254419567" lon="9.479825688792598"><ele>76.5</ele><time>2026-03-30T08:52:53Z</time></trkpt><trkpt lat="45.30477697827469" lon="9.48006811155399"><ele>77.0</ele><time>2026-03-30T08:52:54Z</time></trkpt><trkpt lat="45.30462748795208" lon="9.480311306265799"><ele>76.5</ele><time>2026-03-30T08:52:55Z</time></trkpt><trkpt lat="45.3044764829507" lon="9.480553678119032"><ele>76.0</ele><time>2026-03-30T08:52:56Z</time></trkpt><trkpt lat="45.304325248639294" lon="9.48079738364206"><ele>76.0</ele><time>2026-03-30T08:52:57Z</time></trkpt><trkpt lat="45.30417487671073" lon="9.481041591425454"><ele>76.0</ele><time>2026-03-30T08:52:58Z</time></trkpt><trkpt lat="45.30402641918294" lon="9.481285737525544"><ele>75.0</ele><time>2026-03-30T08:52:59Z</time></trkpt><trkpt lat="45.303877078309846" lon="9.481532726813"><ele>74.0</ele><time>2026-03-30T08:53:00Z</time></trkpt><trkpt lat="45.303726688641824" lon="9.481779251659384"><ele>74.0</ele><time>2026-03-30T08:53:01Z</time></trkpt><trkpt lat="45.30357384252782" lon="9.482025248018205"><ele>74.0</ele><time>2026-03-30T08:53:02Z</time></trkpt><trkpt lat="45.30341820373963" lon="9.482273504655575"><ele>74.5</ele><time>2026-03-30T08:53:03Z</time></trkpt><trkpt lat="45.303251137340666" lon="9.48254169124427"><ele>75.0</ele><time>2026-03-30T08:53:04Z</time></trkpt><trkpt lat="45.30307763757426" lon="9.48282699485255"><ele>75.5</ele><time>2026-03-30T08:53:05Z</time></trkpt><trkpt lat="45.30289508106154" lon="9.4831227773348"><ele>76.0</ele><time>2026-03-30T08:53:06Z</time></trkpt><trkpt lat="45.30269863089764" lon="9.483433250781836"><ele>76.0</ele><time>2026-03-30T08:53:07Z</time></trkpt><trkpt lat="45.302498942100094" lon="9.483754260047991"><ele>76.0</ele><time>2026-03-30T08:53:08Z</time></trkpt><trkpt lat="45.30230064710694" lon="9.484083336398175"><ele>76.5</ele><time>2026-03-30T08:53:09Z</time></trkpt><trkpt lat="45.30210363009203" lon="9.484410865671347"><ele>77.0</ele><time>2026-03-30T08:53:10Z</time></trkpt><trkpt lat="45.30191296973947" lon="9.484737421713048"><ele>77.0</ele><time>2026-03-30T08:53:11Z</time></trkpt><trkpt lat="45.301730610178765" lon="9.485063854925162"><ele>77.0</ele><time>2026-03-30T08:53:12Z</time></trkpt><trkpt lat="45.30156006172357" lon="9.485390513868794"><ele>76.0</ele><time>2026-03-30T08:53:13Z</time></trkpt><trkpt lat="45.30139771039299" lon="9.485727394468773"><ele>75.0</ele><time>2026-03-30T08:53:14Z</time></trkpt><trkpt lat="45.30123253806122" lon="9.486094240000753"><ele>75.0</ele><time>2026-03-30T08:53:15Z</time></trkpt><trkpt lat="45.301073637030456" lon="9.486471915494286"><ele>75.0</ele><time>2026-03-30T08:53:16Z</time></trkpt><trkpt lat="45.30093159679003" lon="9.486845268020037"><ele>76.0</ele><time>2026-03-30T08:53:17Z</time></trkpt><trkpt lat="45.30079559365923" lon="9.487224151667634"><ele>77.0</ele><time>2026-03-30T08:53:18Z</time></trkpt><trkpt lat="45.30066577963878" lon="9.487620711050697"><ele>75.5</ele><time>2026-03-30T08:53:19Z</time></trkpt><trkpt lat="45.300537309763506" lon="9.488021053132483"><ele>74.0</ele><time>2026-03-30T08:53:20Z</time></trkpt><trkpt lat="45.300408433199884" lon="9.488428500116074"><ele>74.0</ele><time>2026-03-30T08:53:21Z</time></trkpt><trkpt lat="45.30013505435687" lon="9.489232118351786"><ele>75.0</ele><time>2026-03-30T08:53:23Z</time></trkpt><trkpt lat="45.29999557413598" lon="9.489628606570392"><ele>76.0</ele><time>2026-03-30T08:53:24Z</time></trkpt><trkpt lat="45.299858453625404" lon="9.490022990416868"><ele>75.5</ele><time>2026-03-30T08:53:25Z</time></trkpt><trkpt lat="45.29973158460787" lon="9.490419640728012"><ele>75.0</ele><time>2026-03-30T08:53:26Z</time></trkpt><trkpt lat="45.29962594864944" lon="9.4908235618505"><ele>75.0</ele><time>2026-03-30T08:53:27Z</time></trkpt><trkpt lat="45.299543778060674" lon="9.49124083217529"><ele>75.0</ele><time>2026-03-30T08:53:28Z</time></trkpt><trkpt lat="45.29946927104826" lon="9.491667471373205"><ele>75.5</ele><time>2026-03-30T08:53:29Z</time></trkpt><trkpt lat="45.29939386942728" lon="9.492091559279492"><ele>76.0</ele><time>2026-03-30T08:53:30Z</time></trkpt><trkpt lat="45.29931886335556" lon="9.492512334290026"><ele>76.0</ele><time>2026-03-30T08:53:31Z</time></trkpt><trkpt lat="45.299244796579956" lon="9.492929972885573"><ele>76.0</ele><time>2026-03-30T08:53:32Z</time></trkpt><trkpt lat="45.29917038881027" lon="9.493342089857824"><ele>76.0</ele><time>2026-03-30T08:53:33Z</time></trkpt><trkpt lat="45.29909265573984" lon="9.493751118645658"><ele>76.0</ele><time>2026-03-30T08:53:34Z</time></trkpt><trkpt lat="45.29901153839845" lon="9.494153796574567"><ele>76.0</ele><time>2026-03-30T08:53:35Z</time></trkpt><trkpt lat="45.29893234230764" lon="9.494557950063387"><ele>76.0</ele><time>2026-03-30T08:53:36Z</time></trkpt><trkpt lat="45.298855441061185" lon="9.49496010811218"><ele>76.0</ele><time>2026-03-30T08:53:37Z</time></trkpt><trkpt lat="45.298781146197626" lon="9.495357435963255"><ele>76.0</ele><time>2026-03-30T08:53:38Z</time></trkpt><trkpt lat="45.29870926009801" lon="9.495746406471122"><ele>76.0</ele><time>2026-03-30T08:53:39Z</time></trkpt><trkpt lat="45.29863945676406" lon="9.496129401477065"><ele>76.0</ele><time>2026-03-30T08:53:40Z</time></trkpt><trkpt lat="45.298568133255586" lon="9.496508911556766"><ele>76.0</ele><time>2026-03-30T08:53:41Z</time></trkpt><trkpt lat="45.298497823451314" lon="9.49688449987062"><ele>76.0</ele><time>2026-03-30T08:53:42Z</time></trkpt><trkpt lat="45.2984273739311" lon="9.497252075036856"><ele>76.0</ele><time>2026-03-30T08:53:43Z</time></trkpt><trkpt lat="45.298359574096786" lon="9.497622609098212"><ele>76.0</ele><time>2026-03-30T08:53:44Z</time></trkpt><trkpt lat="45.29828569064609" lon="9.498005423587275"><ele>76.5</ele><time>2026-03-30T08:53:45Z</time></trkpt><trkpt lat="45.298207426145666" lon="9.498405979684666"><ele>77.0</ele><time>2026-03-30T08:53:46Z</time></trkpt><trkpt lat="45.298133245235796" lon="9.498783793659054"><ele>76.0</ele><time>2026-03-30T08:53:47Z</time></trkpt><trkpt lat="45.298073920560725" lon="9.499144293853483"><ele>75.0</ele><time>2026-03-30T08:53:48Z</time></trkpt><trkpt lat="45.29801369538007" lon="9.49948148327881"><ele>75.0</ele><time>2026-03-30T08:53:49Z</time></trkpt><trkpt lat="45.29795418454396" lon="9.499799651065311"><ele>75.0</ele><time>2026-03-30T08:53:50Z</time></trkpt><trkpt lat="45.29789855982947" lon="9.50011261640517"><ele>75.0</ele><time>2026-03-30T08:53:51Z</time></trkpt><trkpt lat="45.29784600311072" lon="9.50041527420041"><ele>75.0</ele><time>2026-03-30T08:53:52Z</time></trkpt><trkpt lat="45.2977926925893" lon="9.500695305047635"><ele>75.0</ele><time>2026-03-30T08:53:53Z</time></trkpt><trkpt lat="45.29774016208895" lon="9.500966272424575"><ele>75.33333333333333</ele><time>2026-03-30T08:53:54Z</time></trkpt><trkpt lat="45.29769113215787" lon="9.501221254800559"><ele>75.66666666666666</ele><time>2026-03-30T08:53:55Z</time></trkpt><trkpt lat="45.2976442308675" lon="9.501468355383281"><ele>76.0</ele><time>2026-03-30T08:53:56Z</time></trkpt><trkpt lat="45.29760271591586" lon="9.501676943023192"><ele>76.0</ele><time>2026-03-30T08:53:57Z</time></trkpt><trkpt lat="45.29756332667649" lon="9.50184655958012"><ele>76.0</ele><time>2026-03-30T08:53:58Z</time></trkpt><trkpt lat="45.29753328410528" lon="9.501979157766574"><ele>76.0</ele><time>2026-03-30T08:53:59Z</time></trkpt><trkpt lat="45.29751774961875" lon="9.502069836048324"><ele>76.0</ele><time>2026-03-30T08:54:00Z</time></trkpt><trkpt lat="45.29748997918326" lon="9.502181892384073"><ele>76.0</ele><time>2026-03-30T08:54:02Z</time></trkpt><trkpt lat="45.29746015028617" lon="9.502317499568669"><ele>76.0</ele><time>2026-03-30T08:54:04Z</time></trkpt><trkpt lat="45.29742997474731" lon="9.502422215823104"><ele>76.0</ele><time>2026-03-30T08:54:07Z</time></trkpt><trkpt lat="45.29739741586563" lon="9.502517507717267"><ele>76.0</ele><time>2026-03-30T08:54:10Z</time></trkpt><trkpt lat="45.297365040507245" lon="9.502595651538053"><ele>76.0</ele><time>2026-03-30T08:54:12Z</time></trkpt><trkpt lat="45.29731053920022" lon="9.502688968615098"><ele>76.0</ele><time>2026-03-30T08:54:15Z</time></trkpt><trkpt lat="45.29726776261406" lon="9.502762726791696"><ele>76.0</ele><time>2026-03-30T08:54:18Z</time></trkpt><trkpt lat="45.29719512302807" lon="9.502870534008437"><ele>75.83333333333333</ele><time>2026-03-30T08:54:21Z</time></trkpt><trkpt lat="45.297146857962176" lon="9.50296426590055"><ele>75.66666666666666</ele><time>2026-03-30T08:54:22Z</time></trkpt><trkpt lat="45.297133120707805" lon="9.503069199065923"><ele>75.5</ele><time>2026-03-30T08:54:23Z</time></trkpt><trkpt lat="45.29713992515974" lon="9.503183263789351"><ele>75.33333333333333</ele><time>2026-03-30T08:54:24Z</time></trkpt><trkpt lat="45.29716156078731" lon="9.50328346245421"><ele>75.16666666666667</ele><time>2026-03-30T08:54:25Z</time></trkpt><trkpt lat="45.29718340052853" lon="9.503377640061341"><ele>75.0</ele><time>2026-03-30T08:54:26Z</time></trkpt><trkpt lat="45.29720119161233" lon="9.503513121418806"><ele>75.0</ele><time>2026-03-30T08:54:27Z</time></trkpt><trkpt lat="45.29720174316447" lon="9.50367639121614"><ele>75.0</ele><time>2026-03-30T08:54:28Z</time></trkpt><trkpt lat="45.297181777998915" lon="9.503815218575538"><ele>75.0</ele><time>2026-03-30T08:54:29Z</time></trkpt><trkpt lat="45.29715494800256" lon="9.503961210288397"><ele>75.0</ele><time>2026-03-30T08:54:30Z</time></trkpt><trkpt lat="45.29712724247687" lon="9.50411684339257"><ele>75.0</ele><time>2026-03-30T08:54:31Z</time></trkpt><trkpt lat="45.29709584042772" lon="9.504278018660377"><ele>75.25</ele><time>2026-03-30T08:54:32Z</time></trkpt><trkpt lat="45.2970642894454" lon="9.504437836354233"><ele>75.5</ele><time>2026-03-30T08:54:33Z</time></trkpt><trkpt lat="45.297032947505826" lon="9.50460130650447"><ele>75.75</ele><time>2026-03-30T08:54:34Z</time></trkpt><trkpt lat="45.29700224134386" lon="9.504768347007808"><ele>76.0</ele><time>2026-03-30T08:54:35Z</time></trkpt><trkpt lat="45.29697116560035" lon="9.504938952877835"><ele>76.0</ele><time>2026-03-30T08:54:36Z</time></trkpt><trkpt lat="45.296939634888254" lon="9.50510982615333"><ele>76.0</ele><time>2026-03-30T08:54:37Z</time></trkpt><trkpt lat="45.29690908649939" lon="9.505283519602566"><ele>76.0</ele><time>2026-03-30T08:54:38Z</time></trkpt><trkpt lat="45.29687744801701" lon="9.505462319058232"><ele>76.0</ele><time>2026-03-30T08:54:39Z</time></trkpt><trkpt lat="45.296843408134166" lon="9.505640767142692"><ele>75.75</ele><time>2026-03-30T08:54:40Z</time></trkpt><trkpt lat="45.29681013686995" lon="9.505818938740358"><ele>75.5</ele><time>2026-03-30T08:54:41Z</time></trkpt><trkpt lat="45.29677561696951" lon="9.50599650703842"><ele>75.25</ele><time>2026-03-30T08:54:42Z</time></trkpt><trkpt lat="45.296741650012784" lon="9.506177923867503"><ele>75.0</ele><time>2026-03-30T08:54:43Z</time></trkpt><trkpt lat="45.2967050371484" lon="9.506358756983966"><ele>75.0</ele><time>2026-03-30T08:54:44Z</time></trkpt><trkpt lat="45.29666813247866" lon="9.506539359440838"><ele>75.0</ele><time>2026-03-30T08:54:45Z</time></trkpt><trkpt lat="45.296631123461225" lon="9.506719985216693"><ele>75.0</ele><time>2026-03-30T08:54:46Z</time></trkpt><trkpt lat="45.29659882238559" lon="9.506902045812202"><ele>75.0</ele><time>2026-03-30T08:54:47Z</time></trkpt><trkpt lat="45.29656609105728" lon="9.507085366432223"><ele>75.25</ele><time>2026-03-30T08:54:48Z</time></trkpt><trkpt lat="45.29653142597856" lon="9.507269427282694"><ele>75.5</ele><time>2026-03-30T08:54:49Z</time></trkpt><trkpt lat="45.29649755748101" lon="9.507452124130925"><ele>75.75</ele><time>2026-03-30T08:54:50Z</time></trkpt><trkpt lat="45.296464770648846" lon="9.507639213573684"><ele>76.0</ele><time>2026-03-30T08:54:51Z</time></trkpt><trkpt lat="45.29643006723343" lon="9.507833617326801"><ele>75.66666666666666</ele><time>2026-03-30T08:54:52Z</time></trkpt><trkpt lat="45.29638642809487" lon="9.508070576499993"><ele>75.33333333333333</ele><time>2026-03-30T08:54:53Z</time></trkpt><trkpt lat="45.296342926614656" lon="9.50831982131851"><ele>75.0</ele><time>2026-03-30T08:54:54Z</time></trkpt><trkpt lat="45.29630507769756" lon="9.50853518396486"><ele>74.66666666666667</ele><time>2026-03-30T08:54:55Z</time></trkpt><trkpt lat="45.296263188285586" lon="9.508743602349952"><ele>74.33333333333334</ele><time>2026-03-30T08:54:56Z</time></trkpt><trkpt lat="45.296222342420684" lon="9.508954124208875"><ele>74.0</ele><time>2026-03-30T08:54:57Z</time></trkpt><trkpt lat="45.296183301512315" lon="9.509160042079532"><ele>74.0</ele><time>2026-03-30T08:54:58Z</time></trkpt><trkpt lat="45.296142780443034" lon="9.50935873848417"><ele>74.0</ele><time>2026-03-30T08:54:59Z</time></trkpt><trkpt lat="45.29610456810343" lon="9.509554109773715"><ele>74.0</ele><time>2026-03-30T08:55:00Z</time></trkpt><trkpt lat="45.296067638237076" lon="9.509745480340193"><ele>74.0</ele><time>2026-03-30T08:55:01Z</time></trkpt><trkpt lat="45.29602910468413" lon="9.509931410482196"><ele>74.33333333333334</ele><time>2026-03-30T08:55:02Z</time></trkpt><trkpt lat="45.2959911229797" lon="9.510110658025386"><ele>74.66666666666667</ele><time>2026-03-30T08:55:03Z</time></trkpt><trkpt lat="45.295941317798736" lon="9.51030879661794"><ele>75.0</ele><time>2026-03-30T08:55:04Z</time></trkpt><trkpt lat="45.295894950040044" lon="9.510542599480464"><ele>75.0</ele><time>2026-03-30T08:55:05Z</time></trkpt><trkpt lat="45.2958198842686" lon="9.510775477186893"><ele>75.0</ele><time>2026-03-30T08:55:06Z</time></trkpt><trkpt lat="45.295754356671566" lon="9.510966084719177"><ele>75.0</ele><time>2026-03-30T08:55:07Z</time></trkpt><trkpt lat="45.295696498397156" lon="9.511142653563205"><ele>75.33333333333333</ele><time>2026-03-30T08:55:08Z</time></trkpt><trkpt lat="45.295635733715436" lon="9.51133156989885"><ele>75.66666666666666</ele><time>2026-03-30T08:55:09Z</time></trkpt><trkpt lat="45.29557290777454" lon="9.511525259091675"><ele>76.0</ele><time>2026-03-30T08:55:10Z</time></trkpt><trkpt lat="45.29549923807501" lon="9.5117497529513"><ele>76.0</ele><time>2026-03-30T08:55:11Z</time></trkpt><trkpt lat="45.29542432215393" lon="9.51198411932205"><ele>76.0</ele><time>2026-03-30T08:55:12Z</time></trkpt><trkpt lat="45.2953467198595" lon="9.512222965620815"><ele>76.0</ele><time>2026-03-30T08:55:13Z</time></trkpt><trkpt lat="45.29526842747425" lon="9.5124656626829"><ele>75.66666666666666</ele><time>2026-03-30T08:55:14Z</time></trkpt><trkpt lat="45.29518431563042" lon="9.512699472444199"><ele>75.33333333333333</ele><time>2026-03-30T08:55:15Z</time></trkpt><trkpt lat="45.29509435768199" lon="9.512926584310577"><ele>75.0</ele><time>2026-03-30T08:55:16Z</time></trkpt><trkpt lat="45.294991534069226" lon="9.513134947371782"><ele>74.66666666666667</ele><time>2026-03-30T08:55:17Z</time></trkpt><trkpt lat="45.294878123685216" lon="9.513340544688774"><ele>74.33333333333334</ele><time>2026-03-30T08:55:18Z</time></trkpt><trkpt lat="45.29474917730679" lon="9.513542641306898"><ele>74.0</ele><time>2026-03-30T08:55:19Z</time></trkpt><trkpt lat="45.294593366434036" lon="9.513712985876271"><ele>74.33333333333334</ele><time>2026-03-30T08:55:20Z</time></trkpt><trkpt lat="45.29444275312225" lon="9.513887354457438"><ele>74.66666666666667</ele><time>2026-03-30T08:55:21Z</time></trkpt><trkpt lat="45.29428885883084" lon="9.51405063803456"><ele>75.0</ele><time>2026-03-30T08:55:22Z</time></trkpt><trkpt lat="45.29413985164842" lon="9.51420489902838"><ele>75.0</ele><time>2026-03-30T08:55:23Z</time></trkpt><trkpt lat="45.293961978249044" lon="9.51435168443371"><ele>75.0</ele><time>2026-03-30T08:55:24Z</time></trkpt><trkpt lat="45.293772102001014" lon="9.514496890413954"><ele>75.0</ele><time>2026-03-30T08:55:25Z</time></trkpt><trkpt lat="45.29359745226909" lon="9.514636748511897"><ele>75.33333333333333</ele><time>2026-03-30T08:55:26Z</time></trkpt><trkpt lat="45.29342943788732" lon="9.514772972315797"><ele>75.66666666666666</ele><time>2026-03-30T08:55:27Z</time></trkpt><trkpt lat="45.29326312155956" lon="9.514907844735577"><ele>76.0</ele><time>2026-03-30T08:55:28Z</time></trkpt><trkpt lat="45.29310065628695" lon="9.51504195286696"><ele>75.66666666666666</ele><time>2026-03-30T08:55:29Z</time></trkpt><trkpt lat="45.29293679074778" lon="9.515183971463966"><ele>75.33333333333333</ele><time>2026-03-30T08:55:30Z</time></trkpt><trkpt lat="45.29277496006908" lon="9.515319927843013"><ele>75.0</ele><time>2026-03-30T08:55:31Z</time></trkpt><trkpt lat="45.29261034241454" lon="9.51545212169054"><ele>75.0</ele><time>2026-03-30T08:55:32Z</time></trkpt><trkpt lat="45.29245100688897" lon="9.515588594250852"><ele>75.0</ele><time>2026-03-30T08:55:33Z</time></trkpt><trkpt lat="45.292302268539295" lon="9.515713501239007"><ele>75.0</ele><time>2026-03-30T08:55:34Z</time></trkpt><trkpt lat="45.29215735273768" lon="9.515832007128491"><ele>74.33333333333333</ele><time>2026-03-30T08:55:35Z</time></trkpt><trkpt lat="45.29201705522817" lon="9.515952736897452"><ele>73.66666666666666</ele><time>2026-03-30T08:55:36Z</time></trkpt><trkpt lat="45.29187270241649" lon="9.516071470733637"><ele>73.0</ele><time>2026-03-30T08:55:37Z</time></trkpt><trkpt lat="45.29173121723265" lon="9.516193848015405"><ele>73.0</ele><time>2026-03-30T08:55:38Z</time></trkpt><trkpt lat="45.29158386099497" lon="9.516313168852436"><ele>73.0</ele><time>2026-03-30T08:55:39Z</time></trkpt><trkpt lat="45.2914394044161" lon="9.516437272710839"><ele>73.0</ele><time>2026-03-30T08:55:40Z</time></trkpt><trkpt lat="45.291294059011115" lon="9.516559146452748"><ele>72.66666666666666</ele><time>2026-03-30T08:55:41Z</time></trkpt><trkpt lat="45.29114984475446" lon="9.516680534023427"><ele>72.33333333333333</ele><time>2026-03-30T08:55:42Z</time></trkpt><trkpt lat="45.29100205753181" lon="9.516800948164583"><ele>72.0</ele><time>2026-03-30T08:55:43Z</time></trkpt><trkpt lat="45.29085062334549" lon="9.516918268696987"><ele>72.0</ele><time>2026-03-30T08:55:44Z</time></trkpt><trkpt lat="45.29069096156654" lon="9.51702325510867"><ele>72.0</ele><time>2026-03-30T08:55:45Z</time></trkpt><trkpt lat="45.29052302141657" lon="9.517114412281723"><ele>72.0</ele><time>2026-03-30T08:55:46Z</time></trkpt><trkpt lat="45.29035031473367" lon="9.51720182325014"><ele>72.66666666666667</ele><time>2026-03-30T08:55:47Z</time></trkpt><trkpt lat="45.29017203523849" lon="9.517277805392286"><ele>73.33333333333334</ele><time>2026-03-30T08:55:48Z</time></trkpt><trkpt lat="45.28998710103281" lon="9.517340555378118"><ele>74.0</ele><time>2026-03-30T08:55:49Z</time></trkpt><trkpt lat="45.28979985286604" lon="9.517401042515724"><ele>74.0</ele><time>2026-03-30T08:55:50Z</time></trkpt><trkpt lat="45.2896128887562" lon="9.517458975887687"><ele>74.0</ele><time>2026-03-30T08:55:51Z</time></trkpt><trkpt lat="45.28942638223005" lon="9.517518707909035"><ele>74.0</ele><time>2026-03-30T08:55:52Z</time></trkpt><trkpt lat="45.28923596954785" lon="9.517573521969128"><ele>74.0</ele><time>2026-03-30T08:55:53Z</time></trkpt><trkpt lat="45.28904385421763" lon="9.517598024928915"><ele>74.0</ele><time>2026-03-30T08:55:54Z</time></trkpt><trkpt lat="45.288860946202966" lon="9.51764223343729"><ele>74.0</ele><time>2026-03-30T08:55:55Z</time></trkpt><trkpt lat="45.28867789979524" lon="9.517688394594268"><ele>74.0</ele><time>2026-03-30T08:55:56Z</time></trkpt><trkpt lat="45.28849588523127" lon="9.517734996407281"><ele>74.0</ele><time>2026-03-30T08:55:57Z</time></trkpt><trkpt lat="45.288318571165185" lon="9.517780161442762"><ele>74.0</ele><time>2026-03-30T08:55:58Z</time></trkpt><trkpt lat="45.28814148214585" lon="9.517823014604458"><ele>73.33333333333334</ele><time>2026-03-30T08:55:59Z</time></trkpt><trkpt lat="45.28797023519322" lon="9.517887937646359"><ele>72.66666666666667</ele><time>2026-03-30T08:56:00Z</time></trkpt><trkpt lat="45.28780324669377" lon="9.517928164405381"><ele>72.0</ele><time>2026-03-30T08:56:01Z</time></trkpt><trkpt lat="45.28763529790025" lon="9.517944806252153"><ele>71.66666666666667</ele><time>2026-03-30T08:56:02Z</time></trkpt><trkpt lat="45.287471255689226" lon="9.517985157809363"><ele>71.33333333333334</ele><time>2026-03-30T08:56:03Z</time></trkpt><trkpt lat="45.28731320632888" lon="9.518024617927765"><ele>71.0</ele><time>2026-03-30T08:56:04Z</time></trkpt><trkpt lat="45.28715961001036" lon="9.51806296625191"><ele>71.75</ele><time>2026-03-30T08:56:05Z</time></trkpt><trkpt lat="45.28702160966203" lon="9.518097420717202"><ele>72.5</ele><time>2026-03-30T08:56:06Z</time></trkpt><trkpt lat="45.28688541765764" lon="9.518131423678984"><ele>73.25</ele><time>2026-03-30T08:56:07Z</time></trkpt><trkpt lat="45.28675577435238" lon="9.518163791634834"><ele>74.0</ele><time>2026-03-30T08:56:08Z</time></trkpt><trkpt lat="45.28662169133687" lon="9.518197268079314"><ele>74.0</ele><time>2026-03-30T08:56:09Z</time></trkpt><trkpt lat="45.28648702655852" lon="9.518232888780966"><ele>74.0</ele><time>2026-03-30T08:56:10Z</time></trkpt><trkpt lat="45.28635466568403" lon="9.51829137413326"><ele>74.0</ele><time>2026-03-30T08:56:11Z</time></trkpt><trkpt lat="45.28621841671183" lon="9.518331247447025"><ele>74.0</ele><time>2026-03-30T08:56:12Z</time></trkpt><trkpt lat="45.28608637997812" lon="9.518387909688316"><ele>74.5</ele><time>2026-03-30T08:56:13Z</time></trkpt><trkpt lat="45.2859578361703" lon="9.518459333231336"><ele>75.0</ele><time>2026-03-30T08:56:14Z</time></trkpt><trkpt lat="45.28583963379053" lon="9.518549220328783"><ele>75.5</ele><time>2026-03-30T08:56:15Z</time></trkpt><trkpt lat="45.285729239241945" lon="9.518649849220749"><ele>76.0</ele><time>2026-03-30T08:56:16Z</time></trkpt><trkpt lat="45.28562898931962" lon="9.518757705517318"><ele>75.5</ele><time>2026-03-30T08:56:17Z</time></trkpt><trkpt lat="45.28553176247714" lon="9.51886987809043"><ele>75.0</ele><time>2026-03-30T08:56:18Z</time></trkpt><trkpt lat="45.28544191444949" lon="9.518985123450788"><ele>74.5</ele><time>2026-03-30T08:56:19Z</time></trkpt><trkpt lat="45.28535406967843" lon="9.519100370649564"><ele>74.0</ele><time>2026-03-30T08:56:20Z</time></trkpt><trkpt lat="45.285268734632716" lon="9.519212340531045"><ele>74.0</ele><time>2026-03-30T08:56:21Z</time></trkpt><trkpt lat="45.285176958662475" lon="9.519323322978154"><ele>74.0</ele><time>2026-03-30T08:56:22Z</time></trkpt><trkpt lat="45.28507179008577" lon="9.519410014137634"><ele>74.0</ele><time>2026-03-30T08:56:23Z</time></trkpt><trkpt lat="45.28497367004388" lon="9.519501564339274"><ele>74.0</ele><time>2026-03-30T08:56:24Z</time></trkpt><trkpt lat="45.284877264937016" lon="9.519578251117927"><ele>74.0</ele><time>2026-03-30T08:56:25Z</time></trkpt><trkpt lat="45.28477455181431" lon="9.519647754321193"><ele>74.0</ele><time>2026-03-30T08:56:26Z</time></trkpt><trkpt lat="45.28466487198499" lon="9.51970950730697"><ele>74.0</ele><time>2026-03-30T08:56:27Z</time></trkpt><trkpt lat="45.284550413157284" lon="9.519767010260304"><ele>74.0</ele><time>2026-03-30T08:56:28Z</time></trkpt><trkpt lat="45.28443416686052" lon="9.519844675291699"><ele>73.75</ele><time>2026-03-30T08:56:29Z</time></trkpt><trkpt lat="45.284309795088475" lon="9.519901020847417"><ele>73.5</ele><time>2026-03-30T08:56:30Z</time></trkpt><trkpt lat="45.28418431258153" lon="9.519959624278147"><ele>73.25</ele><time>2026-03-30T08:56:31Z</time></trkpt><trkpt lat="45.2840607389412" lon="9.5200161196472"><ele>73.0</ele><time>2026-03-30T08:56:32Z</time></trkpt><trkpt lat="45.28393760288214" lon="9.520072302441681"><ele>73.25</ele><time>2026-03-30T08:56:33Z</time></trkpt><trkpt lat="45.2838155243542" lon="9.520126863301144"><ele>73.5</ele><time>2026-03-30T08:56:34Z</time></trkpt><trkpt lat="45.28369455461124" lon="9.520183624477054"><ele>73.75</ele><time>2026-03-30T08:56:35Z</time></trkpt><trkpt lat="45.283574774785485" lon="9.520241087087191"><ele>74.0</ele><time>2026-03-30T08:56:36Z</time></trkpt><trkpt lat="45.28345571886928" lon="9.520299127709244"><ele>74.0</ele><time>2026-03-30T08:56:37Z</time></trkpt><trkpt lat="45.28333808363191" lon="9.520348595630603"><ele>74.0</ele><time>2026-03-30T08:56:38Z</time></trkpt><trkpt lat="45.28322623392062" lon="9.520402521179319"><ele>74.0</ele><time>2026-03-30T08:56:39Z</time></trkpt><trkpt lat="45.28311731074607" lon="9.520451851733002"><ele>74.0</ele><time>2026-03-30T08:56:40Z</time></trkpt><trkpt lat="45.28301245764727" lon="9.520504662590707"><ele>74.0</ele><time>2026-03-30T08:56:41Z</time></trkpt><trkpt lat="45.282909831129835" lon="9.520554982480972"><ele>74.0</ele><time>2026-03-30T08:56:42Z</time></trkpt><trkpt lat="45.28280842998539" lon="9.520603994409997"><ele>74.0</ele><time>2026-03-30T08:56:43Z</time></trkpt><trkpt lat="45.28270901507027" lon="9.520652131783576"><ele>74.0</ele><time>2026-03-30T08:56:44Z</time></trkpt><trkpt lat="45.28261065749617" lon="9.520697434956556"><ele>74.0</ele><time>2026-03-30T08:56:45Z</time></trkpt><trkpt lat="45.28251583479306" lon="9.520743847733572"><ele>74.0</ele><time>2026-03-30T08:56:46Z</time></trkpt><trkpt lat="45.282420860779425" lon="9.520789878600745"><ele>74.0</ele><time>2026-03-30T08:56:47Z</time></trkpt><trkpt lat="45.28232651019459" lon="9.520834937881927"><ele>74.0</ele><time>2026-03-30T08:56:48Z</time></trkpt><trkpt lat="45.28222781053255" lon="9.520880799571003"><ele>74.0</ele><time>2026-03-30T08:56:49Z</time></trkpt><trkpt lat="45.28212380757172" lon="9.52093062287532"><ele>74.0</ele><time>2026-03-30T08:56:50Z</time></trkpt><trkpt lat="45.28201793534427" lon="9.520974855811657"><ele>74.0</ele><time>2026-03-30T08:56:51Z</time></trkpt><trkpt lat="45.2819166463496" lon="9.521021248282203"><ele>74.0</ele><time>2026-03-30T08:56:52Z</time></trkpt><trkpt lat="45.281818594288474" lon="9.521067130706703"><ele>74.0</ele><time>2026-03-30T08:56:53Z</time></trkpt><trkpt lat="45.28172376601981" lon="9.521117437380791"><ele>74.0</ele><time>2026-03-30T08:56:54Z</time></trkpt><trkpt lat="45.2816272438985" lon="9.521161663560992"><ele>74.0</ele><time>2026-03-30T08:56:55Z</time></trkpt><trkpt lat="45.28153504810796" lon="9.521204568032786"><ele>74.25</ele><time>2026-03-30T08:56:56Z</time></trkpt><trkpt lat="45.28135077317374" lon="9.521286729303059"><ele>74.5</ele><time>2026-03-30T08:56:58Z</time></trkpt><trkpt lat="45.2812619047472" lon="9.521331773651475"><ele>74.75</ele><time>2026-03-30T08:56:59Z</time></trkpt><trkpt lat="45.28117442696907" lon="9.52137599712366"><ele>75.0</ele><time>2026-03-30T08:57:00Z</time></trkpt><trkpt lat="45.281087232767" lon="9.521419042092196"><ele>75.0</ele><time>2026-03-30T08:57:01Z</time></trkpt><trkpt lat="45.280999735445" lon="9.52146132777835"><ele>75.0</ele><time>2026-03-30T08:57:02Z</time></trkpt><trkpt lat="45.28091186396455" lon="9.521506454194942"><ele>75.0</ele><time>2026-03-30T08:57:03Z</time></trkpt><trkpt lat="45.28082824692224" lon="9.521551983988273"><ele>75.0</ele><time>2026-03-30T08:57:04Z</time></trkpt><trkpt lat="45.280768174652735" lon="9.521579192052636"><ele>75.0</ele><time>2026-03-30T08:57:05Z</time></trkpt><trkpt lat="45.28066440276896" lon="9.521634160417843"><ele>75.0</ele><time>2026-03-30T08:57:07Z</time></trkpt><trkpt lat="45.280602804069616" lon="9.521663798472806"><ele>74.66666666666667</ele><time>2026-03-30T08:57:08Z</time></trkpt><trkpt lat="45.280533351894064" lon="9.521699036063518"><ele>74.33333333333333</ele><time>2026-03-30T08:57:09Z</time></trkpt><trkpt lat="45.28046305616804" lon="9.521732604189447"><ele>74.0</ele><time>2026-03-30T08:57:10Z</time></trkpt><trkpt lat="45.28038559589475" lon="9.521770218574027"><ele>73.66666666666666</ele><time>2026-03-30T08:57:11Z</time></trkpt><trkpt lat="45.280294917571936" lon="9.521814637576238"><ele>73.33333333333333</ele><time>2026-03-30T08:57:12Z</time></trkpt><trkpt lat="45.28019585894541" lon="9.521865148363142"><ele>73.0</ele><time>2026-03-30T08:57:13Z</time></trkpt><trkpt lat="45.28007944991647" lon="9.521922740221898"><ele>73.0</ele><time>2026-03-30T08:57:14Z</time></trkpt><trkpt lat="45.279928654532995" lon="9.52198969338155"><ele>73.0</ele><time>2026-03-30T08:57:15Z</time></trkpt><trkpt lat="45.27977210148471" lon="9.522049459811498"><ele>73.0</ele><time>2026-03-30T08:57:16Z</time></trkpt><trkpt lat="45.279619172280746" lon="9.522105171679002"><ele>73.33333333333333</ele><time>2026-03-30T08:57:17Z</time></trkpt><trkpt lat="45.27946905269618" lon="9.522160270405287"><ele>73.66666666666667</ele><time>2026-03-30T08:57:18Z</time></trkpt><trkpt lat="45.27931944276197" lon="9.522213874430388"><ele>74.0</ele><time>2026-03-30T08:57:19Z</time></trkpt><trkpt lat="45.27916563610058" lon="9.522269578549604"><ele>74.0</ele><time>2026-03-30T08:57:20Z</time></trkpt><trkpt lat="45.27898702051054" lon="9.522332569567574"><ele>74.0</ele><time>2026-03-30T08:57:21Z</time></trkpt><trkpt lat="45.278793427133756" lon="9.52239764576701"><ele>74.0</ele><time>2026-03-30T08:57:22Z</time></trkpt><trkpt lat="45.27858110442239" lon="9.522471293629609"><ele>74.33333333333334</ele><time>2026-03-30T08:57:23Z</time></trkpt><trkpt lat="45.27838362480465" lon="9.522542060404902"><ele>74.66666666666667</ele><time>2026-03-30T08:57:24Z</time></trkpt><trkpt lat="45.27820070170682" lon="9.522603624656915"><ele>75.0</ele><time>2026-03-30T08:57:25Z</time></trkpt><trkpt lat="45.27802264228311" lon="9.522664377535387"><ele>75.0</ele><time>2026-03-30T08:57:26Z</time></trkpt><trkpt lat="45.27784887940533" lon="9.522726839065099"><ele>75.0</ele><time>2026-03-30T08:57:27Z</time></trkpt><trkpt lat="45.277687991806" lon="9.522784631620445"><ele>75.0</ele><time>2026-03-30T08:57:28Z</time></trkpt><trkpt lat="45.27753546776852" lon="9.522841990471102"><ele>75.0</ele><time>2026-03-30T08:57:29Z</time></trkpt><trkpt lat="45.277396764381976" lon="9.522892364749318"><ele>75.0</ele><time>2026-03-30T08:57:30Z</time></trkpt><trkpt lat="45.2772721602686" lon="9.522949067932204"><ele>75.0</ele><time>2026-03-30T08:57:31Z</time></trkpt><trkpt lat="45.27715772550507" lon="9.523011439814441"><ele>75.0</ele><time>2026-03-30T08:57:32Z</time></trkpt><trkpt lat="45.27706165490058" lon="9.523072594683573"><ele>74.4</ele><time>2026-03-30T08:57:33Z</time></trkpt><trkpt lat="45.27696225894685" lon="9.52312464636057"><ele>73.8</ele><time>2026-03-30T08:57:34Z</time></trkpt><trkpt lat="45.27685779205463" lon="9.523151330153041"><ele>73.2</ele><time>2026-03-30T08:57:35Z</time></trkpt><trkpt lat="45.27674872403034" lon="9.523167248353097"><ele>72.6</ele><time>2026-03-30T08:57:36Z</time></trkpt><trkpt lat="45.27663342032528" lon="9.523159603783478"><ele>72.0</ele><time>2026-03-30T08:57:37Z</time></trkpt><trkpt lat="45.276541345989145" lon="9.523225313825922"><ele>72.0</ele><time>2026-03-30T08:57:38Z</time></trkpt><trkpt lat="45.27648787747816" lon="9.523335632263075"><ele>72.0</ele><time>2026-03-30T08:57:39Z</time></trkpt><trkpt lat="45.276503412533685" lon="9.5234872284063"><ele>72.0</ele><time>2026-03-30T08:57:40Z</time></trkpt><trkpt lat="45.27654132226043" lon="9.523614537264319"><ele>72.0</ele><time>2026-03-30T08:57:41Z</time></trkpt><trkpt lat="45.276617753935675" lon="9.523735707491912"><ele>72.0</ele><time>2026-03-30T08:57:42Z</time></trkpt><trkpt lat="45.27671702333808" lon="9.523892251313134"><ele>72.0</ele><time>2026-03-30T08:57:43Z</time></trkpt><trkpt lat="45.27680195736005" lon="9.524097476206247"><ele>72.0</ele><time>2026-03-30T08:57:44Z</time></trkpt><trkpt lat="45.27687014698208" lon="9.524328800611967"><ele>72.0</ele><time>2026-03-30T08:57:45Z</time></trkpt><trkpt lat="45.276930196488685" lon="9.524572549743619"><ele>72.66666666666667</ele><time>2026-03-30T08:57:46Z</time></trkpt><trkpt lat="45.276974046454804" lon="9.524790401052917"><ele>73.33333333333334</ele><time>2026-03-30T08:57:47Z</time></trkpt><trkpt lat="45.27700782710284" lon="9.525003797301874"><ele>74.0</ele><time>2026-03-30T08:57:48Z</time></trkpt><trkpt lat="45.277028798988994" lon="9.525200303327948"><ele>74.0</ele><time>2026-03-30T08:57:49Z</time></trkpt><trkpt lat="45.277050043625735" lon="9.525393925417232"><ele>74.0</ele><time>2026-03-30T08:57:50Z</time></trkpt><trkpt lat="45.277072487713106" lon="9.525591756499026"><ele>74.0</ele><time>2026-03-30T08:57:51Z</time></trkpt><trkpt lat="45.27709586526659" lon="9.525791422377708"><ele>74.0</ele><time>2026-03-30T08:57:52Z</time></trkpt><trkpt lat="45.2771169446753" lon="9.525990216213195"><ele>74.0</ele><time>2026-03-30T08:57:53Z</time></trkpt><trkpt lat="45.27714771225289" lon="9.526190184279796"><ele>74.0</ele><time>2026-03-30T08:57:54Z</time></trkpt><trkpt lat="45.27716802887344" lon="9.526389069856576"><ele>74.0</ele><time>2026-03-30T08:57:55Z</time></trkpt><trkpt lat="45.2771884308873" lon="9.526587416520869"><ele>74.0</ele><time>2026-03-30T08:57:56Z</time></trkpt><trkpt lat="45.27722051002023" lon="9.52678947414893"><ele>74.0</ele><time>2026-03-30T08:57:57Z</time></trkpt><trkpt lat="45.27725396734274" lon="9.527031638696563"><ele>74.0</ele><time>2026-03-30T08:57:58Z</time></trkpt><trkpt lat="45.277290454220875" lon="9.527322619765522"><ele>74.0</ele><time>2026-03-30T08:57:59Z</time></trkpt><trkpt lat="45.277325895280654" lon="9.527627154687035"><ele>74.33333333333334</ele><time>2026-03-30T08:58:00Z</time></trkpt><trkpt lat="45.27735818779552" lon="9.527910300550003"><ele>74.66666666666667</ele><time>2026-03-30T08:58:01Z</time></trkpt><trkpt lat="45.277392327489366" lon="9.528234969733955"><ele>75.0</ele><time>2026-03-30T08:58:02Z</time></trkpt><trkpt lat="45.27742633043215" lon="9.528546670957219"><ele>75.0</ele><time>2026-03-30T08:58:03Z</time></trkpt><trkpt lat="45.27745838747311" lon="9.528817628164857"><ele>75.0</ele><time>2026-03-30T08:58:04Z</time></trkpt><trkpt lat="45.27748552561986" lon="9.529066753467498"><ele>75.0</ele><time>2026-03-30T08:58:05Z</time></trkpt><trkpt lat="45.27750870388874" lon="9.529299944264121"><ele>75.0</ele><time>2026-03-30T08:58:06Z</time></trkpt><trkpt lat="45.27753310539213" lon="9.529531241471208"><ele>75.0</ele><time>2026-03-30T08:58:07Z</time></trkpt><trkpt lat="45.27756097876934" lon="9.529765519943421"><ele>75.0</ele><time>2026-03-30T08:58:08Z</time></trkpt><trkpt lat="45.27759297174222" lon="9.52999592844923"><ele>75.33333333333333</ele><time>2026-03-30T08:58:09Z</time></trkpt><trkpt lat="45.277624461391" lon="9.53022497947074"><ele>75.66666666666666</ele><time>2026-03-30T08:58:10Z</time></trkpt><trkpt lat="45.277649065677195" lon="9.530456501062858"><ele>76.0</ele><time>2026-03-30T08:58:11Z</time></trkpt><trkpt lat="45.277672716784195" lon="9.530695739535142"><ele>76.0</ele><time>2026-03-30T08:58:12Z</time></trkpt><trkpt lat="45.27769996944139" lon="9.530940466376425"><ele>76.0</ele><time>2026-03-30T08:58:13Z</time></trkpt><trkpt lat="45.27772799263847" lon="9.531191428506597"><ele>76.0</ele><time>2026-03-30T08:58:14Z</time></trkpt><trkpt lat="45.277756484831855" lon="9.531440276449542"><ele>76.0</ele><time>2026-03-30T08:58:15Z</time></trkpt><trkpt lat="45.27778483149073" lon="9.53168267319451"><ele>76.0</ele><time>2026-03-30T08:58:16Z</time></trkpt><trkpt lat="45.27781179351423" lon="9.531928172972828"><ele>76.0</ele><time>2026-03-30T08:58:17Z</time></trkpt><trkpt lat="45.277836545335944" lon="9.532174583608017"><ele>75.33333333333333</ele><time>2026-03-30T08:58:18Z</time></trkpt><trkpt lat="45.277863874995745" lon="9.532424661333149"><ele>74.66666666666667</ele><time>2026-03-30T08:58:19Z</time></trkpt><trkpt lat="45.277893891368734" lon="9.5326762145132"><ele>74.0</ele><time>2026-03-30T08:58:20Z</time></trkpt><trkpt lat="45.27792519941183" lon="9.532937328213123"><ele>74.0</ele><time>2026-03-30T08:58:21Z</time></trkpt><trkpt lat="45.27795937405762" lon="9.533206014503609"><ele>74.0</ele><time>2026-03-30T08:58:22Z</time></trkpt><trkpt lat="45.277992708776424" lon="9.533476214201498"><ele>74.0</ele><time>2026-03-30T08:58:23Z</time></trkpt><trkpt lat="45.27802665650035" lon="9.533749007035686"><ele>74.0</ele><time>2026-03-30T08:58:24Z</time></trkpt><trkpt lat="45.278055614613855" lon="9.53400785847869"><ele>74.0</ele><time>2026-03-30T08:58:25Z</time></trkpt><trkpt lat="45.27808693699274" lon="9.534263721690243"><ele>74.0</ele><time>2026-03-30T08:58:26Z</time></trkpt><trkpt lat="45.278112411385756" lon="9.534524379875014"><ele>73.33333333333334</ele><time>2026-03-30T08:58:27Z</time></trkpt><trkpt lat="45.2781406382911" lon="9.534778677640398"><ele>72.66666666666667</ele><time>2026-03-30T08:58:28Z</time></trkpt><trkpt lat="45.27816721235786" lon="9.535029535136532"><ele>72.0</ele><time>2026-03-30T08:58:29Z</time></trkpt><trkpt lat="45.27819387231565" lon="9.535276467496418"><ele>73.0</ele><time>2026-03-30T08:58:30Z</time></trkpt><trkpt lat="45.278221875295955" lon="9.535522214364887"><ele>74.0</ele><time>2026-03-30T08:58:31Z</time></trkpt><trkpt lat="45.278248563254344" lon="9.535766295555542"><ele>75.0</ele><time>2026-03-30T08:58:32Z</time></trkpt><trkpt lat="45.27827660537823" lon="9.536014297091526"><ele>74.33333333333333</ele><time>2026-03-30T08:58:33Z</time></trkpt><trkpt lat="45.278306901201795" lon="9.536260571065306"><ele>73.66666666666666</ele><time>2026-03-30T08:58:34Z</time></trkpt><trkpt lat="45.27833177576084" lon="9.536511506288523"><ele>73.0</ele><time>2026-03-30T08:58:35Z</time></trkpt><trkpt lat="45.27835816350148" lon="9.536760160954053"><ele>73.0</ele><time>2026-03-30T08:58:36Z</time></trkpt><trkpt lat="45.2783849773345" lon="9.537020558066354"><ele>73.0</ele><time>2026-03-30T08:58:37Z</time></trkpt><trkpt lat="45.27841544785528" lon="9.537288311305357"><ele>73.0</ele><time>2026-03-30T08:58:38Z</time></trkpt><trkpt lat="45.278445037769394" lon="9.537562604904979"><ele>73.0</ele><time>2026-03-30T08:58:39Z</time></trkpt><trkpt lat="45.278473444439534" lon="9.537832855473503"><ele>73.0</ele><time>2026-03-30T08:58:40Z</time></trkpt><trkpt lat="45.27850310656288" lon="9.53809074820742"><ele>73.0</ele><time>2026-03-30T08:58:41Z</time></trkpt><trkpt lat="45.27853541134356" lon="9.538329993013312"><ele>72.66666666666666</ele><time>2026-03-30T08:58:42Z</time></trkpt><trkpt lat="45.278565185497094" lon="9.538552337131847"><ele>72.33333333333333</ele><time>2026-03-30T08:58:43Z</time></trkpt><trkpt lat="45.278589069846134" lon="9.53877434123417"><ele>72.0</ele><time>2026-03-30T08:58:44Z</time></trkpt><trkpt lat="45.278612110244" lon="9.538987785868054"><ele>72.0</ele><time>2026-03-30T08:58:45Z</time></trkpt><trkpt lat="45.2786323742799" lon="9.539200808143274"><ele>72.0</ele><time>2026-03-30T08:58:46Z</time></trkpt><trkpt lat="45.278656101222005" lon="9.539405836174554"><ele>72.0</ele><time>2026-03-30T08:58:47Z</time></trkpt><trkpt lat="45.27868335291989" lon="9.539607245201697"><ele>72.0</ele><time>2026-03-30T08:58:48Z</time></trkpt><trkpt lat="45.278708007507404" lon="9.539801978641643"><ele>72.0</ele><time>2026-03-30T08:58:49Z</time></trkpt><trkpt lat="45.27873104494645" lon="9.539991845028831"><ele>72.0</ele><time>2026-03-30T08:58:50Z</time></trkpt><trkpt lat="45.27875423105309" lon="9.54017869499256"><ele>72.0</ele><time>2026-03-30T08:58:51Z</time></trkpt><trkpt lat="45.278777076044136" lon="9.540361464454941"><ele>72.0</ele><time>2026-03-30T08:58:52Z</time></trkpt><trkpt lat="45.27879564695042" lon="9.540539682627202"><ele>72.0</ele><time>2026-03-30T08:58:53Z</time></trkpt><trkpt lat="45.2788119694258" lon="9.540716712447505"><ele>72.0</ele><time>2026-03-30T08:58:54Z</time></trkpt><trkpt lat="45.278831803943284" lon="9.54088935380972"><ele>72.0</ele><time>2026-03-30T08:58:55Z</time></trkpt><trkpt lat="45.27885159474753" lon="9.541059110576654"><ele>72.0</ele><time>2026-03-30T08:58:56Z</time></trkpt><trkpt lat="45.27886842260492" lon="9.541225821060461"><ele>71.8</ele><time>2026-03-30T08:58:57Z</time></trkpt><trkpt lat="45.27888664973445" lon="9.541391695797776"><ele>71.6</ele><time>2026-03-30T08:58:58Z</time></trkpt><trkpt lat="45.27890642731268" lon="9.541533272219832"><ele>71.39999999999999</ele><time>2026-03-30T08:58:59Z</time></trkpt><trkpt lat="45.278914990281365" lon="9.541684192298776"><ele>71.2</ele><time>2026-03-30T08:59:00Z</time></trkpt><trkpt lat="45.27891528889322" lon="9.541834394499388"><ele>71.0</ele><time>2026-03-30T08:59:01Z</time></trkpt><trkpt lat="45.27891294344826" lon="9.541976008189984"><ele>71.0</ele><time>2026-03-30T08:59:02Z</time></trkpt><trkpt lat="45.278892441407216" lon="9.542078985011688"><ele>71.0</ele><time>2026-03-30T08:59:03Z</time></trkpt><trkpt lat="45.27883047623873" lon="9.542176754173736"><ele>71.0</ele><time>2026-03-30T08:59:06Z</time></trkpt><trkpt lat="45.27879055640167" lon="9.54226043547145"><ele>71.0</ele><time>2026-03-30T08:59:07Z</time></trkpt><trkpt lat="45.2786752611663" lon="9.54232089167475"><ele>71.0</ele><time>2026-03-30T08:59:08Z</time></trkpt><trkpt lat="45.27858162453406" lon="9.542427949840349"><ele>71.0</ele><time>2026-03-30T08:59:09Z</time></trkpt><trkpt lat="45.2784713646634" lon="9.542534709355348"><ele>71.0</ele><time>2026-03-30T08:59:10Z</time></trkpt><trkpt lat="45.278337449324255" lon="9.542674616689387"><ele>71.0</ele><time>2026-03-30T08:59:11Z</time></trkpt><trkpt lat="45.27817543381665" lon="9.542836636238896"><ele>71.25</ele><time>2026-03-30T08:59:12Z</time></trkpt><trkpt lat="45.27802325067068" lon="9.54298275521977"><ele>71.5</ele><time>2026-03-30T08:59:13Z</time></trkpt><trkpt lat="45.27790401467721" lon="9.543107724106603"><ele>71.75</ele><time>2026-03-30T08:59:14Z</time></trkpt><trkpt lat="45.27780983448565" lon="9.54320563877746"><ele>72.0</ele><time>2026-03-30T08:59:15Z</time></trkpt><trkpt lat="45.27773552364434" lon="9.543275852635952"><ele>72.0</ele><time>2026-03-30T08:59:16Z</time></trkpt><trkpt lat="45.277674909761956" lon="9.543311826048935"><ele>72.0</ele><time>2026-03-30T08:59:18Z</time></trkpt><trkpt lat="45.277754435713184" lon="9.543561394660108"><ele>72.0</ele><time>2026-03-30T08:59:25Z</time></trkpt><trkpt lat="45.27777506843705" lon="9.543665791961695"><ele>72.0</ele><time>2026-03-30T08:59:26Z</time></trkpt><trkpt lat="45.27779182111519" lon="9.54375535034339"><ele>72.0</ele><time>2026-03-30T08:59:27Z</time></trkpt><trkpt lat="45.27782487622292" lon="9.543895568763613"><ele>72.16666666666667</ele><time>2026-03-30T08:59:29Z</time></trkpt><trkpt lat="45.277852980817656" lon="9.544023816665002"><ele>72.33333333333333</ele><time>2026-03-30T08:59:31Z</time></trkpt><trkpt lat="45.277881317443324" lon="9.544152017116357"><ele>72.5</ele><time>2026-03-30T08:59:33Z</time></trkpt><trkpt lat="45.27790209555198" lon="9.544265259886448"><ele>72.66666666666666</ele><time>2026-03-30T08:59:35Z</time></trkpt><trkpt lat="45.27791739561829" lon="9.544369871826625"><ele>72.83333333333333</ele><time>2026-03-30T08:59:37Z</time></trkpt><trkpt lat="45.2779416307311" lon="9.544466406342705"><ele>73.0</ele><time>2026-03-30T09:00:09Z</time></trkpt><trkpt lat="45.2779828983088" lon="9.544537777086369"><ele>73.0</ele><time>2026-03-30T09:00:11Z</time></trkpt><trkpt lat="45.27808317389425" lon="9.54454337620315"><ele>73.0</ele><time>2026-03-30T09:00:13Z</time></trkpt><trkpt lat="45.27815625532721" lon="9.544520507852749"><ele>73.0</ele><time>2026-03-30T09:00:14Z</time></trkpt><trkpt lat="45.27825046795205" lon="9.544494411270167"><ele>73.0</ele><time>2026-03-30T09:00:15Z</time></trkpt><trkpt lat="45.278341063528494" lon="9.544462011845505"><ele>73.0</ele><time>2026-03-30T09:00:16Z</time></trkpt><trkpt lat="45.27842015641315" lon="9.544441800836207"><ele>73.0</ele><time>2026-03-30T09:00:17Z</time></trkpt><trkpt lat="45.27850585612046" lon="9.544437032840912"><ele>72.83333333333333</ele><time>2026-03-30T09:00:18Z</time></trkpt><trkpt lat="45.27858053228052" lon="9.544451232550774"><ele>72.66666666666666</ele><time>2026-03-30T09:00:19Z</time></trkpt><trkpt lat="45.278653215234065" lon="9.544478938779266"><ele>72.5</ele><time>2026-03-30T09:00:20Z</time></trkpt><trkpt lat="45.27872506114877" lon="9.544503812973574"><ele>72.33333333333333</ele><time>2026-03-30T09:00:21Z</time></trkpt><trkpt lat="45.27880472480245" lon="9.544494046613737"><ele>72.16666666666667</ele><time>2026-03-30T09:00:23Z</time></trkpt><trkpt lat="45.27889208439073" lon="9.54450851521284"><ele>72.0</ele><time>2026-03-30T09:00:30Z</time></trkpt><trkpt lat="45.27895810408129" lon="9.544575730384977"><ele>72.0</ele><time>2026-03-30T09:00:32Z</time></trkpt><trkpt lat="45.27901039376785" lon="9.544712824162671"><ele>72.0</ele><time>2026-03-30T09:00:34Z</time></trkpt><trkpt lat="45.27904558939499" lon="9.544825483098037"><ele>72.0</ele><time>2026-03-30T09:00:35Z</time></trkpt><trkpt lat="45.2790899775604" lon="9.544951575112913"><ele>72.0</ele><time>2026-03-30T09:00:36Z</time></trkpt><trkpt lat="45.27913655547815" lon="9.545067489369421"><ele>72.0</ele><time>2026-03-30T09:00:37Z</time></trkpt><trkpt lat="45.27919165709096" lon="9.545190878248796"><ele>72.0</ele><time>2026-03-30T09:00:38Z</time></trkpt><trkpt lat="45.27926226863531" lon="9.545334472587815"><ele>72.0</ele><time>2026-03-30T09:00:39Z</time></trkpt><trkpt lat="45.279332870389645" lon="9.545489326311285"><ele>72.0</ele><time>2026-03-30T09:00:40Z</time></trkpt><trkpt lat="45.2793992589733" lon="9.545668834156922"><ele>72.0</ele><time>2026-03-30T09:00:41Z</time></trkpt><trkpt lat="45.27946589807696" lon="9.545863084441"><ele>71.5</ele><time>2026-03-30T09:00:42Z</time></trkpt><trkpt lat="45.279536803573" lon="9.546053610228133"><ele>71.0</ele><time>2026-03-30T09:00:43Z</time></trkpt><trkpt lat="45.2795969977649" lon="9.54621821114025"><ele>70.5</ele><time>2026-03-30T09:00:44Z</time></trkpt><trkpt lat="45.279649229741345" lon="9.546365655298478"><ele>70.0</ele><time>2026-03-30T09:00:45Z</time></trkpt><trkpt lat="45.279698064019286" lon="9.546504469720128"><ele>70.0</ele><time>2026-03-30T09:00:46Z</time></trkpt><trkpt lat="45.27974763078376" lon="9.546637365851097"><ele>70.0</ele><time>2026-03-30T09:00:47Z</time></trkpt><trkpt lat="45.279798763226374" lon="9.546766939707883"><ele>70.0</ele><time>2026-03-30T09:00:48Z</time></trkpt><trkpt lat="45.27984793674616" lon="9.546902632963347"><ele>70.0</ele><time>2026-03-30T09:00:49Z</time></trkpt><trkpt lat="45.27989846958972" lon="9.5470345803343"><ele>70.0</ele><time>2026-03-30T09:00:50Z</time></trkpt><trkpt lat="45.27995890609141" lon="9.547146047124004"><ele>70.25</ele><time>2026-03-30T09:00:51Z</time></trkpt><trkpt lat="45.280032991817166" lon="9.547241533325584"><ele>70.5</ele><time>2026-03-30T09:00:52Z</time></trkpt><trkpt lat="45.28012437904875" lon="9.54734989802602"><ele>70.75</ele><time>2026-03-30T09:00:53Z</time></trkpt><trkpt lat="45.28022187477501" lon="9.547469646217506"><ele>71.0</ele><time>2026-03-30T09:00:54Z</time></trkpt><trkpt lat="45.280343305429206" lon="9.54761832325135"><ele>71.0</ele><time>2026-03-30T09:00:55Z</time></trkpt><trkpt lat="45.28047811617606" lon="9.547784157240061"><ele>71.0</ele><time>2026-03-30T09:00:56Z</time></trkpt><trkpt lat="45.28060030356647" lon="9.547933401853165"><ele>71.0</ele><time>2026-03-30T09:00:57Z</time></trkpt><trkpt lat="45.28070338159644" lon="9.548061325276862"><ele>70.75</ele><time>2026-03-30T09:00:58Z</time></trkpt><trkpt lat="45.28079590677806" lon="9.54817454744739"><ele>70.5</ele><time>2026-03-30T09:00:59Z</time></trkpt><trkpt lat="45.280883428046806" lon="9.548283686388478"><ele>70.25</ele><time>2026-03-30T09:01:00Z</time></trkpt><trkpt lat="45.28098203991275" lon="9.548402529941784"><ele>70.0</ele><time>2026-03-30T09:01:01Z</time></trkpt><trkpt lat="45.281081344948774" lon="9.548523209602205"><ele>70.0</ele><time>2026-03-30T09:01:02Z</time></trkpt><trkpt lat="45.281172602997415" lon="9.548633286762017"><ele>70.0</ele><time>2026-03-30T09:01:03Z</time></trkpt><trkpt lat="45.28126088731225" lon="9.548738802671767"><ele>70.0</ele><time>2026-03-30T09:01:04Z</time></trkpt><trkpt lat="45.281345453691735" lon="9.548842331596086"><ele>70.0</ele><time>2026-03-30T09:01:05Z</time></trkpt><trkpt lat="45.281425637867095" lon="9.548940168144183"><ele>70.2</ele><time>2026-03-30T09:01:06Z</time></trkpt><trkpt lat="45.28150242524971" lon="9.549035975587643"><ele>70.4</ele><time>2026-03-30T09:01:07Z</time></trkpt><trkpt lat="45.28157523515233" lon="9.54912599337327"><ele>70.6</ele><time>2026-03-30T09:01:08Z</time></trkpt><trkpt lat="45.28164980047133" lon="9.549217187669507"><ele>70.8</ele><time>2026-03-30T09:01:09Z</time></trkpt><trkpt lat="45.2817135328466" lon="9.549312212479775"><ele>71.0</ele><time>2026-03-30T09:01:10Z</time></trkpt><trkpt lat="45.28176332361246" lon="9.549427744910192"><ele>71.0</ele><time>2026-03-30T09:01:11Z</time></trkpt><trkpt lat="45.28180000536497" lon="9.549571777108685"><ele>71.0</ele><time>2026-03-30T09:01:12Z</time></trkpt><trkpt lat="45.281830251447545" lon="9.549705208661404"><ele>71.0</ele><time>2026-03-30T09:01:13Z</time></trkpt><trkpt lat="45.28186435643991" lon="9.549842246306673"><ele>71.0</ele><time>2026-03-30T09:01:14Z</time></trkpt><trkpt lat="45.281912094931634" lon="9.55001737788298"><ele>71.0</ele><time>2026-03-30T09:01:15Z</time></trkpt><trkpt lat="45.28197007551331" lon="9.55023235423673"><ele>71.0</ele><time>2026-03-30T09:01:16Z</time></trkpt><trkpt lat="45.28202286720936" lon="9.550426322936273"><ele>71.0</ele><time>2026-03-30T09:01:17Z</time></trkpt><trkpt lat="45.28206796371566" lon="9.550591861794313"><ele>71.0</ele><time>2026-03-30T09:01:18Z</time></trkpt><trkpt lat="45.28211248232188" lon="9.550748477170615"><ele>71.0</ele><time>2026-03-30T09:01:19Z</time></trkpt><trkpt lat="45.2821533675107" lon="9.55091078868927"><ele>71.0</ele><time>2026-03-30T09:01:20Z</time></trkpt><trkpt lat="45.28220166833635" lon="9.551072030035101"><ele>71.0</ele><time>2026-03-30T09:01:21Z</time></trkpt><trkpt lat="45.28224548271584" lon="9.551238329947239"><ele>71.0</ele><time>2026-03-30T09:01:22Z</time></trkpt><trkpt lat="45.2822888568089" lon="9.55139214557253"><ele>71.0</ele><time>2026-03-30T09:01:23Z</time></trkpt><trkpt lat="45.28233002882315" lon="9.551541175230819"><ele>71.0</ele><time>2026-03-30T09:01:24Z</time></trkpt><trkpt lat="45.28236762375138" lon="9.55167725913665"><ele>71.0</ele><time>2026-03-30T09:01:25Z</time></trkpt><trkpt lat="45.28240055019517" lon="9.551797124712799"><ele>71.0</ele><time>2026-03-30T09:01:26Z</time></trkpt><trkpt lat="45.28242389100038" lon="9.55188340284193"><ele>71.0</ele><time>2026-03-30T09:01:27Z</time></trkpt><trkpt lat="45.28244341087609" lon="9.55198207038531"><ele>71.0</ele><time>2026-03-30T09:01:29Z</time></trkpt><trkpt lat="45.28241563241571" lon="9.552097230547119"><ele>71.0</ele><time>2026-03-30T09:01:38Z</time></trkpt><trkpt lat="45.28247619987135" lon="9.552136518091904"><ele>70.8</ele><time>2026-03-30T09:01:43Z</time></trkpt><trkpt lat="45.282529514187544" lon="9.552308582214312"><ele>70.6</ele><time>2026-03-30T09:01:45Z</time></trkpt><trkpt lat="45.28255088241032" lon="9.552434850968666"><ele>70.4</ele><time>2026-03-30T09:01:46Z</time></trkpt><trkpt lat="45.28256542074286" lon="9.552578963029099"><ele>70.2</ele><time>2026-03-30T09:01:47Z</time></trkpt><trkpt lat="45.282593098929866" lon="9.552743257563598"><ele>70.0</ele><time>2026-03-30T09:01:48Z</time></trkpt><trkpt lat="45.28262445281592" lon="9.55295072516512"><ele>70.5</ele><time>2026-03-30T09:01:49Z</time></trkpt><trkpt lat="45.282654782513866" lon="9.55316317117338"><ele>71.0</ele><time>2026-03-30T09:01:50Z</time></trkpt><trkpt lat="45.28268138235809" lon="9.553341934779585"><ele>71.5</ele><time>2026-03-30T09:01:51Z</time></trkpt><trkpt lat="45.282701179124125" lon="9.553505120661573"><ele>72.0</ele><time>2026-03-30T09:01:52Z</time></trkpt><trkpt lat="45.282724317232116" lon="9.55365783637568"><ele>72.4</ele><time>2026-03-30T09:01:53Z</time></trkpt><trkpt lat="45.28273358211057" lon="9.553809577882994"><ele>72.80000000000001</ele><time>2026-03-30T09:01:54Z</time></trkpt><trkpt lat="45.282763465536156" lon="9.553951264236867"><ele>73.2</ele><time>2026-03-30T09:01:55Z</time></trkpt><trkpt lat="45.28276506650768" lon="9.55407514232077"><ele>73.60000000000001</ele><time>2026-03-30T09:01:56Z</time></trkpt><trkpt lat="45.28279571305053" lon="9.554161654836928"><ele>74.0</ele><time>2026-03-30T09:01:57Z</time></trkpt><trkpt lat="45.28283376806951" lon="9.554303640787305"><ele>74.0</ele><time>2026-03-30T09:01:59Z</time></trkpt><trkpt lat="45.28293163074995" lon="9.554363782665217"><ele>74.0</ele><time>2026-03-30T09:02:01Z</time></trkpt><trkpt lat="45.283052614665785" lon="9.554350873137055"><ele>74.0</ele><time>2026-03-30T09:02:03Z</time></trkpt><trkpt lat="45.28312634028242" lon="9.55433662685446"><ele>74.0</ele><time>2026-03-30T09:02:04Z</time></trkpt><trkpt lat="45.28319329659483" lon="9.554333160834277"><ele>74.0</ele><time>2026-03-30T09:02:05Z</time></trkpt><trkpt lat="45.28328673031239" lon="9.554360902188469"><ele>73.60000000000001</ele><time>2026-03-30T09:02:06.999Z</time></trkpt><trkpt lat="45.28334523626081" lon="9.554474094878957"><ele>73.2</ele><time>2026-03-30T09:02:09.999Z</time></trkpt><trkpt lat="45.28330355740548" lon="9.554607987685865"><ele>72.80000000000001</ele><time>2026-03-30T09:02:11.999Z</time></trkpt><trkpt lat="45.283308602342274" lon="9.554741275971466"><ele>72.4</ele><time>2026-03-30T09:02:13.999Z</time></trkpt><trkpt lat="45.28330519208058" lon="9.554851549956492"><ele>72.0</ele><time>2026-03-30T09:02:14.999Z</time></trkpt><trkpt lat="45.283302749909154" lon="9.554982600599079"><ele>72.5</ele><time>2026-03-30T09:02:15.999Z</time></trkpt><trkpt lat="45.2832874656484" lon="9.555125455314759"><ele>73.0</ele><time>2026-03-30T09:02:16.999Z</time></trkpt><trkpt lat="45.283283695517866" lon="9.555244413832702"><ele>73.5</ele><time>2026-03-30T09:02:17.999Z</time></trkpt><trkpt lat="45.28328124666952" lon="9.555348399709576"><ele>74.0</ele><time>2026-03-30T09:02:18.999Z</time></trkpt><trkpt lat="45.28330049033444" lon="9.555440568755337"><ele>74.5</ele><time>2026-03-30T09:02:19.999Z</time></trkpt><trkpt lat="45.28330740350585" lon="9.555557891116617"><ele>75.0</ele><time>2026-03-30T09:02:21.999Z</time></trkpt><trkpt lat="45.28337043549701" lon="9.55564075784631"><ele>75.0</ele><time>2026-03-30T09:02:24Z</time></trkpt><trkpt lat="45.2834302435997" lon="9.555668914083284"><ele>75.0</ele><time>2026-03-30T09:02:25Z</time></trkpt><trkpt lat="45.28350367448796" lon="9.555688724401618"><ele>75.0</ele><time>2026-03-30T09:02:26Z</time></trkpt><trkpt lat="45.28359562973079" lon="9.555697543992013"><ele>75.0</ele><time>2026-03-30T09:02:27Z</time></trkpt><trkpt lat="45.283709024801716" lon="9.555705533582943"><ele>75.0</ele><time>2026-03-30T09:02:28Z</time></trkpt><trkpt lat="45.283838065293324" lon="9.555700521939313"><ele>74.4</ele><time>2026-03-30T09:02:29Z</time></trkpt><trkpt lat="45.283957602668856" lon="9.555725307057562"><ele>73.8</ele><time>2026-03-30T09:02:30Z</time></trkpt><trkpt lat="45.284070366562105" lon="9.555735206146604"><ele>73.2</ele><time>2026-03-30T09:02:31Z</time></trkpt><trkpt lat="45.28417740229267" lon="9.555742681560622"><ele>72.6</ele><time>2026-03-30T09:02:32Z</time></trkpt><trkpt lat="45.284277769306435" lon="9.555762565503375"><ele>72.0</ele><time>2026-03-30T09:02:33Z</time></trkpt><trkpt lat="45.28436837844943" lon="9.555772256709066"><ele>72.0</ele><time>2026-03-30T09:02:34Z</time></trkpt><trkpt lat="45.28445046264297" lon="9.555798041464284"><ele>72.0</ele><time>2026-03-30T09:02:35Z</time></trkpt><trkpt lat="45.28452726071527" lon="9.555799584432792"><ele>72.0</ele><time>2026-03-30T09:02:36Z</time></trkpt><trkpt lat="45.284625850323955" lon="9.555816531569386"><ele>72.0</ele><time>2026-03-30T09:02:38Z</time></trkpt><trkpt lat="45.28469997966591" lon="9.555851959650091"><ele>72.0</ele><time>2026-03-30T09:02:47Z</time></trkpt><trkpt lat="45.28477470327884" lon="9.55581788054814"><ele>72.0</ele><time>2026-03-30T09:02:50Z</time></trkpt><trkpt lat="45.28487070998238" lon="9.555712563375122"><ele>72.6</ele><time>2026-03-30T09:02:52Z</time></trkpt><trkpt lat="45.28493897124011" lon="9.555643079549457"><ele>73.2</ele><time>2026-03-30T09:02:53Z</time></trkpt><trkpt lat="45.28498869672451" lon="9.555560080198084"><ele>73.8</ele><time>2026-03-30T09:02:54Z</time></trkpt><trkpt lat="45.285083127668464" lon="9.555542352634026"><ele>74.4</ele><time>2026-03-30T09:02:56Z</time></trkpt><trkpt lat="45.28510769619071" lon="9.555755804178062"><ele>75.0</ele><time>2026-03-30T09:03:08Z</time></trkpt><trkpt lat="45.2850691943676" lon="9.55587094115719"><ele>75.0</ele><time>2026-03-30T09:03:09Z</time></trkpt><trkpt lat="45.28500830972664" lon="9.556027990158773"><ele>75.0</ele><time>2026-03-30T09:03:10Z</time></trkpt><trkpt lat="45.284940337333346" lon="9.556221641786658"><ele>75.0</ele><time>2026-03-30T09:03:11Z</time></trkpt><trkpt lat="45.28487856557671" lon="9.556426319494257"><ele>75.0</ele><time>2026-03-30T09:03:12Z</time></trkpt><trkpt lat="45.28481661607912" lon="9.556644225348618"><ele>74.33333333333333</ele><time>2026-03-30T09:03:13Z</time></trkpt><trkpt lat="45.28474324678863" lon="9.55687894114489"><ele>73.66666666666666</ele><time>2026-03-30T09:03:14Z</time></trkpt><trkpt lat="45.284664930606574" lon="9.557111054909434"><ele>73.0</ele><time>2026-03-30T09:03:15Z</time></trkpt><trkpt lat="45.28458046901432" lon="9.557367787277775"><ele>73.0</ele><time>2026-03-30T09:03:16Z</time></trkpt><trkpt lat="45.28448622508223" lon="9.557661497764396"><ele>73.0</ele><time>2026-03-30T09:03:17Z</time></trkpt><trkpt lat="45.28438966421431" lon="9.55796413369998"><ele>72.5</ele><time>2026-03-30T09:03:18Z</time></trkpt><trkpt lat="45.2842854506959" lon="9.558278441062729"><ele>72.0</ele><time>2026-03-30T09:03:19Z</time></trkpt><trkpt lat="45.284183749753836" lon="9.558573898291526"><ele>71.66666666666667</ele><time>2026-03-30T09:03:20Z</time></trkpt><trkpt lat="45.28408160561212" lon="9.558856859323457"><ele>71.33333333333334</ele><time>2026-03-30T09:03:21Z</time></trkpt><trkpt lat="45.28397742250714" lon="9.559124598296826"><ele>71.0</ele><time>2026-03-30T09:03:22Z</time></trkpt><trkpt lat="45.283872287336834" lon="9.559373771282779"><ele>72.0</ele><time>2026-03-30T09:03:23Z</time></trkpt><trkpt lat="45.28376603448035" lon="9.55960582758825"><ele>73.0</ele><time>2026-03-30T09:03:24Z</time></trkpt><trkpt lat="45.2836568121115" lon="9.559836399953218"><ele>74.0</ele><time>2026-03-30T09:03:25Z</time></trkpt><trkpt lat="45.28355132172375" lon="9.560063128212358"><ele>74.0</ele><time>2026-03-30T09:03:26Z</time></trkpt><trkpt lat="45.283449693550494" lon="9.560281022113772"><ele>74.0</ele><time>2026-03-30T09:03:27Z</time></trkpt><trkpt lat="45.2833458765681" lon="9.56049214815418"><ele>74.0</ele><time>2026-03-30T09:03:28Z</time></trkpt><trkpt lat="45.283240629989805" lon="9.560699100046246"><ele>73.66666666666667</ele><time>2026-03-30T09:03:29Z</time></trkpt><trkpt lat="45.28313559475498" lon="9.560906173841785"><ele>73.33333333333333</ele><time>2026-03-30T09:03:30Z</time></trkpt><trkpt lat="45.28303842040209" lon="9.561098797462751"><ele>73.0</ele><time>2026-03-30T09:03:31Z</time></trkpt><trkpt lat="45.28294455855003" lon="9.56128277464804"><ele>73.0</ele><time>2026-03-30T09:03:32Z</time></trkpt><trkpt lat="45.282853894101784" lon="9.561463769887181"><ele>73.0</ele><time>2026-03-30T09:03:33Z</time></trkpt><trkpt lat="45.28276002995028" lon="9.561652445006056"><ele>73.0</ele><time>2026-03-30T09:03:34Z</time></trkpt><trkpt lat="45.282656651479776" lon="9.561859823376901"><ele>73.33333333333333</ele><time>2026-03-30T09:03:35Z</time></trkpt><trkpt lat="45.28253715117128" lon="9.562098607177065"><ele>73.66666666666667</ele><time>2026-03-30T09:03:36Z</time></trkpt><trkpt lat="45.28240943746577" lon="9.562353394866086"><ele>74.0</ele><time>2026-03-30T09:03:37Z</time></trkpt><trkpt lat="45.28227933459082" lon="9.562619526752849"><ele>73.33333333333334</ele><time>2026-03-30T09:03:38Z</time></trkpt><trkpt lat="45.282153065964266" lon="9.562880165127105"><ele>72.66666666666667</ele><time>2026-03-30T09:03:39Z</time></trkpt><trkpt lat="45.282036188298385" lon="9.563119556278016"><ele>72.0</ele><time>2026-03-30T09:03:40Z</time></trkpt><trkpt lat="45.28192584224138" lon="9.563346219153853"><ele>72.0</ele><time>2026-03-30T09:03:41Z</time></trkpt><trkpt lat="45.28181328296058" lon="9.563577927868085"><ele>72.0</ele><time>2026-03-30T09:03:42Z</time></trkpt><trkpt lat="45.281701377141005" lon="9.563806687620888"><ele>72.0</ele><time>2026-03-30T09:03:43Z</time></trkpt><trkpt lat="45.28159547874443" lon="9.56403179772795"><ele>72.33333333333333</ele><time>2026-03-30T09:03:44Z</time></trkpt><trkpt lat="45.281490711217984" lon="9.56424873996514"><ele>72.66666666666666</ele><time>2026-03-30T09:03:45Z</time></trkpt><trkpt lat="45.28138209607826" lon="9.564449569476901"><ele>73.0</ele><time>2026-03-30T09:03:46Z</time></trkpt><trkpt lat="45.28128296948045" lon="9.564647129099868"><ele>73.0</ele><time>2026-03-30T09:03:46.999Z</time></trkpt><trkpt lat="45.28118803651712" lon="9.564841571103797"><ele>73.0</ele><time>2026-03-30T09:03:47.999Z</time></trkpt><trkpt lat="45.281097884309034" lon="9.565029770273087"><ele>73.0</ele><time>2026-03-30T09:03:48.999Z</time></trkpt><trkpt lat="45.28100946220673" lon="9.565205413850363"><ele>73.0</ele><time>2026-03-30T09:03:49.999Z</time></trkpt><trkpt lat="45.2809244505934" lon="9.56536371052191"><ele>73.0</ele><time>2026-03-30T09:03:50.999Z</time></trkpt><trkpt lat="45.28084220236469" lon="9.565500324427271"><ele>73.0</ele><time>2026-03-30T09:03:51.999Z</time></trkpt><trkpt lat="45.280758119582075" lon="9.565616605172433"><ele>73.0</ele><time>2026-03-30T09:03:52.999Z</time></trkpt><trkpt lat="45.28067678016539" lon="9.56571846339412"><ele>72.8</ele><time>2026-03-30T09:03:53.999Z</time></trkpt><trkpt lat="45.28058657888238" lon="9.565813769320947"><ele>72.6</ele><time>2026-03-30T09:03:54.999Z</time></trkpt><trkpt lat="45.28049332843451" lon="9.565892142347508"><ele>72.4</ele><time>2026-03-30T09:03:55.999Z</time></trkpt><trkpt lat="45.28041220298356" lon="9.565974452688547"><ele>72.2</ele><time>2026-03-30T09:03:56.999Z</time></trkpt><trkpt lat="45.28035456986447" lon="9.566090758022732"><ele>72.0</ele><time>2026-03-30T09:03:57.999Z</time></trkpt><trkpt lat="45.28034009489261" lon="9.56624533997247"><ele>72.66666666666667</ele><time>2026-03-30T09:03:58.999Z</time></trkpt><trkpt lat="45.280289992117936" lon="9.566407236698508"><ele>73.33333333333334</ele><time>2026-03-30T09:03:59.999Z</time></trkpt><trkpt lat="45.28024349020341" lon="9.566615550856405"><ele>74.0</ele><time>2026-03-30T09:04:00.999Z</time></trkpt><trkpt lat="45.280168502033995" lon="9.566867333271817"><ele>73.33333333333334</ele><time>2026-03-30T09:04:01.999Z</time></trkpt><trkpt lat="45.280091617393694" lon="9.56707949797957"><ele>72.66666666666667</ele><time>2026-03-30T09:04:02.999Z</time></trkpt><trkpt lat="45.27999429255279" lon="9.567246616978137"><ele>72.0</ele><time>2026-03-30T09:04:03.999Z</time></trkpt><trkpt lat="45.27992734085208" lon="9.567420567292432"><ele>72.0</ele><time>2026-03-30T09:04:04.999Z</time></trkpt><trkpt lat="45.27984411388178" lon="9.567575075976851"><ele>72.0</ele><time>2026-03-30T09:04:05.999Z</time></trkpt><trkpt lat="45.27975481538666" lon="9.567753332431694"><ele>72.0</ele><time>2026-03-30T09:04:06.999Z</time></trkpt><trkpt lat="45.27966431510532" lon="9.567932886470008"><ele>72.0</ele><time>2026-03-30T09:04:07.999Z</time></trkpt><trkpt lat="45.27957676520979" lon="9.568105785258435"><ele>71.75</ele><time>2026-03-30T09:04:08.999Z</time></trkpt><trkpt lat="45.279494769213926" lon="9.568271203657712"><ele>71.5</ele><time>2026-03-30T09:04:09.999Z</time></trkpt><trkpt lat="45.27941223732643" lon="9.568433944631423"><ele>71.25</ele><time>2026-03-30T09:04:10.999Z</time></trkpt><trkpt lat="45.279328057145264" lon="9.568602323326404"><ele>71.0</ele><time>2026-03-30T09:04:11.999Z</time></trkpt><trkpt lat="45.27924429008009" lon="9.568777125011435"><ele>71.0</ele><time>2026-03-30T09:04:12.999Z</time></trkpt><trkpt lat="45.27915669625853" lon="9.568962780237424"><ele>71.0</ele><time>2026-03-30T09:04:13.999Z</time></trkpt><trkpt lat="45.27906607831816" lon="9.569150633547855"><ele>71.0</ele><time>2026-03-30T09:04:14.999Z</time></trkpt><trkpt lat="45.27897057044233" lon="9.56933605969198"><ele>70.66666666666667</ele><time>2026-03-30T09:04:15.999Z</time></trkpt><trkpt lat="45.2788704332871" lon="9.569527514317842"><ele>70.33333333333333</ele><time>2026-03-30T09:04:16.999Z</time></trkpt><trkpt lat="45.2787734782661" lon="9.569723824905848"><ele>70.0</ele><time>2026-03-30T09:04:17.999Z</time></trkpt><trkpt lat="45.27867084381549" lon="9.569923115694136"><ele>70.0</ele><time>2026-03-30T09:04:18.999Z</time></trkpt><trkpt lat="45.278567101940794" lon="9.570128920179629"><ele>70.0</ele><time>2026-03-30T09:04:19.999Z</time></trkpt><trkpt lat="45.278467579473265" lon="9.570330523378642"><ele>70.0</ele><time>2026-03-30T09:04:20.999Z</time></trkpt><trkpt lat="45.27837446087701" lon="9.570522550187945"><ele>70.33333333333333</ele><time>2026-03-30T09:04:21.999Z</time></trkpt><trkpt lat="45.27828521872906" lon="9.570705742624904"><ele>70.66666666666667</ele><time>2026-03-30T09:04:22.999Z</time></trkpt><trkpt lat="45.27820024567111" lon="9.570886960217983"><ele>71.0</ele><time>2026-03-30T09:04:23.999Z</time></trkpt><trkpt lat="45.27811148494303" lon="9.571068938598101"><ele>71.0</ele><time>2026-03-30T09:04:24.999Z</time></trkpt><trkpt lat="45.27801392503737" lon="9.571254890842978"><ele>71.0</ele><time>2026-03-30T09:04:25.999Z</time></trkpt><trkpt lat="45.27791637350909" lon="9.571446702549482"><ele>71.0</ele><time>2026-03-30T09:04:26.999Z</time></trkpt><trkpt lat="45.27780760251294" lon="9.571674656278358"><ele>71.0</ele><time>2026-03-30T09:04:27.999Z</time></trkpt><trkpt lat="45.27768467973668" lon="9.571930973734899"><ele>71.0</ele><time>2026-03-30T09:04:29Z</time></trkpt><trkpt lat="45.27756415542055" lon="9.572174321968802"><ele>71.0</ele><time>2026-03-30T09:04:30Z</time></trkpt><trkpt lat="45.27746153269007" lon="9.572386272215859"><ele>71.0</ele><time>2026-03-30T09:04:31Z</time></trkpt><trkpt lat="45.277358822396835" lon="9.572595706038479"><ele>71.0</ele><time>2026-03-30T09:04:32Z</time></trkpt><trkpt lat="45.27724240077132" lon="9.572829665656826"><ele>71.0</ele><time>2026-03-30T09:04:33Z</time></trkpt><trkpt lat="45.27710942729503" lon="9.573091104562327"><ele>71.0</ele><time>2026-03-30T09:04:34Z</time></trkpt><trkpt lat="45.27697929453113" lon="9.57335482313777"><ele>71.0</ele><time>2026-03-30T09:04:35Z</time></trkpt><trkpt lat="45.27686106421194" lon="9.573595050135417"><ele>71.0</ele><time>2026-03-30T09:04:36Z</time></trkpt><trkpt lat="45.276751835532444" lon="9.573816002912857"><ele>71.0</ele><time>2026-03-30T09:04:37Z</time></trkpt><trkpt lat="45.27664075120438" lon="9.574039607049254"><ele>71.0</ele><time>2026-03-30T09:04:38Z</time></trkpt><trkpt lat="45.27652956398567" lon="9.574265342249536"><ele>71.0</ele><time>2026-03-30T09:04:39Z</time></trkpt><trkpt lat="45.276421339651804" lon="9.574491446528077"><ele>71.0</ele><time>2026-03-30T09:04:40Z</time></trkpt><trkpt lat="45.27631261444747" lon="9.574716285235793"><ele>71.0</ele><time>2026-03-30T09:04:41Z</time></trkpt><trkpt lat="45.276201512815135" lon="9.574936105960331"><ele>71.0</ele><time>2026-03-30T09:04:42Z</time></trkpt><trkpt lat="45.27609114569854" lon="9.575154183045614"><ele>70.66666666666667</ele><time>2026-03-30T09:04:43Z</time></trkpt><trkpt lat="45.27598118558136" lon="9.575371700076454"><ele>70.33333333333333</ele><time>2026-03-30T09:04:44Z</time></trkpt><trkpt lat="45.275871532718355" lon="9.575592298851303"><ele>70.0</ele><time>2026-03-30T09:04:45Z</time></trkpt><trkpt lat="45.27575899624846" lon="9.575822399326904"><ele>70.0</ele><time>2026-03-30T09:04:46Z</time></trkpt><trkpt lat="45.27563296066773" lon="9.57608093121209"><ele>70.0</ele><time>2026-03-30T09:04:47Z</time></trkpt><trkpt lat="45.27549870000973" lon="9.576352343946674"><ele>70.33333333333333</ele><time>2026-03-30T09:04:48Z</time></trkpt><trkpt lat="45.2753771511652" lon="9.576599676628627"><ele>70.66666666666667</ele><time>2026-03-30T09:04:49Z</time></trkpt><trkpt lat="45.27526702093339" lon="9.576823528577622"><ele>71.0</ele><time>2026-03-30T09:04:50Z</time></trkpt><trkpt lat="45.27516332025297" lon="9.57703248583419"><ele>72.33333333333334</ele><time>2026-03-30T09:04:51Z</time></trkpt><trkpt lat="45.27506088008548" lon="9.577240161306271"><ele>73.66666666666667</ele><time>2026-03-30T09:04:52Z</time></trkpt><trkpt lat="45.274959526527034" lon="9.577445548468445"><ele>75.0</ele><time>2026-03-30T09:04:53Z</time></trkpt><trkpt lat="45.274860430901214" lon="9.577643036783106"><ele>73.0</ele><time>2026-03-30T09:04:54Z</time></trkpt><trkpt lat="45.274684161519275" lon="9.577998899616775"><ele>71.0</ele><time>2026-03-30T09:04:56Z</time></trkpt><trkpt lat="45.27460307406014" lon="9.5781674612527"><ele>71.0</ele><time>2026-03-30T09:04:57Z</time></trkpt><trkpt lat="45.274528251489876" lon="9.578324753409145"><ele>71.0</ele><time>2026-03-30T09:04:58Z</time></trkpt><trkpt lat="45.27445575092216" lon="9.578479456218098"><ele>71.0</ele><time>2026-03-30T09:04:59Z</time></trkpt><trkpt lat="45.27438283508472" lon="9.578627630665995"><ele>71.0</ele><time>2026-03-30T09:05:00Z</time></trkpt><trkpt lat="45.27430479175656" lon="9.57876553586566"><ele>70.8</ele><time>2026-03-30T09:05:01Z</time></trkpt><trkpt lat="45.274223260811205" lon="9.57888486227026"><ele>70.6</ele><time>2026-03-30T09:05:02Z</time></trkpt><trkpt lat="45.27412645729779" lon="9.578968641037525"><ele>70.4</ele><time>2026-03-30T09:05:03Z</time></trkpt><trkpt lat="45.27403840411265" lon="9.579058571571837"><ele>70.2</ele><time>2026-03-30T09:05:04Z</time></trkpt><trkpt lat="45.273967798654816" lon="9.579161425928397"><ele>70.0</ele><time>2026-03-30T09:05:05Z</time></trkpt><trkpt lat="45.273877980107976" lon="9.579247882527612"><ele>70.0</ele><time>2026-03-30T09:05:06Z</time></trkpt><trkpt lat="45.27378341914871" lon="9.57934961656418"><ele>70.0</ele><time>2026-03-30T09:05:07Z</time></trkpt><trkpt lat="45.27369341825521" lon="9.579475468686486"><ele>70.0</ele><time>2026-03-30T09:05:08Z</time></trkpt><trkpt lat="45.27361878960133" lon="9.579624693490619"><ele>70.0</ele><time>2026-03-30T09:05:09Z</time></trkpt><trkpt lat="45.273556118526066" lon="9.579778457887787"><ele>69.75</ele><time>2026-03-30T09:05:10Z</time></trkpt><trkpt lat="45.273509881043076" lon="9.579924114587863"><ele>69.5</ele><time>2026-03-30T09:05:11Z</time></trkpt><trkpt lat="45.273485809052175" lon="9.580052160246133"><ele>69.25</ele><time>2026-03-30T09:05:12Z</time></trkpt><trkpt lat="45.273461958909245" lon="9.580146393900776"><ele>69.0</ele><time>2026-03-30T09:05:13Z</time></trkpt><trkpt lat="45.273619166539945" lon="9.580322315724493"><ele>69.0</ele><time>2026-03-30T09:05:15Z</time></trkpt><trkpt lat="45.27373715991694" lon="9.580376767594728"><ele>69.0</ele><time>2026-03-30T09:05:16Z</time></trkpt><trkpt lat="45.27386926587829" lon="9.580436333273303"><ele>69.0</ele><time>2026-03-30T09:05:17Z</time></trkpt><trkpt lat="45.27398480627569" lon="9.580478753964321"><ele>69.0</ele><time>2026-03-30T09:05:18Z</time></trkpt><trkpt lat="45.27406224979098" lon="9.580582037037889"><ele>69.66666666666667</ele><time>2026-03-30T09:05:19Z</time></trkpt><trkpt lat="45.27407285266596" lon="9.58078989129866"><ele>70.33333333333334</ele><time>2026-03-30T09:05:20Z</time></trkpt><trkpt lat="45.27412335346336" lon="9.581017443691708"><ele>71.0</ele><time>2026-03-30T09:05:21Z</time></trkpt><trkpt lat="45.27419335179894" lon="9.5812859231332"><ele>71.0</ele><time>2026-03-30T09:05:22Z</time></trkpt><trkpt lat="45.274271143178666" lon="9.581585578143866"><ele>71.0</ele><time>2026-03-30T09:05:23Z</time></trkpt><trkpt lat="45.27435172408285" lon="9.581901920507018"><ele>70.0</ele><time>2026-03-30T09:05:24Z</time></trkpt><trkpt lat="45.27443585519527" lon="9.582224661480604"><ele>69.0</ele><time>2026-03-30T09:05:25Z</time></trkpt><trkpt lat="45.27452660849444" lon="9.582560181247628"><ele>70.0</ele><time>2026-03-30T09:05:26Z</time></trkpt><trkpt lat="45.27461917578858" lon="9.582905204135898"><ele>71.0</ele><time>2026-03-30T09:05:27Z</time></trkpt><trkpt lat="45.2747076013341" lon="9.583239600591687"><ele>71.0</ele><time>2026-03-30T09:05:28Z</time></trkpt><trkpt lat="45.27479488577493" lon="9.583562013495587"><ele>71.0</ele><time>2026-03-30T09:05:29Z</time></trkpt><trkpt lat="45.27488863739455" lon="9.583901262226904"><ele>71.5</ele><time>2026-03-30T09:05:30Z</time></trkpt><trkpt lat="45.27498305440302" lon="9.584254291974569"><ele>72.0</ele><time>2026-03-30T09:05:31Z</time></trkpt><trkpt lat="45.275079828013794" lon="9.584619323162624"><ele>72.0</ele><time>2026-03-30T09:05:32Z</time></trkpt><trkpt lat="45.275181299307896" lon="9.584997341784824"><ele>72.0</ele><time>2026-03-30T09:05:33Z</time></trkpt><trkpt lat="45.27528374385449" lon="9.585370885014147"><ele>70.5</ele><time>2026-03-30T09:05:34Z</time></trkpt><trkpt lat="45.27537830154419" lon="9.585715881262143"><ele>69.0</ele><time>2026-03-30T09:05:35Z</time></trkpt><trkpt lat="45.2754648572523" lon="9.58603997825377"><ele>69.0</ele><time>2026-03-30T09:05:36Z</time></trkpt><trkpt lat="45.275545977620475" lon="9.586344348392034"><ele>69.0</ele><time>2026-03-30T09:05:37Z</time></trkpt><trkpt lat="45.27562764578022" lon="9.5866310806468"><ele>69.0</ele><time>2026-03-30T09:05:38Z</time></trkpt><trkpt lat="45.2757216656215" lon="9.586893227310538"><ele>70.0</ele><time>2026-03-30T09:05:39Z</time></trkpt><trkpt lat="45.2758320466945" lon="9.587130696477915"><ele>71.0</ele><time>2026-03-30T09:05:40Z</time></trkpt><trkpt lat="45.27596415132674" lon="9.587364367533821"><ele>72.0</ele><time>2026-03-30T09:05:41Z</time></trkpt><trkpt lat="45.2761203718039" lon="9.587597330869569"><ele>72.0</ele><time>2026-03-30T09:05:42Z</time></trkpt><trkpt lat="45.27629767132454" lon="9.587828130095149"><ele>72.0</ele><time>2026-03-30T09:05:43Z</time></trkpt><trkpt lat="45.27647865145385" lon="9.588054817252537"><ele>72.0</ele><time>2026-03-30T09:05:44Z</time></trkpt><trkpt lat="45.27663823828442" lon="9.588256619601864"><ele>72.0</ele><time>2026-03-30T09:05:45Z</time></trkpt><trkpt lat="45.27678851280876" lon="9.588451607344183"><ele>72.0</ele><time>2026-03-30T09:05:46Z</time></trkpt><trkpt lat="45.276918887684175" lon="9.588621640630153"><ele>71.66666666666667</ele><time>2026-03-30T09:05:47Z</time></trkpt><trkpt lat="45.277032701290175" lon="9.588771226032197"><ele>71.33333333333334</ele><time>2026-03-30T09:05:48Z</time></trkpt><trkpt lat="45.27714468602562" lon="9.588921877096002"><ele>71.0</ele><time>2026-03-30T09:05:49Z</time></trkpt><trkpt lat="45.27726767885956" lon="9.589082222845555"><ele>71.0</ele><time>2026-03-30T09:05:50Z</time></trkpt><trkpt lat="45.27739397025225" lon="9.589246842797039"><ele>71.0</ele><time>2026-03-30T09:05:51Z</time></trkpt><trkpt lat="45.27752360023992" lon="9.589415474218665"><ele>71.0</ele><time>2026-03-30T09:05:52Z</time></trkpt><trkpt lat="45.27766978238462" lon="9.589598433364735"><ele>71.0</ele><time>2026-03-30T09:05:53Z</time></trkpt><trkpt lat="45.27782460147434" lon="9.589787521974326"><ele>71.0</ele><time>2026-03-30T09:05:54Z</time></trkpt><trkpt lat="45.27798025242288" lon="9.589985477568437"><ele>71.0</ele><time>2026-03-30T09:05:55Z</time></trkpt><trkpt lat="45.27814014975481" lon="9.590198984335153"><ele>70.5</ele><time>2026-03-30T09:05:56Z</time></trkpt><trkpt lat="45.27830665217895" lon="9.590419064762314"><ele>70.0</ele><time>2026-03-30T09:05:57Z</time></trkpt><trkpt lat="45.27847647190069" lon="9.590640988889858"><ele>70.0</ele><time>2026-03-30T09:05:58Z</time></trkpt><trkpt lat="45.27863995801809" lon="9.590860520835689"><ele>70.0</ele><time>2026-03-30T09:05:59Z</time></trkpt><trkpt lat="45.2787854809032" lon="9.591060784093393"><ele>70.0</ele><time>2026-03-30T09:06:00Z</time></trkpt><trkpt lat="45.27893591432885" lon="9.591254030443224"><ele>70.0</ele><time>2026-03-30T09:06:01Z</time></trkpt><trkpt lat="45.27909752292839" lon="9.59145231859777"><ele>70.0</ele><time>2026-03-30T09:06:02Z</time></trkpt><trkpt lat="45.27924061027351" lon="9.591649175860589"><ele>70.0</ele><time>2026-03-30T09:06:03Z</time></trkpt><trkpt lat="45.27937377612412" lon="9.591840664558667"><ele>69.66666666666666</ele><time>2026-03-30T09:06:04Z</time></trkpt><trkpt lat="45.27952013870027" lon="9.59201669997417"><ele>69.33333333333333</ele><time>2026-03-30T09:06:04.999Z</time></trkpt><trkpt lat="45.27967329484017" lon="9.592174114514615"><ele>69.0</ele><time>2026-03-30T09:06:05.999Z</time></trkpt><trkpt lat="45.279829779233275" lon="9.592301844289215"><ele>69.0</ele><time>2026-03-30T09:06:06.999Z</time></trkpt><trkpt lat="45.279980970911126" lon="9.592418789413248"><ele>69.0</ele><time>2026-03-30T09:06:07.999Z</time></trkpt><trkpt lat="45.28014092951383" lon="9.59252973388001"><ele>69.0</ele><time>2026-03-30T09:06:08.999Z</time></trkpt><trkpt lat="45.280310023722336" lon="9.59262974230518"><ele>69.0</ele><time>2026-03-30T09:06:09.999Z</time></trkpt><trkpt lat="45.28050069980219" lon="9.592710989242685"><ele>69.0</ele><time>2026-03-30T09:06:10.999Z</time></trkpt><trkpt lat="45.28071170526444" lon="9.592775814925863"><ele>69.0</ele><time>2026-03-30T09:06:11.999Z</time></trkpt><trkpt lat="45.28093248444918" lon="9.592834047343304"><ele>69.0</ele><time>2026-03-30T09:06:12.999Z</time></trkpt><trkpt lat="45.28116817077378" lon="9.592879246046577"><ele>69.0</ele><time>2026-03-30T09:06:13.999Z</time></trkpt><trkpt lat="45.28142350144621" lon="9.592912857890994"><ele>70.0</ele><time>2026-03-30T09:06:14.999Z</time></trkpt><trkpt lat="45.2816795841559" lon="9.592950266189996"><ele>71.0</ele><time>2026-03-30T09:06:15.999Z</time></trkpt><trkpt lat="45.28192874611136" lon="9.592989472208439"><ele>71.0</ele><time>2026-03-30T09:06:16.999Z</time></trkpt><trkpt lat="45.28216486687178" lon="9.593032780935372"><ele>71.0</ele><time>2026-03-30T09:06:17.999Z</time></trkpt><trkpt lat="45.28238926991071" lon="9.593083251513011"><ele>72.0</ele><time>2026-03-30T09:06:18.999Z</time></trkpt><trkpt lat="45.28261473490228" lon="9.59312784053704"><ele>73.0</ele><time>2026-03-30T09:06:19.999Z</time></trkpt><trkpt lat="45.28283833880881" lon="9.593169285848361"><ele>73.0</ele><time>2026-03-30T09:06:20.999Z</time></trkpt><trkpt lat="45.28307176567329" lon="9.593213232820803"><ele>73.0</ele><time>2026-03-30T09:06:21.999Z</time></trkpt><trkpt lat="45.28330321129108" lon="9.59325717205053"><ele>72.33333333333333</ele><time>2026-03-30T09:06:22.999Z</time></trkpt><trkpt lat="45.283524756478634" lon="9.593301303341649"><ele>71.66666666666667</ele><time>2026-03-30T09:06:23.999Z</time></trkpt><trkpt lat="45.28374111961977" lon="9.593347020320225"><ele>71.0</ele><time>2026-03-30T09:06:24.999Z</time></trkpt><trkpt lat="45.28396259518406" lon="9.593391629592123"><ele>70.5</ele><time>2026-03-30T09:06:25.999Z</time></trkpt><trkpt lat="45.284204526698204" lon="9.593436230263"><ele>70.0</ele><time>2026-03-30T09:06:26.999Z</time></trkpt><trkpt lat="45.28445556777168" lon="9.593478653083295"><ele>70.0</ele><time>2026-03-30T09:06:27.999Z</time></trkpt><trkpt lat="45.28471201942939" lon="9.593528823035818"><ele>70.0</ele><time>2026-03-30T09:06:28.999Z</time></trkpt><trkpt lat="45.28494318635922" lon="9.59358746217286"><ele>69.66666666666666</ele><time>2026-03-30T09:06:29.999Z</time></trkpt><trkpt lat="45.28516198481895" lon="9.593654226764357"><ele>69.33333333333333</ele><time>2026-03-30T09:06:30.999Z</time></trkpt><trkpt lat="45.285361407570875" lon="9.593737761708883"><ele>69.0</ele><time>2026-03-30T09:06:31.999Z</time></trkpt><trkpt lat="45.28555955546369" lon="9.59383575241261"><ele>69.0</ele><time>2026-03-30T09:06:32.999Z</time></trkpt><trkpt lat="45.285754833335844" lon="9.593946861692762"><ele>69.0</ele><time>2026-03-30T09:06:33.999Z</time></trkpt><trkpt lat="45.28593665411437" lon="9.594073661231521"><ele>69.0</ele><time>2026-03-30T09:06:35Z</time></trkpt><trkpt lat="45.286103615027876" lon="9.5942127651961"><ele>69.0</ele><time>2026-03-30T09:06:36Z</time></trkpt><trkpt lat="45.286265922175744" lon="9.594367852660826"><ele>69.0</ele><time>2026-03-30T09:06:37Z</time></trkpt><trkpt lat="45.286423332978956" lon="9.594538560469568"><ele>69.0</ele><time>2026-03-30T09:06:38Z</time></trkpt><trkpt lat="45.28657127988433" lon="9.594720860464305"><ele>69.66666666666667</ele><time>2026-03-30T09:06:39Z</time></trkpt><trkpt lat="45.28671010534127" lon="9.59491298215355"><ele>70.33333333333334</ele><time>2026-03-30T09:06:40Z</time></trkpt><trkpt lat="45.286839548845094" lon="9.595110903371165"><ele>71.0</ele><time>2026-03-30T09:06:41Z</time></trkpt><trkpt lat="45.286961414739736" lon="9.595314726582615"><ele>71.66666666666667</ele><time>2026-03-30T09:06:42Z</time></trkpt><trkpt lat="45.28706774428992" lon="9.595510882429297"><ele>72.33333333333333</ele><time>2026-03-30T09:06:43Z</time></trkpt><trkpt lat="45.28716158756516" lon="9.595703586508247"><ele>73.0</ele><time>2026-03-30T09:06:44Z</time></trkpt><trkpt lat="45.287246472679776" lon="9.59589365369563"><ele>73.0</ele><time>2026-03-30T09:06:45Z</time></trkpt><trkpt lat="45.28734130945793" lon="9.59609355864168"><ele>73.0</ele><time>2026-03-30T09:06:46Z</time></trkpt><trkpt lat="45.28741216724367" lon="9.59627203420443"><ele>73.0</ele><time>2026-03-30T09:06:47Z</time></trkpt><trkpt lat="45.2874959354362" lon="9.596471506901311"><ele>73.0</ele><time>2026-03-30T09:06:48Z</time></trkpt><trkpt lat="45.287576264530514" lon="9.596645941572108"><ele>73.0</ele><time>2026-03-30T09:06:49Z</time></trkpt><trkpt lat="45.287656364879105" lon="9.596827149416415"><ele>73.0</ele><time>2026-03-30T09:06:50Z</time></trkpt><trkpt lat="45.28773505817816" lon="9.597014255487078"><ele>72.33333333333333</ele><time>2026-03-30T09:06:51Z</time></trkpt><trkpt lat="45.28781943947278" lon="9.597207250194085"><ele>71.66666666666667</ele><time>2026-03-30T09:06:52Z</time></trkpt><trkpt lat="45.28790303502662" lon="9.597406402165502"><ele>71.0</ele><time>2026-03-30T09:06:53Z</time></trkpt><trkpt lat="45.28799414030378" lon="9.597611639412213"><ele>71.0</ele><time>2026-03-30T09:06:54Z</time></trkpt><trkpt lat="45.2880838777929" lon="9.597828316701722"><ele>71.0</ele><time>2026-03-30T09:06:55Z</time></trkpt><trkpt lat="45.288193725289574" lon="9.598081602632469"><ele>71.0</ele><time>2026-03-30T09:06:56Z</time></trkpt><trkpt lat="45.28831093564977" lon="9.598353275391363"><ele>70.33333333333334</ele><time>2026-03-30T09:06:57Z</time></trkpt><trkpt lat="45.28841608258524" lon="9.598592909590883"><ele>69.66666666666667</ele><time>2026-03-30T09:06:58Z</time></trkpt><trkpt lat="45.288514370487626" lon="9.59881670655206"><ele>69.0</ele><time>2026-03-30T09:06:59Z</time></trkpt><trkpt lat="45.288605728712426" lon="9.599014075407267"><ele>67.5</ele><time>2026-03-30T09:07:00Z</time></trkpt><trkpt lat="45.28867892310937" lon="9.599193301909391"><ele>66.0</ele><time>2026-03-30T09:07:01Z</time></trkpt><trkpt lat="45.28874068518395" lon="9.599345778349921"><ele>64.5</ele><time>2026-03-30T09:07:02Z</time></trkpt><trkpt lat="45.28880461895715" lon="9.599488542819898"><ele>63.0</ele><time>2026-03-30T09:07:03Z</time></trkpt><trkpt lat="45.28887158316039" lon="9.599641446376959"><ele>62.75</ele><time>2026-03-30T09:07:04Z</time></trkpt><trkpt lat="45.28894426883814" lon="9.599807322609086"><ele>62.5</ele><time>2026-03-30T09:07:05Z</time></trkpt><trkpt lat="45.28902082363208" lon="9.5999812318304"><ele>62.25</ele><time>2026-03-30T09:07:06Z</time></trkpt><trkpt lat="45.289096372296385" lon="9.600144431575323"><ele>62.0</ele><time>2026-03-30T09:07:07Z</time></trkpt><trkpt lat="45.28916402645576" lon="9.600290387100912"><ele>61.8</ele><time>2026-03-30T09:07:08Z</time></trkpt><trkpt lat="45.28921788747041" lon="9.600398834577916"><ele>61.6</ele><time>2026-03-30T09:07:09Z</time></trkpt><trkpt lat="45.289254139930854" lon="9.600472871594157"><ele>61.39999999999999</ele><time>2026-03-30T09:07:10Z</time></trkpt><trkpt lat="45.289284521571595" lon="9.600555554267853"><ele>61.199999999999996</ele><time>2026-03-30T09:07:11Z</time></trkpt><trkpt lat="45.2893366418041" lon="9.600697836462817"><ele>61.0</ele><time>2026-03-30T09:07:12Z</time></trkpt><trkpt lat="45.289414255138595" lon="9.600897769533349"><ele>61.0</ele><time>2026-03-30T09:07:13Z</time></trkpt><trkpt lat="45.28950185450416" lon="9.601106653537963"><ele>61.0</ele><time>2026-03-30T09:07:14Z</time></trkpt><trkpt lat="45.289604132242246" lon="9.601365882546109"><ele>61.0</ele><time>2026-03-30T09:07:15Z</time></trkpt><trkpt lat="45.289702704482735" lon="9.601629193994087"><ele>61.0</ele><time>2026-03-30T09:07:16Z</time></trkpt><trkpt lat="45.28980909774894" lon="9.601911522329635"><ele>61.0</ele><time>2026-03-30T09:07:17Z</time></trkpt><trkpt lat="45.28992630218468" lon="9.602228964654842"><ele>60.5</ele><time>2026-03-30T09:07:18Z</time></trkpt><trkpt lat="45.29004649927905" lon="9.602523588581214"><ele>60.0</ele><time>2026-03-30T09:07:19Z</time></trkpt><trkpt lat="45.2901778522679" lon="9.60284299460697"><ele>59.5</ele><time>2026-03-30T09:07:20Z</time></trkpt><trkpt lat="45.29031627463786" lon="9.603171667411228"><ele>59.0</ele><time>2026-03-30T09:07:21Z</time></trkpt><trkpt lat="45.29046392096088" lon="9.603477610934673"><ele>58.5</ele><time>2026-03-30T09:07:22Z</time></trkpt><trkpt lat="45.29061872555281" lon="9.603794858710952"><ele>58.0</ele><time>2026-03-30T09:07:23Z</time></trkpt><trkpt lat="45.29077569450458" lon="9.604115815503864"><ele>58.0</ele><time>2026-03-30T09:07:24Z</time></trkpt><trkpt lat="45.290938285107" lon="9.604443502936878"><ele>58.0</ele><time>2026-03-30T09:07:25Z</time></trkpt><trkpt lat="45.29109713731661" lon="9.604771088417873"><ele>57.0</ele><time>2026-03-30T09:07:26Z</time></trkpt><trkpt lat="45.29125489108781" lon="9.60509481465655"><ele>56.0</ele><time>2026-03-30T09:07:27Z</time></trkpt><trkpt lat="45.29140659017335" lon="9.605411407819394"><ele>56.5</ele><time>2026-03-30T09:07:28Z</time></trkpt><trkpt lat="45.291553781521316" lon="9.605727344894385"><ele>57.0</ele><time>2026-03-30T09:07:29Z</time></trkpt><trkpt lat="45.29169623157554" lon="9.606042049959523"><ele>57.0</ele><time>2026-03-30T09:07:30Z</time></trkpt><trkpt lat="45.2918324388978" lon="9.606368229539308"><ele>57.0</ele><time>2026-03-30T09:07:31Z</time></trkpt><trkpt lat="45.291967641230464" lon="9.606715975782086"><ele>56.5</ele><time>2026-03-30T09:07:32Z</time></trkpt><trkpt lat="45.2921015906993" lon="9.607074409392906"><ele>56.0</ele><time>2026-03-30T09:07:33Z</time></trkpt><trkpt lat="45.29224059238176" lon="9.607450679753505"><ele>56.0</ele><time>2026-03-30T09:07:34Z</time></trkpt><trkpt lat="45.29238501153323" lon="9.607825445917818"><ele>56.0</ele><time>2026-03-30T09:07:35Z</time></trkpt><trkpt lat="45.29253064960211" lon="9.608201865723794"><ele>56.5</ele><time>2026-03-30T09:07:36Z</time></trkpt><trkpt lat="45.29267634064589" lon="9.608582606396528"><ele>57.0</ele><time>2026-03-30T09:07:37Z</time></trkpt><trkpt lat="45.29282654389211" lon="9.608978649649128"><ele>57.5</ele><time>2026-03-30T09:07:38Z</time></trkpt><trkpt lat="45.29297196249714" lon="9.609365546345815"><ele>58.0</ele><time>2026-03-30T09:07:39Z</time></trkpt><trkpt lat="45.293106166629435" lon="9.609713321595923"><ele>59.0</ele><time>2026-03-30T09:07:40Z</time></trkpt><trkpt lat="45.293231826738015" lon="9.61003667237329"><ele>60.0</ele><time>2026-03-30T09:07:41Z</time></trkpt><trkpt lat="45.293351776221975" lon="9.610348313544714"><ele>60.0</ele><time>2026-03-30T09:07:42Z</time></trkpt><trkpt lat="45.2934758962042" lon="9.610653602316372"><ele>60.0</ele><time>2026-03-30T09:07:43Z</time></trkpt><trkpt lat="45.2936064871142" lon="9.610947632154334"><ele>60.0</ele><time>2026-03-30T09:07:44Z</time></trkpt><trkpt lat="45.29374549806386" lon="9.611231436174736"><ele>60.0</ele><time>2026-03-30T09:07:45Z</time></trkpt><trkpt lat="45.293887120617285" lon="9.611500146607977"><ele>59.0</ele><time>2026-03-30T09:07:46Z</time></trkpt><trkpt lat="45.294023477676454" lon="9.611739349068412"><ele>58.0</ele><time>2026-03-30T09:07:47Z</time></trkpt><trkpt lat="45.29415420129118" lon="9.611957494326886"><ele>57.0</ele><time>2026-03-30T09:07:48Z</time></trkpt><trkpt lat="45.29426887553484" lon="9.612169296027806"><ele>57.0</ele><time>2026-03-30T09:07:49Z</time></trkpt><trkpt lat="45.2943650108959" lon="9.612390157702578"><ele>57.0</ele><time>2026-03-30T09:07:50Z</time></trkpt><trkpt lat="45.294445075695045" lon="9.612630943135384"><ele>57.0</ele><time>2026-03-30T09:07:51Z</time></trkpt><trkpt lat="45.29450728170171" lon="9.61290058702075"><ele>56.66666666666667</ele><time>2026-03-30T09:07:52Z</time></trkpt><trkpt lat="45.294551741913025" lon="9.613189843465465"><ele>56.333333333333336</ele><time>2026-03-30T09:07:53Z</time></trkpt><trkpt lat="45.29458072421319" lon="9.613489444788948"><ele>56.0</ele><time>2026-03-30T09:07:54Z</time></trkpt><trkpt lat="45.29459341366067" lon="9.613821877686362"><ele>56.0</ele><time>2026-03-30T09:07:55Z</time></trkpt><trkpt lat="45.29460325582314" lon="9.614160416906259"><ele>56.0</ele><time>2026-03-30T09:07:56Z</time></trkpt><trkpt lat="45.29461439494074" lon="9.614496685501924"><ele>55.5</ele><time>2026-03-30T09:07:57Z</time></trkpt><trkpt lat="45.2946286255241" lon="9.61482728227364"><ele>55.0</ele><time>2026-03-30T09:07:58Z</time></trkpt><trkpt lat="45.29464377282123" lon="9.615146163921663"><ele>55.666666666666664</ele><time>2026-03-30T09:07:59Z</time></trkpt><trkpt lat="45.29465838638709" lon="9.61545080778273"><ele>56.33333333333333</ele><time>2026-03-30T09:08:00Z</time></trkpt><trkpt lat="45.294671853942106" lon="9.615747778532713"><ele>57.0</ele><time>2026-03-30T09:08:01Z</time></trkpt><trkpt lat="45.29468623901215" lon="9.6160397096652"><ele>57.0</ele><time>2026-03-30T09:08:02Z</time></trkpt><trkpt lat="45.29470078644477" lon="9.616335725812243"><ele>57.0</ele><time>2026-03-30T09:08:03Z</time></trkpt><trkpt lat="45.29471539602035" lon="9.616634260633838"><ele>57.0</ele><time>2026-03-30T09:08:04Z</time></trkpt><trkpt lat="45.294732322338476" lon="9.616923586737574"><ele>56.33333333333333</ele><time>2026-03-30T09:08:05Z</time></trkpt><trkpt lat="45.294750166707146" lon="9.617196153845917"><ele>55.666666666666664</ele><time>2026-03-30T09:08:06Z</time></trkpt><trkpt lat="45.29476106398757" lon="9.617459560151431"><ele>55.0</ele><time>2026-03-30T09:08:06.999Z</time></trkpt><trkpt lat="45.294772841797844" lon="9.617747801194955"><ele>55.33333333333333</ele><time>2026-03-30T09:08:07.999Z</time></trkpt><trkpt lat="45.29478518544828" lon="9.618046123076837"><ele>55.66666666666667</ele><time>2026-03-30T09:08:08.999Z</time></trkpt><trkpt lat="45.29479862916353" lon="9.618347857947045"><ele>56.0</ele><time>2026-03-30T09:08:09.999Z</time></trkpt><trkpt lat="45.29481200681648" lon="9.618654769827092"><ele>56.0</ele><time>2026-03-30T09:08:10.999Z</time></trkpt><trkpt lat="45.294826329552166" lon="9.618949745574632"><ele>56.0</ele><time>2026-03-30T09:08:11.999Z</time></trkpt><trkpt lat="45.294846240028" lon="9.619249731789841"><ele>56.0</ele><time>2026-03-30T09:08:12.999Z</time></trkpt><trkpt lat="45.2948609130407" lon="9.619553840306926"><ele>56.66666666666667</ele><time>2026-03-30T09:08:13.999Z</time></trkpt><trkpt lat="45.29487594593572" lon="9.61983913094545"><ele>57.33333333333333</ele><time>2026-03-30T09:08:14.999Z</time></trkpt><trkpt lat="45.29488720422695" lon="9.62006227130817"><ele>58.0</ele><time>2026-03-30T09:08:15.999Z</time></trkpt><trkpt lat="45.29490096574711" lon="9.620291438815764"><ele>57.5</ele><time>2026-03-30T09:08:16.999Z</time></trkpt><trkpt lat="45.29491051061999" lon="9.620535480119974"><ele>57.0</ele><time>2026-03-30T09:08:17.999Z</time></trkpt><trkpt lat="45.2949184274383" lon="9.620737814294586"><ele>56.5</ele><time>2026-03-30T09:08:18.999Z</time></trkpt><trkpt lat="45.2949263349831" lon="9.620900813426433"><ele>56.0</ele><time>2026-03-30T09:08:19.999Z</time></trkpt><trkpt lat="45.29493600833387" lon="9.621040890507501"><ele>55.8</ele><time>2026-03-30T09:08:20.999Z</time></trkpt><trkpt lat="45.29494946448776" lon="9.621157869908757"><ele>55.599999999999994</ele><time>2026-03-30T09:08:21.999Z</time></trkpt><trkpt lat="45.294956412321326" lon="9.62129194983854"><ele>55.4</ele><time>2026-03-30T09:08:23.999Z</time></trkpt><trkpt lat="45.295103875502036" lon="9.621229691079204"><ele>55.2</ele><time>2026-03-30T09:08:25.999Z</time></trkpt><trkpt lat="45.29521256399952" lon="9.62121868807792"><ele>55.0</ele><time>2026-03-30T09:08:27.999Z</time></trkpt><trkpt lat="45.29527816018367" lon="9.62122240189364"><ele>55.0</ele><time>2026-03-30T09:08:28.999Z</time></trkpt><trkpt lat="45.29535098995867" lon="9.621242953309704"><ele>55.0</ele><time>2026-03-30T09:08:29.999Z</time></trkpt><trkpt lat="45.29539282944363" lon="9.62138446557266"><ele>55.0</ele><time>2026-03-30T09:08:30.999Z</time></trkpt><trkpt lat="45.29543638342809" lon="9.621519399736608"><ele>55.0</ele><time>2026-03-30T09:08:31.999Z</time></trkpt><trkpt lat="45.29548675798825" lon="9.621682499468484"><ele>55.0</ele><time>2026-03-30T09:08:32.999Z</time></trkpt><trkpt lat="45.29553782895081" lon="9.621842073904913"><ele>54.99999999999999</ele><time>2026-03-30T09:08:33.999Z</time></trkpt><trkpt lat="45.29556589182095" lon="9.621959373472608"><ele>55.0</ele><time>2026-03-30T09:08:34.999Z</time></trkpt><trkpt lat="45.29558671044752" lon="9.622057451366377"><ele>55.0</ele><time>2026-03-30T09:08:35.999Z</time></trkpt><trkpt lat="45.29561842902466" lon="9.622161918502982"><ele>55.0</ele><time>2026-03-30T09:08:36.999Z</time></trkpt><trkpt lat="45.29565772694699" lon="9.622259636773927"><ele>54.99999999999999</ele><time>2026-03-30T09:08:37.999Z</time></trkpt><trkpt lat="45.295699909399566" lon="9.622356969737305"><ele>55.0</ele><time>2026-03-30T09:08:38.999Z</time></trkpt><trkpt lat="45.29572798969674" lon="9.622465972283333"><ele>55.49999999999999</ele><time>2026-03-30T09:08:39.999Z</time></trkpt><trkpt lat="45.295752901751875" lon="9.622579789792796"><ele>56.0</ele><time>2026-03-30T09:08:41Z</time></trkpt><trkpt lat="45.29577394865082" lon="9.622702372301573"><ele>56.5</ele><time>2026-03-30T09:08:42Z</time></trkpt><trkpt lat="45.2957883008162" lon="9.62281647015871"><ele>57.0</ele><time>2026-03-30T09:08:43Z</time></trkpt><trkpt lat="45.29579784186067" lon="9.622915673192313"><ele>57.49999999999999</ele><time>2026-03-30T09:08:45Z</time></trkpt><trkpt lat="45.29583431394003" lon="9.623075236386923"><ele>58.0</ele><time>2026-03-30T09:08:48Z</time></trkpt><trkpt lat="45.29586592896863" lon="9.62316771584567"><ele>58.166666666666664</ele><time>2026-03-30T09:08:49Z</time></trkpt><trkpt lat="45.29592246516794" lon="9.623227387865269"><ele>58.33333333333333</ele><time>2026-03-30T09:08:50Z</time></trkpt><trkpt lat="45.295990986348905" lon="9.623254740913723"><ele>58.5</ele><time>2026-03-30T09:08:51Z</time></trkpt><trkpt lat="45.29607075867633" lon="9.623235648280453"><ele>58.66666666666667</ele><time>2026-03-30T09:08:52Z</time></trkpt><trkpt lat="45.296167113226225" lon="9.623177005149813"><ele>58.833333333333336</ele><time>2026-03-30T09:08:53Z</time></trkpt><trkpt lat="45.29627791984971" lon="9.623121547119299"><ele>59.0</ele><time>2026-03-30T09:08:54Z</time></trkpt><trkpt lat="45.29639185374558" lon="9.623072519852167"><ele>59.2</ele><time>2026-03-30T09:08:55Z</time></trkpt><trkpt lat="45.29650308711213" lon="9.623023352791096"><ele>59.400000000000006</ele><time>2026-03-30T09:08:56Z</time></trkpt><trkpt lat="45.296610321402724" lon="9.62297443081739"><ele>59.6</ele><time>2026-03-30T09:08:57Z</time></trkpt><trkpt lat="45.29670866062954" lon="9.622934299079931"><ele>59.8</ele><time>2026-03-30T09:08:58Z</time></trkpt><trkpt lat="45.29680297189919" lon="9.622896411234679"><ele>60.0</ele><time>2026-03-30T09:08:59Z</time></trkpt><trkpt lat="45.29689899850693" lon="9.622858138606812"><ele>60.0</ele><time>2026-03-30T09:09:00Z</time></trkpt><trkpt lat="45.296992859331475" lon="9.622820821393283"><ele>60.0</ele><time>2026-03-30T09:09:01Z</time></trkpt><trkpt lat="45.29708458081068" lon="9.622790036361279"><ele>60.0</ele><time>2026-03-30T09:09:02Z</time></trkpt><trkpt lat="45.29717454940386" lon="9.622757127233614"><ele>60.0</ele><time>2026-03-30T09:09:03Z</time></trkpt><trkpt lat="45.297258444577345" lon="9.622722281736051"><ele>60.0</ele><time>2026-03-30T09:09:04Z</time></trkpt><trkpt lat="45.29734596414762" lon="9.62268760082986"><ele>59.6</ele><time>2026-03-30T09:09:05Z</time></trkpt><trkpt lat="45.29743220148191" lon="9.622664584690437"><ele>59.2</ele><time>2026-03-30T09:09:06Z</time></trkpt><trkpt lat="45.297522244956696" lon="9.6226354199964"><ele>58.8</ele><time>2026-03-30T09:09:07Z</time></trkpt><trkpt lat="45.29761452647105" lon="9.62260246142364"><ele>58.4</ele><time>2026-03-30T09:09:08Z</time></trkpt><trkpt lat="45.29769964467659" lon="9.622568116433698"><ele>58.0</ele><time>2026-03-30T09:09:09Z</time></trkpt><trkpt lat="45.29778551928089" lon="9.622548538103901"><ele>57.99999999999999</ele><time>2026-03-30T09:09:10Z</time></trkpt><trkpt lat="45.29786734738758" lon="9.622517864748641"><ele>58.0</ele><time>2026-03-30T09:09:11Z</time></trkpt><trkpt lat="45.29795294377027" lon="9.622500306688568"><ele>58.0</ele><time>2026-03-30T09:09:12Z</time></trkpt><trkpt lat="45.298033137707996" lon="9.622486968502004"><ele>58.0</ele><time>2026-03-30T09:09:13Z</time></trkpt><trkpt lat="45.298115918380056" lon="9.622474654077783"><ele>57.99999999999999</ele><time>2026-03-30T09:09:14Z</time></trkpt><trkpt lat="45.298199061432875" lon="9.622473499201638"><ele>58.0</ele><time>2026-03-30T09:09:15Z</time></trkpt><trkpt lat="45.29829134743093" lon="9.622472811545855"><ele>58.2</ele><time>2026-03-30T09:09:16Z</time></trkpt><trkpt lat="45.298387108358966" lon="9.62246838677742"><ele>58.4</ele><time>2026-03-30T09:09:17Z</time></trkpt><trkpt lat="45.29848967650408" lon="9.62246602379194"><ele>58.60000000000001</ele><time>2026-03-30T09:09:18Z</time></trkpt><trkpt lat="45.29859438687016" lon="9.622475729865567"><ele>58.800000000000004</ele><time>2026-03-30T09:09:19Z</time></trkpt><trkpt lat="45.298701096368774" lon="9.622488277057963"><ele>59.0</ele><time>2026-03-30T09:09:20Z</time></trkpt><trkpt lat="45.29880515675684" lon="9.622499872078672"><ele>59.0</ele><time>2026-03-30T09:09:21Z</time></trkpt><trkpt lat="45.29890491751706" lon="9.622514248970742"><ele>59.00000000000001</ele><time>2026-03-30T09:09:22Z</time></trkpt><trkpt lat="45.29899854005331" lon="9.62252658196088"><ele>59.00000000000001</ele><time>2026-03-30T09:09:23Z</time></trkpt><trkpt lat="45.29909082429874" lon="9.62253427561147"><ele>59.0</ele><time>2026-03-30T09:09:24Z</time></trkpt><trkpt lat="45.299182714272106" lon="9.622540621927337"><ele>59.0</ele><time>2026-03-30T09:09:25Z</time></trkpt><trkpt lat="45.29927446745098" lon="9.622550203195928"><ele>59.00000000000001</ele><time>2026-03-30T09:09:26Z</time></trkpt><trkpt lat="45.29936129046767" lon="9.62256577559667"><ele>59.0</ele><time>2026-03-30T09:09:27Z</time></trkpt><trkpt lat="45.29944827444938" lon="9.6225787766245"><ele>59.0</ele><time>2026-03-30T09:09:28Z</time></trkpt><trkpt lat="45.29952603086503" lon="9.622589868366804"><ele>59.0</ele><time>2026-03-30T09:09:29Z</time></trkpt><trkpt lat="45.29959383249263" lon="9.62261851546413"><ele>59.00000000000001</ele><time>2026-03-30T09:09:30Z</time></trkpt><trkpt lat="45.2996728983849" lon="9.62271891741828"><ele>59.0</ele><time>2026-03-30T09:09:32Z</time></trkpt><trkpt lat="45.29971662926776" lon="9.622872815052677"><ele>59.0</ele><time>2026-03-30T09:09:34Z</time></trkpt><trkpt lat="45.29974384678379" lon="9.622984103497176"><ele>59.00000000000001</ele><time>2026-03-30T09:09:35Z</time></trkpt><trkpt lat="45.29977030010798" lon="9.62311459016194"><ele>59.00000000000001</ele><time>2026-03-30T09:09:36Z</time></trkpt><trkpt lat="45.29979722117858" lon="9.623256793337815"><ele>59.0</ele><time>2026-03-30T09:09:37Z</time></trkpt><trkpt lat="45.29982956960896" lon="9.623406587516799"><ele>59.0</ele><time>2026-03-30T09:09:38Z</time></trkpt><trkpt lat="45.2998616362468" lon="9.62356410127006"><ele>58.5</ele><time>2026-03-30T09:09:39Z</time></trkpt><trkpt lat="45.29989331104972" lon="9.623728832726353"><ele>58.0</ele><time>2026-03-30T09:09:40Z</time></trkpt><trkpt lat="45.299926884734965" lon="9.623902629669919"><ele>57.5</ele><time>2026-03-30T09:09:41Z</time></trkpt><trkpt lat="45.29996950697586" lon="9.624111509032113"><ele>57.0</ele><time>2026-03-30T09:09:42Z</time></trkpt><trkpt lat="45.300020270442296" lon="9.624350907361679"><ele>57.5</ele><time>2026-03-30T09:09:43Z</time></trkpt><trkpt lat="45.300067510436776" lon="9.624562599884948"><ele>58.0</ele><time>2026-03-30T09:09:44Z</time></trkpt><trkpt lat="45.30010551183085" lon="9.62475314131126"><ele>58.5</ele><time>2026-03-30T09:09:45Z</time></trkpt><trkpt lat="45.300136352151526" lon="9.624920713982155"><ele>59.0</ele><time>2026-03-30T09:09:46Z</time></trkpt><trkpt lat="45.300162870077706" lon="9.62507315821369"><ele>59.0</ele><time>2026-03-30T09:09:47Z</time></trkpt><trkpt lat="45.300188161499776" lon="9.625220089143644"><ele>59.00000000000001</ele><time>2026-03-30T09:09:48Z</time></trkpt><trkpt lat="45.300218626067426" lon="9.62535508272673"><ele>59.00000000000001</ele><time>2026-03-30T09:09:49Z</time></trkpt><trkpt lat="45.30024475429438" lon="9.625495704006847"><ele>59.0</ele><time>2026-03-30T09:09:50Z</time></trkpt><trkpt lat="45.30027404810411" lon="9.625641677425438"><ele>59.0</ele><time>2026-03-30T09:09:51Z</time></trkpt><trkpt lat="45.30030675705153" lon="9.625785285581268"><ele>59.16666666666667</ele><time>2026-03-30T09:09:52Z</time></trkpt><trkpt lat="45.300330327772095" lon="9.625912656437245"><ele>59.333333333333336</ele><time>2026-03-30T09:09:53Z</time></trkpt><trkpt lat="45.30034925685187" lon="9.626023691508586"><ele>59.5</ele><time>2026-03-30T09:09:54Z</time></trkpt><trkpt lat="45.300370881547735" lon="9.626128866194632"><ele>59.66666666666667</ele><time>2026-03-30T09:09:55Z</time></trkpt><trkpt lat="45.30038929609607" lon="9.626239338478829"><ele>59.833333333333336</ele><time>2026-03-30T09:09:56Z</time></trkpt><trkpt lat="45.30041069387627" lon="9.626362649485257"><ele>60.0</ele><time>2026-03-30T09:09:57Z</time></trkpt><trkpt lat="45.30043922418389" lon="9.62648819067205"><ele>60.0</ele><time>2026-03-30T09:09:58Z</time></trkpt><trkpt lat="45.3004684865125" lon="9.626598786620564"><ele>60.0</ele><time>2026-03-30T09:09:59Z</time></trkpt><trkpt lat="45.30049627252138" lon="9.626705484868605"><ele>60.0</ele><time>2026-03-30T09:10:00Z</time></trkpt><trkpt lat="45.30052442648952" lon="9.626805751941735"><ele>60.0</ele><time>2026-03-30T09:10:01Z</time></trkpt><trkpt lat="45.30055081403863" lon="9.626894529965758"><ele>60.0</ele><time>2026-03-30T09:10:02Z</time></trkpt><trkpt lat="45.30058940672826" lon="9.627045597629149"><ele>60.0</ele><time>2026-03-30T09:10:04Z</time></trkpt><trkpt lat="45.30060891341284" lon="9.627188880054845"><ele>59.6</ele><time>2026-03-30T09:10:06Z</time></trkpt><trkpt lat="45.30062762837573" lon="9.62735043964013"><ele>59.2</ele><time>2026-03-30T09:10:08Z</time></trkpt><trkpt lat="45.30064459488464" lon="9.627439954267297"><ele>58.8</ele><time>2026-03-30T09:10:09Z</time></trkpt><trkpt lat="45.30066510624934" lon="9.62755370169497"><ele>58.4</ele><time>2026-03-30T09:10:10Z</time></trkpt><trkpt lat="45.30069158831051" lon="9.62768760130459"><ele>58.0</ele><time>2026-03-30T09:10:11Z</time></trkpt><trkpt lat="45.30072023625222" lon="9.627832663524927"><ele>57.75</ele><time>2026-03-30T09:10:12Z</time></trkpt><trkpt lat="45.300751179655094" lon="9.627988617414761"><ele>57.5</ele><time>2026-03-30T09:10:13Z</time></trkpt><trkpt lat="45.30078456397042" lon="9.628157875631652"><ele>57.25</ele><time>2026-03-30T09:10:14Z</time></trkpt><trkpt lat="45.30081619961691" lon="9.628331812667644"><ele>57.0</ele><time>2026-03-30T09:10:15Z</time></trkpt><trkpt lat="45.30085118656043" lon="9.628508945593493"><ele>57.0</ele><time>2026-03-30T09:10:16Z</time></trkpt><trkpt lat="45.30088742250079" lon="9.628687520902657"><ele>57.0</ele><time>2026-03-30T09:10:17Z</time></trkpt><trkpt lat="45.300920638433965" lon="9.628860729047437"><ele>57.0</ele><time>2026-03-30T09:10:18Z</time></trkpt><trkpt lat="45.30094786225023" lon="9.629019218694824"><ele>57.0</ele><time>2026-03-30T09:10:19Z</time></trkpt><trkpt lat="45.3009744422087" lon="9.629172749185281"><ele>57.0</ele><time>2026-03-30T09:10:20Z</time></trkpt><trkpt lat="45.301000398436464" lon="9.629316308570703"><ele>57.0</ele><time>2026-03-30T09:10:21Z</time></trkpt><trkpt lat="45.301023563327384" lon="9.629445435013798"><ele>57.0</ele><time>2026-03-30T09:10:22Z</time></trkpt><trkpt lat="45.30104044368717" lon="9.629551493959756"><ele>57.0</ele><time>2026-03-30T09:10:23Z</time></trkpt><trkpt lat="45.30104361367546" lon="9.629642310595338"><ele>57.0</ele><time>2026-03-30T09:10:24Z</time></trkpt><trkpt lat="45.30101314202029" lon="9.62976636404027"><ele>57.0</ele><time>2026-03-30T09:10:26Z</time></trkpt><trkpt lat="45.30097580445153" lon="9.629876322954726"><ele>56.8</ele><time>2026-03-30T09:10:27.999Z</time></trkpt><trkpt lat="45.300926704987724" lon="9.630002418100142"><ele>56.6</ele><time>2026-03-30T09:10:29.999Z</time></trkpt><trkpt lat="45.300914759312974" lon="9.630136432009706"><ele>56.39999999999999</ele><time>2026-03-30T09:10:32.999Z</time></trkpt><trkpt lat="45.30097241683009" lon="9.630207400599154"><ele>56.199999999999996</ele><time>2026-03-30T09:10:33.999Z</time></trkpt><trkpt lat="45.30104222872506" lon="9.630264086908479"><ele>56.0</ele><time>2026-03-30T09:10:34.999Z</time></trkpt><trkpt lat="45.301125115138426" lon="9.630353023630752"><ele>56.0</ele><time>2026-03-30T09:10:35.999Z</time></trkpt><trkpt lat="45.30120713943594" lon="9.630446509125616"><ele>56.0</ele><time>2026-03-30T09:10:36.999Z</time></trkpt><trkpt lat="45.30132910825048" lon="9.630574564167723"><ele>56.0</ele><time>2026-03-30T09:10:37.999Z</time></trkpt><trkpt lat="45.30145388786026" lon="9.63069958119583"><ele>56.0</ele><time>2026-03-30T09:10:38.999Z</time></trkpt><trkpt lat="45.301596039599914" lon="9.630839944253683"><ele>56.0</ele><time>2026-03-30T09:10:39.999Z</time></trkpt><trkpt lat="45.30174753822139" lon="9.630990359111893"><ele>56.0</ele><time>2026-03-30T09:10:40.999Z</time></trkpt><trkpt lat="45.30191731296364" lon="9.631152528696564"><ele>56.0</ele><time>2026-03-30T09:10:41.999Z</time></trkpt><trkpt lat="45.30208788002416" lon="9.6313217975366"><ele>57.0</ele><time>2026-03-30T09:10:42.999Z</time></trkpt><trkpt lat="45.302264757451404" lon="9.63149562931088"><ele>58.0</ele><time>2026-03-30T09:10:43.999Z</time></trkpt><trkpt lat="45.302450557982745" lon="9.631680602557843"><ele>59.0</ele><time>2026-03-30T09:10:44.999Z</time></trkpt><trkpt lat="45.30262929114245" lon="9.63186263400178"><ele>58.5</ele><time>2026-03-30T09:10:45.999Z</time></trkpt><trkpt lat="45.30282251591495" lon="9.63205841562472"><ele>58.0</ele><time>2026-03-30T09:10:47Z</time></trkpt><trkpt lat="45.30300854365692" lon="9.632243690123637"><ele>58.666666666666664</ele><time>2026-03-30T09:10:48Z</time></trkpt><trkpt lat="45.30318630326979" lon="9.63241661092891"><ele>59.33333333333333</ele><time>2026-03-30T09:10:49Z</time></trkpt><trkpt lat="45.3033574573865" lon="9.632586992050665"><ele>60.0</ele><time>2026-03-30T09:10:50Z</time></trkpt><trkpt lat="45.30352509715896" lon="9.632750073645703"><ele>59.66666666666667</ele><time>2026-03-30T09:10:51Z</time></trkpt><trkpt lat="45.30369786035572" lon="9.632917955358602"><ele>59.333333333333336</ele><time>2026-03-30T09:10:52Z</time></trkpt><trkpt lat="45.30388180102705" lon="9.633098114120823"><ele>59.0</ele><time>2026-03-30T09:10:53Z</time></trkpt><trkpt lat="45.30407357215455" lon="9.63328816064195"><ele>59.0</ele><time>2026-03-30T09:10:54Z</time></trkpt><trkpt lat="45.30427346149649" lon="9.6334865402192"><ele>59.0</ele><time>2026-03-30T09:10:55Z</time></trkpt><trkpt lat="45.304485536604545" lon="9.633694783724463"><ele>58.5</ele><time>2026-03-30T09:10:56Z</time></trkpt><trkpt lat="45.30470451637537" lon="9.633911309142363"><ele>58.0</ele><time>2026-03-30T09:10:57Z</time></trkpt><trkpt lat="45.30491436468579" lon="9.634122385369942"><ele>57.5</ele><time>2026-03-30T09:10:58Z</time></trkpt><trkpt lat="45.305138525452165" lon="9.63434657665387"><ele>57.0</ele><time>2026-03-30T09:10:59Z</time></trkpt><trkpt lat="45.30536831380641" lon="9.634574839904008"><ele>57.5</ele><time>2026-03-30T09:11:00Z</time></trkpt><trkpt lat="45.30560201377805" lon="9.634805724392464"><ele>58.0</ele><time>2026-03-30T09:11:01Z</time></trkpt><trkpt lat="45.305829304321385" lon="9.635030685348733"><ele>58.0</ele><time>2026-03-30T09:11:02Z</time></trkpt><trkpt lat="45.306048300082495" lon="9.635249673763337"><ele>58.0</ele><time>2026-03-30T09:11:03Z</time></trkpt><trkpt lat="45.306258311189104" lon="9.635457405894394"><ele>58.5</ele><time>2026-03-30T09:11:04Z</time></trkpt><trkpt lat="45.3064608778548" lon="9.635655938244955"><ele>59.0</ele><time>2026-03-30T09:11:05Z</time></trkpt><trkpt lat="45.30665966185071" lon="9.635851472558878"><ele>59.0</ele><time>2026-03-30T09:11:06Z</time></trkpt><trkpt lat="45.306858315457575" lon="9.636047159896128"><ele>59.0</ele><time>2026-03-30T09:11:07Z</time></trkpt><trkpt lat="45.307059015347455" lon="9.636247727818905"><ele>59.0</ele><time>2026-03-30T09:11:08Z</time></trkpt><trkpt lat="45.30727410283344" lon="9.636457757072781"><ele>59.0</ele><time>2026-03-30T09:11:09Z</time></trkpt><trkpt lat="45.30749414281669" lon="9.636675423947185"><ele>59.0</ele><time>2026-03-30T09:11:10Z</time></trkpt><trkpt lat="45.30771478243573" lon="9.6368977685461"><ele>59.0</ele><time>2026-03-30T09:11:11Z</time></trkpt><trkpt lat="45.30793337361728" lon="9.637117136940377"><ele>60.0</ele><time>2026-03-30T09:11:12Z</time></trkpt><trkpt lat="45.308150244793055" lon="9.637328743407272"><ele>61.0</ele><time>2026-03-30T09:11:13Z</time></trkpt><trkpt lat="45.308352859557" lon="9.637530281496526"><ele>61.0</ele><time>2026-03-30T09:11:14Z</time></trkpt><trkpt lat="45.30854443664079" lon="9.637722267582339"><ele>61.0</ele><time>2026-03-30T09:11:15Z</time></trkpt><trkpt lat="45.30872794578483" lon="9.637899045410263"><ele>62.0</ele><time>2026-03-30T09:11:16Z</time></trkpt><trkpt lat="45.30889717898761" lon="9.638060228874119"><ele>63.0</ele><time>2026-03-30T09:11:17Z</time></trkpt><trkpt lat="45.309061109260675" lon="9.638211073684785"><ele>64.0</ele><time>2026-03-30T09:11:18Z</time></trkpt><trkpt lat="45.3093728700191" lon="9.638518894007236"><ele>65.33333333333333</ele><time>2026-03-30T09:11:20Z</time></trkpt><trkpt lat="45.30952643487113" lon="9.6386817276361"><ele>66.66666666666667</ele><time>2026-03-30T09:11:21Z</time></trkpt><trkpt lat="45.30968463781771" lon="9.638841266742267"><ele>68.0</ele><time>2026-03-30T09:11:22Z</time></trkpt><trkpt lat="45.30984851489437" lon="9.639001748033241"><ele>68.0</ele><time>2026-03-30T09:11:23Z</time></trkpt><trkpt lat="45.31000896054662" lon="9.639160293717671"><ele>68.0</ele><time>2026-03-30T09:11:24Z</time></trkpt><trkpt lat="45.31015740131454" lon="9.639309676916655"><ele>68.0</ele><time>2026-03-30T09:11:25Z</time></trkpt><trkpt lat="45.31030359222617" lon="9.639459138191988"><ele>68.0</ele><time>2026-03-30T09:11:26Z</time></trkpt><trkpt lat="45.31045449593695" lon="9.639608807704615"><ele>68.0</ele><time>2026-03-30T09:11:27Z</time></trkpt><trkpt lat="45.310607065517374" lon="9.639759811402387"><ele>68.0</ele><time>2026-03-30T09:11:28Z</time></trkpt><trkpt lat="45.31075990354817" lon="9.639912806454195"><ele>68.0</ele><time>2026-03-30T09:11:29Z</time></trkpt><trkpt lat="45.31091775283827" lon="9.640071993478767"><ele>68.0</ele><time>2026-03-30T09:11:30Z</time></trkpt><trkpt lat="45.311081760149534" lon="9.640236515098728"><ele>68.0</ele><time>2026-03-30T09:11:31Z</time></trkpt><trkpt lat="45.311261516674094" lon="9.640407996172472"><ele>69.0</ele><time>2026-03-30T09:11:32Z</time></trkpt><trkpt lat="45.31144113317209" lon="9.6405838194299"><ele>70.0</ele><time>2026-03-30T09:11:33Z</time></trkpt><trkpt lat="45.31162536173829" lon="9.640767376929253"><ele>71.0</ele><time>2026-03-30T09:11:34Z</time></trkpt><trkpt lat="45.31180101759612" lon="9.640944907840511"><ele>71.0</ele><time>2026-03-30T09:11:35Z</time></trkpt><trkpt lat="45.31196978603238" lon="9.641112374099752"><ele>71.0</ele><time>2026-03-30T09:11:36Z</time></trkpt><trkpt lat="45.312133867557364" lon="9.641272910974285"><ele>71.0</ele><time>2026-03-30T09:11:37Z</time></trkpt><trkpt lat="45.31229146644336" lon="9.641428819282753"><ele>71.33333333333334</ele><time>2026-03-30T09:11:38Z</time></trkpt><trkpt lat="45.31243836747911" lon="9.641573398502837"><ele>71.66666666666667</ele><time>2026-03-30T09:11:39Z</time></trkpt><trkpt lat="45.31257969323656" lon="9.641713395206615"><ele>72.0</ele><time>2026-03-30T09:11:40Z</time></trkpt><trkpt lat="45.31271263256621" lon="9.641849783990153"><ele>72.0</ele><time>2026-03-30T09:11:41Z</time></trkpt><trkpt lat="45.312839837835625" lon="9.641978564191652"><ele>72.0</ele><time>2026-03-30T09:11:42Z</time></trkpt><trkpt lat="45.31295477740494" lon="9.642099301139812"><ele>72.0</ele><time>2026-03-30T09:11:43Z</time></trkpt><trkpt lat="45.31304686852742" lon="9.642215801255889"><ele>72.0</ele><time>2026-03-30T09:11:44Z</time></trkpt><trkpt lat="45.313117499754895" lon="9.642319149369818"><ele>72.0</ele><time>2026-03-30T09:11:45Z</time></trkpt><trkpt lat="45.31317874565358" lon="9.64236488378708"><ele>72.0</ele><time>2026-03-30T09:11:46Z</time></trkpt><trkpt lat="45.31324236436923" lon="9.642428619267614"><ele>72.0</ele><time>2026-03-30T09:11:48Z</time></trkpt><trkpt lat="45.31319256780352" lon="9.642745642429288"><ele>72.0</ele><time>2026-03-30T09:11:51Z</time></trkpt><trkpt lat="45.313141611750915" lon="9.642884252370317"><ele>71.33333333333333</ele><time>2026-03-30T09:11:52Z</time></trkpt><trkpt lat="45.313066732199744" lon="9.643042650700945"><ele>70.66666666666666</ele><time>2026-03-30T09:11:53Z</time></trkpt><trkpt lat="45.312983726777716" lon="9.643221633621451"><ele>70.0</ele><time>2026-03-30T09:11:54Z</time></trkpt><trkpt lat="45.312886845275806" lon="9.643444198442046"><ele>70.0</ele><time>2026-03-30T09:11:55Z</time></trkpt><trkpt lat="45.31278048418062" lon="9.643682456073831"><ele>70.0</ele><time>2026-03-30T09:11:56Z</time></trkpt><trkpt lat="45.31266460167938" lon="9.643943511976316"><ele>70.0</ele><time>2026-03-30T09:11:57Z</time></trkpt><trkpt lat="45.31254563238515" lon="9.644212916746259"><ele>70.33333333333333</ele><time>2026-03-30T09:11:58Z</time></trkpt><trkpt lat="45.31243612373162" lon="9.644463149934829"><ele>70.66666666666667</ele><time>2026-03-30T09:11:59Z</time></trkpt><trkpt lat="45.31233337493403" lon="9.644688799423827"><ele>71.0</ele><time>2026-03-30T09:12:00Z</time></trkpt><trkpt lat="45.31223586853876" lon="9.644902508337449"><ele>71.0</ele><time>2026-03-30T09:12:01Z</time></trkpt><trkpt lat="45.31214572431186" lon="9.64510371502574"><ele>71.0</ele><time>2026-03-30T09:12:02Z</time></trkpt><trkpt lat="45.312069803293596" lon="9.6452873009507"><ele>71.0</ele><time>2026-03-30T09:12:03Z</time></trkpt><trkpt lat="45.31199477791423" lon="9.645461153332379"><ele>71.0</ele><time>2026-03-30T09:12:04Z</time></trkpt><trkpt lat="45.311922612181085" lon="9.645623577466022"><ele>71.0</ele><time>2026-03-30T09:12:05Z</time></trkpt><trkpt lat="45.31185734478897" lon="9.645766162906622"><ele>71.0</ele><time>2026-03-30T09:12:06Z</time></trkpt><trkpt lat="45.31180613000353" lon="9.645876633187784"><ele>71.0</ele><time>2026-03-30T09:12:07Z</time></trkpt><trkpt lat="45.311771585296185" lon="9.64596270077362"><ele>71.0</ele><time>2026-03-30T09:12:08Z</time></trkpt><trkpt lat="45.311793168789734" lon="9.646073006918298"><ele>71.0</ele><time>2026-03-30T09:12:10Z</time></trkpt><trkpt lat="45.31192435258131" lon="9.64611815261052"><ele>71.0</ele><time>2026-03-30T09:12:12Z</time></trkpt><trkpt lat="45.31202421241798" lon="9.646141612691265"><ele>71.0</ele><time>2026-03-30T09:12:13Z</time></trkpt><trkpt lat="45.31215425116528" lon="9.646205689040878"><ele>71.0</ele><time>2026-03-30T09:12:14Z</time></trkpt><trkpt lat="45.312284717103346" lon="9.646310756190514"><ele>71.33333333333334</ele><time>2026-03-30T09:12:15Z</time></trkpt><trkpt lat="45.312430273212165" lon="9.646461458122392"><ele>71.66666666666667</ele><time>2026-03-30T09:12:16Z</time></trkpt><trkpt lat="45.312572715670704" lon="9.646630379625185"><ele>72.0</ele><time>2026-03-30T09:12:17Z</time></trkpt><trkpt lat="45.312741906094686" lon="9.646826312415241"><ele>71.5</ele><time>2026-03-30T09:12:18Z</time></trkpt><trkpt lat="45.31291716818979" lon="9.64702838059438"><ele>71.0</ele><time>2026-03-30T09:12:19Z</time></trkpt><trkpt lat="45.313086619457174" lon="9.64724272567518"><ele>71.0</ele><time>2026-03-30T09:12:20Z</time></trkpt><trkpt lat="45.313237393599984" lon="9.647447800726173"><ele>71.0</ele><time>2026-03-30T09:12:21Z</time></trkpt><trkpt lat="45.31337733886056" lon="9.647645395378982"><ele>71.0</ele><time>2026-03-30T09:12:22Z</time></trkpt><trkpt lat="45.31350628160547" lon="9.647832046112125"><ele>70.66666666666667</ele><time>2026-03-30T09:12:23Z</time></trkpt><trkpt lat="45.31362979376132" lon="9.648010517823325"><ele>70.33333333333333</ele><time>2026-03-30T09:12:24Z</time></trkpt><trkpt lat="45.31375013267675" lon="9.648178532294098"><ele>70.0</ele><time>2026-03-30T09:12:25Z</time></trkpt><trkpt lat="45.313874751825466" lon="9.648340981539816"><ele>70.0</ele><time>2026-03-30T09:12:25.999Z</time></trkpt><trkpt lat="45.314007630299116" lon="9.648486868964117"><ele>70.0</ele><time>2026-03-30T09:12:26.999Z</time></trkpt><trkpt lat="45.31415264144717" lon="9.648602662405692"><ele>70.0</ele><time>2026-03-30T09:12:27.999Z</time></trkpt><trkpt lat="45.31430269956271" lon="9.648717820474188"><ele>70.0</ele><time>2026-03-30T09:12:28.999Z</time></trkpt><trkpt lat="45.31443621233325" lon="9.64884853590704"><ele>70.0</ele><time>2026-03-30T09:12:29.999Z</time></trkpt><trkpt lat="45.31456620255661" lon="9.648972722253054"><ele>70.0</ele><time>2026-03-30T09:12:30.999Z</time></trkpt><trkpt lat="45.31469489282739" lon="9.649081807302498"><ele>70.25</ele><time>2026-03-30T09:12:31.999Z</time></trkpt><trkpt lat="45.314819415078695" lon="9.649187943228924"><ele>70.5</ele><time>2026-03-30T09:12:32.999Z</time></trkpt><trkpt lat="45.314933643300726" lon="9.649291355439981"><ele>70.75</ele><time>2026-03-30T09:12:33.999Z</time></trkpt><trkpt lat="45.31503161367839" lon="9.649393450967604"><ele>71.0</ele><time>2026-03-30T09:12:34.999Z</time></trkpt><trkpt lat="45.31511834664192" lon="9.649488364644649"><ele>71.0</ele><time>2026-03-30T09:12:35.999Z</time></trkpt><trkpt lat="45.315203937266205" lon="9.649584016205802"><ele>71.0</ele><time>2026-03-30T09:12:36.999Z</time></trkpt><trkpt lat="45.31528873896088" lon="9.649681395830942"><ele>71.0</ele><time>2026-03-30T09:12:37.999Z</time></trkpt><trkpt lat="45.31536708838501" lon="9.649776652951799"><ele>71.0</ele><time>2026-03-30T09:12:38.999Z</time></trkpt><trkpt lat="45.315441925732976" lon="9.649872388257876"><ele>71.0</ele><time>2026-03-30T09:12:39.999Z</time></trkpt><trkpt lat="45.31551750167664" lon="9.649969450608689"><ele>71.25</ele><time>2026-03-30T09:12:40.999Z</time></trkpt><trkpt lat="45.3155964048667" lon="9.650067556238728"><ele>71.5</ele><time>2026-03-30T09:12:41.999Z</time></trkpt><trkpt lat="45.31567798685392" lon="9.650176566986296"><ele>71.75</ele><time>2026-03-30T09:12:42.999Z</time></trkpt><trkpt lat="45.31576222809727" lon="9.65028974713746"><ele>72.0</ele><time>2026-03-30T09:12:43.999Z</time></trkpt><trkpt lat="45.31585242864712" lon="9.650407614231051"><ele>72.0</ele><time>2026-03-30T09:12:44.999Z</time></trkpt><trkpt lat="45.315946901086654" lon="9.650527462877587"><ele>72.0</ele><time>2026-03-30T09:12:45.999Z</time></trkpt><trkpt lat="45.31604314276078" lon="9.650643641173811"><ele>72.0</ele><time>2026-03-30T09:12:46.999Z</time></trkpt><trkpt lat="45.31613768930829" lon="9.650740993449707"><ele>72.0</ele><time>2026-03-30T09:12:47.999Z</time></trkpt><trkpt lat="45.31624354217238" lon="9.650807597793886"><ele>72.0</ele><time>2026-03-30T09:12:48.999Z</time></trkpt><trkpt lat="45.3163575617893" lon="9.650831336411947"><ele>72.0</ele><time>2026-03-30T09:12:49.999Z</time></trkpt><trkpt lat="45.31647134714806" lon="9.65081124716898"><ele>72.0</ele><time>2026-03-30T09:12:50.999Z</time></trkpt><trkpt lat="45.316581198644315" lon="9.65078280759497"><ele>72.0</ele><time>2026-03-30T09:12:51.999Z</time></trkpt><trkpt lat="45.316690079770225" lon="9.650753515329423"><ele>72.0</ele><time>2026-03-30T09:12:53Z</time></trkpt><trkpt lat="45.3167969268316" lon="9.650729153390682"><ele>72.0</ele><time>2026-03-30T09:12:54Z</time></trkpt><trkpt lat="45.3169048405103" lon="9.650708048957426"><ele>72.0</ele><time>2026-03-30T09:12:55Z</time></trkpt><trkpt lat="45.317016466566514" lon="9.650686499273908"><ele>72.0</ele><time>2026-03-30T09:12:56Z</time></trkpt><trkpt lat="45.317132593087834" lon="9.650663881712008"><ele>72.0</ele><time>2026-03-30T09:12:57Z</time></trkpt><trkpt lat="45.31724964078602" lon="9.65063798570688"><ele>72.0</ele><time>2026-03-30T09:12:58Z</time></trkpt><trkpt lat="45.31736878139005" lon="9.650607396320723"><ele>72.0</ele><time>2026-03-30T09:12:59Z</time></trkpt><trkpt lat="45.31749349583533" lon="9.650599167064085"><ele>72.0</ele><time>2026-03-30T09:13:00Z</time></trkpt><trkpt lat="45.317617105581505" lon="9.65057290609144"><ele>72.0</ele><time>2026-03-30T09:13:01Z</time></trkpt><trkpt lat="45.31774059468615" lon="9.650525332435041"><ele>72.0</ele><time>2026-03-30T09:13:02Z</time></trkpt><trkpt lat="45.31786761238641" lon="9.650501266092295"><ele>72.0</ele><time>2026-03-30T09:13:03Z</time></trkpt><trkpt lat="45.31799656836319" lon="9.650484610559891"><ele>72.0</ele><time>2026-03-30T09:13:04Z</time></trkpt><trkpt lat="45.31812562325993" lon="9.650466625696552"><ele>72.0</ele><time>2026-03-30T09:13:05Z</time></trkpt><trkpt lat="45.318256412063725" lon="9.650448407611965"><ele>72.0</ele><time>2026-03-30T09:13:06Z</time></trkpt><trkpt lat="45.318386061557774" lon="9.65042620459122"><ele>72.0</ele><time>2026-03-30T09:13:07Z</time></trkpt><trkpt lat="45.31850825526389" lon="9.650400622378928"><ele>72.0</ele><time>2026-03-30T09:13:08Z</time></trkpt><trkpt lat="45.31861431539215" lon="9.650377678321007"><ele>72.0</ele><time>2026-03-30T09:13:09Z</time></trkpt><trkpt lat="45.31871561552856" lon="9.650355492370958"><ele>72.0</ele><time>2026-03-30T09:13:10Z</time></trkpt><trkpt lat="45.31881194966061" lon="9.650333863462826"><ele>72.0</ele><time>2026-03-30T09:13:11Z</time></trkpt><trkpt lat="45.31889607320697" lon="9.65031803292516"><ele>72.0</ele><time>2026-03-30T09:13:12Z</time></trkpt><trkpt lat="45.31896970962753" lon="9.65030315685738"><ele>72.0</ele><time>2026-03-30T09:13:13Z</time></trkpt><trkpt lat="45.319034276853564" lon="9.650289390697825"><ele>72.0</ele><time>2026-03-30T09:13:14Z</time></trkpt><trkpt lat="45.319122956661445" lon="9.650291054753714"><ele>72.0</ele><time>2026-03-30T09:13:16Z</time></trkpt><trkpt lat="45.319192183095275" lon="9.650304697198909"><ele>72.0</ele><time>2026-03-30T09:13:18Z</time></trkpt><trkpt lat="45.31919329941091" lon="9.650416322615246"><ele>72.0</ele><time>2026-03-30T09:13:19Z</time></trkpt><trkpt lat="45.31921667456276" lon="9.650530057118544"><ele>72.0</ele><time>2026-03-30T09:13:21Z</time></trkpt><trkpt lat="45.31924936030799" lon="9.650616011816624"><ele>72.0</ele><time>2026-03-30T09:13:22Z</time></trkpt><trkpt lat="45.31926719618961" lon="9.650713490066238"><ele>72.0</ele><time>2026-03-30T09:13:23Z</time></trkpt><trkpt lat="45.31928606682709" lon="9.650815365886467"><ele>72.0</ele><time>2026-03-30T09:13:24Z</time></trkpt><trkpt lat="45.31930578606181" lon="9.65092355434457"><ele>72.0</ele><time>2026-03-30T09:13:25Z</time></trkpt><trkpt lat="45.31932754839231" lon="9.65103659345109"><ele>72.0</ele><time>2026-03-30T09:13:26Z</time></trkpt><trkpt lat="45.3193489342591" lon="9.65115646558194"><ele>72.0</ele><time>2026-03-30T09:13:27Z</time></trkpt><trkpt lat="45.319371685916046" lon="9.651279570403137"><ele>72.0</ele><time>2026-03-30T09:13:28Z</time></trkpt><trkpt lat="45.319397241482214" lon="9.651407039409325"><ele>72.0</ele><time>2026-03-30T09:13:29Z</time></trkpt><trkpt lat="45.31942939888391" lon="9.651560083348825"><ele>72.25</ele><time>2026-03-30T09:13:30Z</time></trkpt><trkpt lat="45.319462423767824" lon="9.651738907472433"><ele>72.5</ele><time>2026-03-30T09:13:31Z</time></trkpt><trkpt lat="45.31949019021358" lon="9.651913445523103"><ele>72.75</ele><time>2026-03-30T09:13:32Z</time></trkpt><trkpt lat="45.31951337518254" lon="9.652087597977037"><ele>73.0</ele><time>2026-03-30T09:13:33Z</time></trkpt><trkpt lat="45.31953367256795" lon="9.652294004554394"><ele>73.0</ele><time>2026-03-30T09:13:34Z</time></trkpt><trkpt lat="45.31955889408509" lon="9.652514644145127"><ele>73.0</ele><time>2026-03-30T09:13:35Z</time></trkpt><trkpt lat="45.31957995539424" lon="9.652708613808764"><ele>73.0</ele><time>2026-03-30T09:13:36Z</time></trkpt><trkpt lat="45.31960325073345" lon="9.652888807873817"><ele>73.0</ele><time>2026-03-30T09:13:37Z</time></trkpt><trkpt lat="45.31962955912452" lon="9.65305287871621"><ele>73.0</ele><time>2026-03-30T09:13:38Z</time></trkpt><trkpt lat="45.31966424612567" lon="9.653203087634482"><ele>73.0</ele><time>2026-03-30T09:13:39Z</time></trkpt><trkpt lat="45.319711880001286" lon="9.653339141703205"><ele>73.0</ele><time>2026-03-30T09:13:40Z</time></trkpt><trkpt lat="45.31976116569552" lon="9.653462044915122"><ele>73.0</ele><time>2026-03-30T09:13:41Z</time></trkpt><trkpt lat="45.319799128135855" lon="9.653577023628637"><ele>73.0</ele><time>2026-03-30T09:13:42Z</time></trkpt><trkpt lat="45.31982282316386" lon="9.653695648607835"><ele>73.0</ele><time>2026-03-30T09:13:43Z</time></trkpt><trkpt lat="45.319844835983254" lon="9.653823058467129"><ele>73.0</ele><time>2026-03-30T09:13:44Z</time></trkpt><trkpt lat="45.31986691373488" lon="9.653960479007226"><ele>73.0</ele><time>2026-03-30T09:13:45Z</time></trkpt><trkpt lat="45.31988965072136" lon="9.65410610871604"><ele>73.0</ele><time>2026-03-30T09:13:46Z</time></trkpt><trkpt lat="45.31990959637251" lon="9.654262553927063"><ele>73.0</ele><time>2026-03-30T09:13:47Z</time></trkpt><trkpt lat="45.31992987481843" lon="9.654443448339366"><ele>73.0</ele><time>2026-03-30T09:13:48Z</time></trkpt><trkpt lat="45.3199519414366" lon="9.654652671520054"><ele>73.0</ele><time>2026-03-30T09:13:49Z</time></trkpt><trkpt lat="45.319976920184075" lon="9.654872918865042"><ele>73.0</ele><time>2026-03-30T09:13:50Z</time></trkpt><trkpt lat="45.320003740025044" lon="9.655094145492178"><ele>72.33333333333333</ele><time>2026-03-30T09:13:51Z</time></trkpt><trkpt lat="45.320032535612484" lon="9.65534234074135"><ele>71.66666666666667</ele><time>2026-03-30T09:13:52Z</time></trkpt><trkpt lat="45.320065518550194" lon="9.655617479274788"><ele>71.0</ele><time>2026-03-30T09:13:53Z</time></trkpt><trkpt lat="45.32010137555659" lon="9.655919098311958"><ele>71.33333333333334</ele><time>2026-03-30T09:13:54Z</time></trkpt><trkpt lat="45.320136192382556" lon="9.65620786606176"><ele>71.66666666666667</ele><time>2026-03-30T09:13:55Z</time></trkpt><trkpt lat="45.320172952345985" lon="9.656472325579802"><ele>72.0</ele><time>2026-03-30T09:13:56Z</time></trkpt><trkpt lat="45.32021108694488" lon="9.656718632490255"><ele>72.0</ele><time>2026-03-30T09:13:57Z</time></trkpt><trkpt lat="45.32024274314135" lon="9.656949583624748"><ele>72.0</ele><time>2026-03-30T09:13:58Z</time></trkpt><trkpt lat="45.32027093763918" lon="9.657163160716678"><ele>72.0</ele><time>2026-03-30T09:13:59Z</time></trkpt><trkpt lat="45.32029674333252" lon="9.657372633593415"><ele>72.0</ele><time>2026-03-30T09:14:00Z</time></trkpt><trkpt lat="45.320322845166864" lon="9.657590396406277"><ele>72.0</ele><time>2026-03-30T09:14:01Z</time></trkpt><trkpt lat="45.32034460302345" lon="9.657807482260809"><ele>72.0</ele><time>2026-03-30T09:14:02Z</time></trkpt><trkpt lat="45.32036185078503" lon="9.65802884373275"><ele>72.0</ele><time>2026-03-30T09:14:03Z</time></trkpt><trkpt lat="45.3203782912058" lon="9.658268036276755"><ele>72.0</ele><time>2026-03-30T09:14:04Z</time></trkpt><trkpt lat="45.3203919335747" lon="9.658516919877218"><ele>72.0</ele><time>2026-03-30T09:14:05Z</time></trkpt><trkpt lat="45.32039772118224" lon="9.658744904774933"><ele>72.0</ele><time>2026-03-30T09:14:06Z</time></trkpt><trkpt lat="45.320401650736635" lon="9.65896749001323"><ele>72.0</ele><time>2026-03-30T09:14:07Z</time></trkpt><trkpt lat="45.320412805840355" lon="9.659186540363752"><ele>72.0</ele><time>2026-03-30T09:14:08Z</time></trkpt><trkpt lat="45.3204335135433" lon="9.659404029197244"><ele>72.0</ele><time>2026-03-30T09:14:09Z</time></trkpt><trkpt lat="45.32045998165309" lon="9.659612317729097"><ele>72.0</ele><time>2026-03-30T09:14:10Z</time></trkpt><trkpt lat="45.320487566612236" lon="9.659809519480145"><ele>72.0</ele><time>2026-03-30T09:14:11Z</time></trkpt><trkpt lat="45.32051441518618" lon="9.659992152867622"><ele>72.0</ele><time>2026-03-30T09:14:12Z</time></trkpt><trkpt lat="45.32054255893154" lon="9.660135837112081"><ele>71.83333333333333</ele><time>2026-03-30T09:14:12.999Z</time></trkpt><trkpt lat="45.32056637969363" lon="9.660258008661984"><ele>71.66666666666667</ele><time>2026-03-30T09:14:13.999Z</time></trkpt><trkpt lat="45.32059027865562" lon="9.660396885403225"><ele>71.5</ele><time>2026-03-30T09:14:15.999Z</time></trkpt><trkpt lat="45.32061154474094" lon="9.66053983259542"><ele>71.33333333333334</ele><time>2026-03-30T09:14:17.999Z</time></trkpt><trkpt lat="45.32062778013644" lon="9.660630863437449"><ele>71.16666666666667</ele><time>2026-03-30T09:14:18.999Z</time></trkpt><trkpt lat="45.32064841961246" lon="9.660729351652709"><ele>71.0</ele><time>2026-03-30T09:14:19.999Z</time></trkpt><trkpt lat="45.32066411076589" lon="9.660836764493107"><ele>71.0</ele><time>2026-03-30T09:14:20.999Z</time></trkpt><trkpt lat="45.32067996186665" lon="9.66095048534421"><ele>71.0</ele><time>2026-03-30T09:14:21.999Z</time></trkpt><trkpt lat="45.3206960045303" lon="9.66106702819825"><ele>71.0</ele><time>2026-03-30T09:14:22.999Z</time></trkpt><trkpt lat="45.32071618801592" lon="9.661177865209691"><ele>71.0</ele><time>2026-03-30T09:14:23.999Z</time></trkpt><trkpt lat="45.3207341431284" lon="9.661284539863301"><ele>71.0</ele><time>2026-03-30T09:14:24.999Z</time></trkpt><trkpt lat="45.32075348583755" lon="9.661391378562644"><ele>71.0</ele><time>2026-03-30T09:14:25.999Z</time></trkpt><trkpt lat="45.32076935129569" lon="9.661493194120911"><ele>71.39999999999999</ele><time>2026-03-30T09:14:26.999Z</time></trkpt><trkpt lat="45.32079173876107" lon="9.661603430720378"><ele>71.8</ele><time>2026-03-30T09:14:27.999Z</time></trkpt><trkpt lat="45.3208198264053" lon="9.661765297219503"><ele>72.19999999999999</ele><time>2026-03-30T09:14:28.999Z</time></trkpt><trkpt lat="45.32083345992717" lon="9.66190850561168"><ele>72.6</ele><time>2026-03-30T09:14:29.999Z</time></trkpt><trkpt lat="45.320847384727664" lon="9.662031200311931"><ele>73.0</ele><time>2026-03-30T09:14:30.999Z</time></trkpt><trkpt lat="45.320861823564194" lon="9.662147797780413"><ele>73.0</ele><time>2026-03-30T09:14:31.999Z</time></trkpt><trkpt lat="45.32087767259918" lon="9.662255285400024"><ele>73.0</ele><time>2026-03-30T09:14:32.999Z</time></trkpt><trkpt lat="45.320886752852886" lon="9.662362932700333"><ele>73.0</ele><time>2026-03-30T09:14:33.999Z</time></trkpt><trkpt lat="45.3209022481037" lon="9.662461044034035"><ele>73.0</ele><time>2026-03-30T09:14:34.999Z</time></trkpt><trkpt lat="45.32091400186524" lon="9.662596405588792"><ele>73.0</ele><time>2026-03-30T09:14:36.999Z</time></trkpt><trkpt lat="45.32093792380992" lon="9.662700081543589"><ele>73.0</ele><time>2026-03-30T09:14:39.999Z</time></trkpt><trkpt lat="45.32093834382027" lon="9.66280640875008"><ele>73.0</ele><time>2026-03-30T09:14:41.999Z</time></trkpt><trkpt lat="45.32095569860959" lon="9.662917863443731"><ele>73.0</ele><time>2026-03-30T09:14:43.999Z</time></trkpt><trkpt lat="45.3209776620264" lon="9.663051067881721"><ele>73.0</ele><time>2026-03-30T09:14:45.999Z</time></trkpt><trkpt lat="45.32099682196932" lon="9.663190329513466"><ele>73.0</ele><time>2026-03-30T09:14:47.999Z</time></trkpt><trkpt lat="45.32101448991321" lon="9.66331874674361"><ele>73.0</ele><time>2026-03-30T09:14:54.999Z</time></trkpt><trkpt lat="45.32102682698882" lon="9.663408417322778"><ele>73.0</ele><time>2026-03-30T09:14:56.999Z</time></trkpt><trkpt lat="45.32105834674326" lon="9.663566985476383"><ele>72.75</ele><time>2026-03-30T09:14:59Z</time></trkpt><trkpt lat="45.321085919912385" lon="9.663688973359443"><ele>72.5</ele><time>2026-03-30T09:15:00Z</time></trkpt><trkpt lat="45.321123739065314" lon="9.663862518018806"><ele>72.25</ele><time>2026-03-30T09:15:01Z</time></trkpt><trkpt lat="45.321157005979586" lon="9.664049091754949"><ele>72.0</ele><time>2026-03-30T09:15:02Z</time></trkpt><trkpt lat="45.321190547752515" lon="9.664246145325626"><ele>72.0</ele><time>2026-03-30T09:15:03Z</time></trkpt><trkpt lat="45.32122060090835" lon="9.664418246889703"><ele>72.0</ele><time>2026-03-30T09:15:04Z</time></trkpt><trkpt lat="45.32124846830548" lon="9.664578035929805"><ele>72.0</ele><time>2026-03-30T09:15:05Z</time></trkpt><trkpt lat="45.32128368910256" lon="9.664725812914545"><ele>72.0</ele><time>2026-03-30T09:15:06Z</time></trkpt><trkpt lat="45.32131082721028" lon="9.664877797526149"><ele>72.25</ele><time>2026-03-30T09:15:07Z</time></trkpt><trkpt lat="45.321339233579806" lon="9.665035400928408"><ele>72.5</ele><time>2026-03-30T09:15:08Z</time></trkpt><trkpt lat="45.32137346141147" lon="9.665222420448982"><ele>72.75</ele><time>2026-03-30T09:15:09Z</time></trkpt><trkpt lat="45.32140567148917" lon="9.665410683493905"><ele>73.0</ele><time>2026-03-30T09:15:10Z</time></trkpt><trkpt lat="45.321432047018554" lon="9.66557843204131"><ele>73.0</ele><time>2026-03-30T09:15:11Z</time></trkpt><trkpt lat="45.32145446812731" lon="9.665737416906712"><ele>73.0</ele><time>2026-03-30T09:15:12Z</time></trkpt><trkpt lat="45.32147683511244" lon="9.665894370592124"><ele>73.0</ele><time>2026-03-30T09:15:13Z</time></trkpt><trkpt lat="45.321502021732464" lon="9.666058932066118"><ele>73.0</ele><time>2026-03-30T09:15:14Z</time></trkpt><trkpt lat="45.321530972210546" lon="9.666223880183827"><ele>73.0</ele><time>2026-03-30T09:15:15Z</time></trkpt><trkpt lat="45.321563619693364" lon="9.666394280871632"><ele>73.0</ele><time>2026-03-30T09:15:16Z</time></trkpt><trkpt lat="45.32159936473376" lon="9.666576830585894"><ele>73.0</ele><time>2026-03-30T09:15:17Z</time></trkpt><trkpt lat="45.32163387149097" lon="9.666764635595287"><ele>73.0</ele><time>2026-03-30T09:15:18Z</time></trkpt><trkpt lat="45.32166562292506" lon="9.666957285464688"><ele>72.75</ele><time>2026-03-30T09:15:19Z</time></trkpt><trkpt lat="45.32168846057607" lon="9.667147431630127"><ele>72.5</ele><time>2026-03-30T09:15:20Z</time></trkpt><trkpt lat="45.32171065958654" lon="9.667338339929358"><ele>72.25</ele><time>2026-03-30T09:15:21Z</time></trkpt><trkpt lat="45.32171388753588" lon="9.667538577731479"><ele>72.0</ele><time>2026-03-30T09:15:22Z</time></trkpt><trkpt lat="45.321730470735666" lon="9.667754978317813"><ele>72.0</ele><time>2026-03-30T09:15:23Z</time></trkpt><trkpt lat="45.321743416501754" lon="9.667898386517022"><ele>72.0</ele><time>2026-03-30T09:15:24Z</time></trkpt><trkpt lat="45.321756176060624" lon="9.66807267488652"><ele>72.0</ele><time>2026-03-30T09:15:25Z</time></trkpt><trkpt lat="45.32176622700244" lon="9.668230469605717"><ele>72.0</ele><time>2026-03-30T09:15:26Z</time></trkpt><trkpt lat="45.321782739015745" lon="9.668528256990445"><ele>72.16666666666667</ele><time>2026-03-30T09:15:28Z</time></trkpt><trkpt lat="45.32179266245784" lon="9.668663560379725"><ele>72.33333333333333</ele><time>2026-03-30T09:15:29Z</time></trkpt><trkpt lat="45.321801861297615" lon="9.668768199817375"><ele>72.5</ele><time>2026-03-30T09:15:30Z</time></trkpt><trkpt lat="45.32179429825853" lon="9.668857736843108"><ele>72.66666666666666</ele><time>2026-03-30T09:15:32Z</time></trkpt><trkpt lat="45.32169571942125" lon="9.668791791194632"><ele>72.83333333333333</ele><time>2026-03-30T09:15:36Z</time></trkpt><trkpt lat="45.3216292759814" lon="9.668781114670194"><ele>73.0</ele><time>2026-03-30T09:15:39Z</time></trkpt><trkpt lat="45.32155720991754" lon="9.668769255441632"><ele>73.0</ele><time>2026-03-30T09:15:41Z</time></trkpt><trkpt lat="45.32146104873078" lon="9.668772522068744"><ele>73.0</ele><time>2026-03-30T09:15:43Z</time></trkpt><trkpt lat="45.32134497648413" lon="9.668731176706853"><ele>73.0</ele><time>2026-03-30T09:15:45Z</time></trkpt><trkpt lat="45.32123144783818" lon="9.668702412303551"><ele>73.0</ele><time>2026-03-30T09:15:47Z</time></trkpt><trkpt lat="45.32112726417272" lon="9.668653103027536"><ele>73.0</ele><time>2026-03-30T09:15:49Z</time></trkpt><trkpt lat="45.32106280651671" lon="9.66870998860859"><ele>72.8</ele><time>2026-03-30T09:15:50Z</time></trkpt><trkpt lat="45.32092862886771" lon="9.668748697656651"><ele>72.6</ele><time>2026-03-30T09:15:52Z</time></trkpt><trkpt lat="45.32083211313384" lon="9.668754851485213"><ele>72.4</ele><time>2026-03-30T09:15:53Z</time></trkpt><trkpt lat="45.32074572091838" lon="9.668779326384806"><ele>72.2</ele><time>2026-03-30T09:15:54Z</time></trkpt><trkpt lat="45.32066844646874" lon="9.668801218205756"><ele>72.0</ele><time>2026-03-30T09:15:55Z</time></trkpt><trkpt lat="45.32059757624924" lon="9.66882129572406"><ele>72.16666666666667</ele><time>2026-03-30T09:15:56Z</time></trkpt><trkpt lat="45.320518797908115" lon="9.6688436136275"><ele>72.33333333333333</ele><time>2026-03-30T09:15:57Z</time></trkpt><trkpt lat="45.32043329581429" lon="9.668864742810802"><ele>72.5</ele><time>2026-03-30T09:15:58Z</time></trkpt><trkpt lat="45.320342077341834" lon="9.668882127446071"><ele>72.66666666666666</ele><time>2026-03-30T09:15:59Z</time></trkpt><trkpt lat="45.32025539778193" lon="9.668890687700424"><ele>72.83333333333333</ele><time>2026-03-30T09:16:00Z</time></trkpt><trkpt lat="45.32016600199926" lon="9.668894212268803"><ele>73.0</ele><time>2026-03-30T09:16:01Z</time></trkpt><trkpt lat="45.320077251445056" lon="9.668891324098828"><ele>73.0</ele><time>2026-03-30T09:16:02Z</time></trkpt><trkpt lat="45.31997623139928" lon="9.668888649991885"><ele>73.0</ele><time>2026-03-30T09:16:03Z</time></trkpt><trkpt lat="45.31986642356765" lon="9.668885743265868"><ele>73.0</ele><time>2026-03-30T09:16:04Z</time></trkpt><trkpt lat="45.31976290920014" lon="9.668883003131327"><ele>73.0</ele><time>2026-03-30T09:16:05Z</time></trkpt><trkpt lat="45.319666818256216" lon="9.668880459505367"><ele>73.0</ele><time>2026-03-30T09:16:06Z</time></trkpt><trkpt lat="45.31957823828064" lon="9.668878114703523"><ele>73.0</ele><time>2026-03-30T09:16:07Z</time></trkpt><trkpt lat="45.31948814636466" lon="9.668875729876008"><ele>73.0</ele><time>2026-03-30T09:16:08Z</time></trkpt><trkpt lat="45.319407478353305" lon="9.668874119076392"><ele>73.0</ele><time>2026-03-30T09:16:09Z</time></trkpt><trkpt lat="45.319332892298526" lon="9.668872623934961"><ele>73.0</ele><time>2026-03-30T09:16:10Z</time></trkpt><trkpt lat="45.319258523683175" lon="9.668868047382178"><ele>73.0</ele><time>2026-03-30T09:16:11Z</time></trkpt><trkpt lat="45.31919074123048" lon="9.668849584448369"><ele>73.0</ele><time>2026-03-30T09:16:12Z</time></trkpt><trkpt lat="45.319069883361394" lon="9.668778416553023"><ele>73.0</ele><time>2026-03-30T09:16:14Z</time></trkpt><trkpt lat="45.318999001299815" lon="9.668741963309655"><ele>73.0</ele><time>2026-03-30T09:16:15Z</time></trkpt><trkpt lat="45.31893738957308" lon="9.668711864816744"><ele>73.0</ele><time>2026-03-30T09:16:16Z</time></trkpt><trkpt lat="45.318872650118564" lon="9.668682591123273"><ele>73.0</ele><time>2026-03-30T09:16:17Z</time></trkpt><trkpt lat="45.31880211356033" lon="9.668663222584446"><ele>73.0</ele><time>2026-03-30T09:16:18Z</time></trkpt><trkpt lat="45.31871810035999" lon="9.668676105879593"><ele>73.0</ele><time>2026-03-30T09:16:19Z</time></trkpt><trkpt lat="45.31862441700992" lon="9.668682976371723"><ele>72.8</ele><time>2026-03-30T09:16:20Z</time></trkpt><trkpt lat="45.31852106642218" lon="9.66869961254974"><ele>72.6</ele><time>2026-03-30T09:16:21Z</time></trkpt><trkpt lat="45.31840923900765" lon="9.668720300366326"><ele>72.4</ele><time>2026-03-30T09:16:22Z</time></trkpt><trkpt lat="45.318310614172546" lon="9.668710632243638"><ele>72.2</ele><time>2026-03-30T09:16:23Z</time></trkpt><trkpt lat="45.318230960048695" lon="9.668719756618392"><ele>72.0</ele><time>2026-03-30T09:16:24Z</time></trkpt><trkpt lat="45.31815518657843" lon="9.668729476843488"><ele>72.00000000000001</ele><time>2026-03-30T09:16:25Z</time></trkpt><trkpt lat="45.31807912736703" lon="9.668739919400084"><ele>72.0</ele><time>2026-03-30T09:16:26Z</time></trkpt><trkpt lat="45.31800673593567" lon="9.668749858393857"><ele>72.0</ele><time>2026-03-30T09:16:27Z</time></trkpt><trkpt lat="45.31794105429357" lon="9.66876128264879"><ele>72.0</ele><time>2026-03-30T09:16:28Z</time></trkpt><trkpt lat="45.31788021472864" lon="9.668795402253442"><ele>72.0</ele><time>2026-03-30T09:16:29Z</time></trkpt><trkpt lat="45.31780069563114" lon="9.668800752262483"><ele>72.00000000000001</ele><time>2026-03-30T09:16:30Z</time></trkpt><trkpt lat="45.3177131585509" lon="9.668821814418097"><ele>72.0</ele><time>2026-03-30T09:16:31Z</time></trkpt><trkpt lat="45.3176185523365" lon="9.668842339410766"><ele>72.0</ele><time>2026-03-30T09:16:32Z</time></trkpt><trkpt lat="45.31751456564309" lon="9.668840227681791"><ele>72.0</ele><time>2026-03-30T09:16:33Z</time></trkpt><trkpt lat="45.31741470576341" lon="9.668861079275654"><ele>72.0</ele><time>2026-03-30T09:16:34Z</time></trkpt><trkpt lat="45.31731830834119" lon="9.668908924476195"><ele>72.0</ele><time>2026-03-30T09:16:35Z</time></trkpt><trkpt lat="45.31721251107842" lon="9.668941371798645"><ele>72.0</ele><time>2026-03-30T09:16:36Z</time></trkpt><trkpt lat="45.31710407851506" lon="9.668974728174177"><ele>72.0</ele><time>2026-03-30T09:16:37Z</time></trkpt><trkpt lat="45.316996143899026" lon="9.669002421418"><ele>72.0</ele><time>2026-03-30T09:16:38Z</time></trkpt><trkpt lat="45.31688926041103" lon="9.669038844504534"><ele>72.0</ele><time>2026-03-30T09:16:39Z</time></trkpt><trkpt lat="45.31678014850917" lon="9.66907272799168"><ele>72.0</ele><time>2026-03-30T09:16:40Z</time></trkpt><trkpt lat="45.3166645674906" lon="9.669112337550892"><ele>72.0</ele><time>2026-03-30T09:16:41Z</time></trkpt><trkpt lat="45.31653878376313" lon="9.669145674715491"><ele>72.0</ele><time>2026-03-30T09:16:42Z</time></trkpt><trkpt lat="45.31638863247673" lon="9.669171303004582"><ele>72.0</ele><time>2026-03-30T09:16:43Z</time></trkpt><trkpt lat="45.31625156697832" lon="9.669211326400148"><ele>72.0</ele><time>2026-03-30T09:16:44Z</time></trkpt><trkpt lat="45.31612715198923" lon="9.669270343631158"><ele>71.75</ele><time>2026-03-30T09:16:45Z</time></trkpt><trkpt lat="45.315988132960676" lon="9.669309636029755"><ele>71.5</ele><time>2026-03-30T09:16:46Z</time></trkpt><trkpt lat="45.31585446679421" lon="9.669353534088454"><ele>71.25</ele><time>2026-03-30T09:16:47Z</time></trkpt><trkpt lat="45.315725461026794" lon="9.669391659916878"><ele>71.0</ele><time>2026-03-30T09:16:48Z</time></trkpt><trkpt lat="45.31559347401066" lon="9.669430727357708"><ele>71.25</ele><time>2026-03-30T09:16:49Z</time></trkpt><trkpt lat="45.31547167117374" lon="9.669469298983676"><ele>71.5</ele><time>2026-03-30T09:16:50Z</time></trkpt><trkpt lat="45.31535487938777" lon="9.669480449377252"><ele>71.75</ele><time>2026-03-30T09:16:51Z</time></trkpt><trkpt lat="45.31524618685925" lon="9.669512596274673"><ele>72.0</ele><time>2026-03-30T09:16:52Z</time></trkpt><trkpt lat="45.31514387702859" lon="9.669542765245424"><ele>72.0</ele><time>2026-03-30T09:16:52.999Z</time></trkpt><trkpt lat="45.31504161526162" lon="9.669572920315638"><ele>72.0</ele><time>2026-03-30T09:16:53.999Z</time></trkpt><trkpt lat="45.31493512229327" lon="9.669605125990572"><ele>72.0</ele><time>2026-03-30T09:16:54.999Z</time></trkpt><trkpt lat="45.3148258520614" lon="9.669658402421382"><ele>72.0</ele><time>2026-03-30T09:16:55.999Z</time></trkpt><trkpt lat="45.31471603479552" lon="9.669691293223392"><ele>72.0</ele><time>2026-03-30T09:16:56.999Z</time></trkpt><trkpt lat="45.31461654235794" lon="9.669721856394359"><ele>72.0</ele><time>2026-03-30T09:16:57.999Z</time></trkpt><trkpt lat="45.314512531310484" lon="9.669750132929096"><ele>72.0</ele><time>2026-03-30T09:16:58.999Z</time></trkpt><trkpt lat="45.314410641802425" lon="9.669775820047768"><ele>72.0</ele><time>2026-03-30T09:16:59.999Z</time></trkpt><trkpt lat="45.31431274443677" lon="9.669813918106351"><ele>72.0</ele><time>2026-03-30T09:17:00.999Z</time></trkpt><trkpt lat="45.314209344744704" lon="9.669848778937874"><ele>72.0</ele><time>2026-03-30T09:17:01.999Z</time></trkpt><trkpt lat="45.31411157462073" lon="9.669880053949313"><ele>72.0</ele><time>2026-03-30T09:17:02.999Z</time></trkpt><trkpt lat="45.314017997671584" lon="9.669906474415919"><ele>72.0</ele><time>2026-03-30T09:17:03.999Z</time></trkpt><trkpt lat="45.31391790860877" lon="9.669928958724542"><ele>72.0</ele><time>2026-03-30T09:17:05Z</time></trkpt><trkpt lat="45.313822184970554" lon="9.66995829206884"><ele>72.0</ele><time>2026-03-30T09:17:06Z</time></trkpt><trkpt lat="45.313721221216134" lon="9.669995641423194"><ele>72.0</ele><time>2026-03-30T09:17:07Z</time></trkpt><trkpt lat="45.31360634405335" lon="9.670010707563803"><ele>72.25</ele><time>2026-03-30T09:17:08Z</time></trkpt><trkpt lat="45.313491658529614" lon="9.670044004105717"><ele>72.5</ele><time>2026-03-30T09:17:09Z</time></trkpt><trkpt lat="45.31336986757208" lon="9.670100175645882"><ele>72.75</ele><time>2026-03-30T09:17:10Z</time></trkpt><trkpt lat="45.31325183647144" lon="9.67011625675601"><ele>73.0</ele><time>2026-03-30T09:17:11Z</time></trkpt><trkpt lat="45.313145932795464" lon="9.670176688283705"><ele>72.8</ele><time>2026-03-30T09:17:12Z</time></trkpt><trkpt lat="45.31303830583335" lon="9.670215418247434"><ele>72.6</ele><time>2026-03-30T09:17:13Z</time></trkpt><trkpt lat="45.312926198246515" lon="9.670254039761106"><ele>72.4</ele><time>2026-03-30T09:17:14Z</time></trkpt><trkpt lat="45.31282271055618" lon="9.67029318609839"><ele>72.2</ele><time>2026-03-30T09:17:15Z</time></trkpt><trkpt lat="45.312722253412" lon="9.670325475858627"><ele>72.0</ele><time>2026-03-30T09:17:16Z</time></trkpt><trkpt lat="45.31261263622707" lon="9.670363430236762"><ele>72.0</ele><time>2026-03-30T09:17:17Z</time></trkpt><trkpt lat="45.31249354276216" lon="9.670408145111923"><ele>72.0</ele><time>2026-03-30T09:17:18Z</time></trkpt><trkpt lat="45.31236997444177" lon="9.670426960785097"><ele>72.0</ele><time>2026-03-30T09:17:19Z</time></trkpt><trkpt lat="45.31224965521752" lon="9.670468260301424"><ele>72.0</ele><time>2026-03-30T09:17:20Z</time></trkpt><trkpt lat="45.31214044480245" lon="9.67053238082232"><ele>71.5</ele><time>2026-03-30T09:17:21Z</time></trkpt><trkpt lat="45.312027626966675" lon="9.670572661026611"><ele>71.0</ele><time>2026-03-30T09:17:22Z</time></trkpt><trkpt lat="45.311918578648495" lon="9.670619771178949"><ele>70.5</ele><time>2026-03-30T09:17:23Z</time></trkpt><trkpt lat="45.31180962201563" lon="9.670658537327284"><ele>70.0</ele><time>2026-03-30T09:17:24Z</time></trkpt><trkpt lat="45.31169869080129" lon="9.670669970800965"><ele>70.0</ele><time>2026-03-30T09:17:25Z</time></trkpt><trkpt lat="45.3115920779308" lon="9.670702518388637"><ele>70.0</ele><time>2026-03-30T09:17:26Z</time></trkpt><trkpt lat="45.31147309534196" lon="9.670756171515423"><ele>70.0</ele><time>2026-03-30T09:17:27Z</time></trkpt><trkpt lat="45.311333482826434" lon="9.670797540911382"><ele>70.0</ele><time>2026-03-30T09:17:28Z</time></trkpt><trkpt lat="45.31116236868918" lon="9.670845431201073"><ele>70.0</ele><time>2026-03-30T09:17:29Z</time></trkpt><trkpt lat="45.3109963475202" lon="9.670890981273832"><ele>70.0</ele><time>2026-03-30T09:17:30Z</time></trkpt><trkpt lat="45.310844459450024" lon="9.670930089451149"><ele>70.0</ele><time>2026-03-30T09:17:31Z</time></trkpt><trkpt lat="45.310695358452534" lon="9.67098237735058"><ele>70.0</ele><time>2026-03-30T09:17:32Z</time></trkpt><trkpt lat="45.310551190702846" lon="9.671019647936495"><ele>70.0</ele><time>2026-03-30T09:17:33Z</time></trkpt><trkpt lat="45.310419574554736" lon="9.671066198601755"><ele>70.0</ele><time>2026-03-30T09:17:34Z</time></trkpt><trkpt lat="45.31029642261951" lon="9.671096633642453"><ele>70.0</ele><time>2026-03-30T09:17:35Z</time></trkpt><trkpt lat="45.31018587070802" lon="9.671125322152461"><ele>70.0</ele><time>2026-03-30T09:17:36Z</time></trkpt><trkpt lat="45.31006757002086" lon="9.671164339417492"><ele>70.0</ele><time>2026-03-30T09:17:37Z</time></trkpt><trkpt lat="45.30993230077026" lon="9.671212399222927"><ele>70.0</ele><time>2026-03-30T09:17:38Z</time></trkpt><trkpt lat="45.30980552564215" lon="9.671263268229355"><ele>70.0</ele><time>2026-03-30T09:17:39Z</time></trkpt><trkpt lat="45.30969117616564" lon="9.671306316807097"><ele>70.25</ele><time>2026-03-30T09:17:40Z</time></trkpt><trkpt lat="45.309582771844994" lon="9.671336274267015"><ele>70.5</ele><time>2026-03-30T09:17:41Z</time></trkpt><trkpt lat="45.30947008814762" lon="9.671367688357448"><ele>70.75</ele><time>2026-03-30T09:17:42Z</time></trkpt><trkpt lat="45.30934365196548" lon="9.671401914207276"><ele>71.0</ele><time>2026-03-30T09:17:43Z</time></trkpt><trkpt lat="45.30921572117557" lon="9.671435658192653"><ele>71.0</ele><time>2026-03-30T09:17:44Z</time></trkpt><trkpt lat="45.30909444795597" lon="9.671470358386927"><ele>71.0</ele><time>2026-03-30T09:17:45Z</time></trkpt><trkpt lat="45.30898263332677" lon="9.671469786792867"><ele>71.0</ele><time>2026-03-30T09:17:46Z</time></trkpt><trkpt lat="45.30887318515523" lon="9.67148083995129"><ele>71.0</ele><time>2026-03-30T09:17:47Z</time></trkpt><trkpt lat="45.30876413346404" lon="9.671484476888471"><ele>70.8</ele><time>2026-03-30T09:17:48Z</time></trkpt><trkpt lat="45.30866078953977" lon="9.671481818837286"><ele>70.6</ele><time>2026-03-30T09:17:49Z</time></trkpt><trkpt lat="45.308560730706645" lon="9.671476003574828"><ele>70.4</ele><time>2026-03-30T09:17:50Z</time></trkpt><trkpt lat="45.3084642057825" lon="9.671489575104454"><ele>70.2</ele><time>2026-03-30T09:17:51Z</time></trkpt><trkpt lat="45.30838033579088" lon="9.671442122052403"><ele>70.0</ele><time>2026-03-30T09:17:52Z</time></trkpt><trkpt lat="45.30831122054866" lon="9.671396015475466"><ele>70.0</ele><time>2026-03-30T09:17:53Z</time></trkpt><trkpt lat="45.30825008111347" lon="9.671349427822832"><ele>70.0</ele><time>2026-03-30T09:17:54Z</time></trkpt><trkpt lat="45.30818254499301" lon="9.67130860185713"><ele>70.0</ele><time>2026-03-30T09:17:55Z</time></trkpt><trkpt lat="45.30809315899313" lon="9.671298269607801"><ele>70.0</ele><time>2026-03-30T09:17:56Z</time></trkpt><trkpt lat="45.307998685795916" lon="9.671287789470407"><ele>70.0</ele><time>2026-03-30T09:17:57Z</time></trkpt><trkpt lat="45.307888737849474" lon="9.671299944636589"><ele>70.0</ele><time>2026-03-30T09:17:58Z</time></trkpt><trkpt lat="45.30775299634967" lon="9.671300229924414"><ele>70.0</ele><time>2026-03-30T09:17:59Z</time></trkpt><trkpt lat="45.30760184316127" lon="9.671316119968536"><ele>70.0</ele><time>2026-03-30T09:18:00Z</time></trkpt><trkpt lat="45.307461375242454" lon="9.671330886708617"><ele>70.0</ele><time>2026-03-30T09:18:01Z</time></trkpt><trkpt lat="45.307328984671194" lon="9.671344406629968"><ele>70.0</ele><time>2026-03-30T09:18:02Z</time></trkpt><trkpt lat="45.307192802227554" lon="9.671357113508318"><ele>69.5</ele><time>2026-03-30T09:18:03Z</time></trkpt><trkpt lat="45.307052834117485" lon="9.671370173612408"><ele>69.0</ele><time>2026-03-30T09:18:04Z</time></trkpt><trkpt lat="45.30690483974438" lon="9.671384221030038"><ele>68.5</ele><time>2026-03-30T09:18:05Z</time></trkpt><trkpt lat="45.30675485294272" lon="9.67139908949618"><ele>68.0</ele><time>2026-03-30T09:18:06Z</time></trkpt><trkpt lat="45.30660833999434" lon="9.671413613589836"><ele>68.0</ele><time>2026-03-30T09:18:07Z</time></trkpt><trkpt lat="45.30646364285163" lon="9.671427957666113"><ele>68.0</ele><time>2026-03-30T09:18:08Z</time></trkpt><trkpt lat="45.306322323540364" lon="9.671441968946423"><ele>68.0</ele><time>2026-03-30T09:18:09Z</time></trkpt><trkpt lat="45.30618682303764" lon="9.67145540135581"><ele>68.0</ele><time>2026-03-30T09:18:10Z</time></trkpt><trkpt lat="45.30605792823338" lon="9.671485258516235"><ele>68.0</ele><time>2026-03-30T09:18:11Z</time></trkpt><trkpt lat="45.30593571454858" lon="9.671496008877282"><ele>68.0</ele><time>2026-03-30T09:18:12Z</time></trkpt><trkpt lat="45.305817192892206" lon="9.671504821713732"><ele>68.0</ele><time>2026-03-30T09:18:13Z</time></trkpt><trkpt lat="45.305699277847616" lon="9.671514514070223"><ele>68.0</ele><time>2026-03-30T09:18:14Z</time></trkpt><trkpt lat="45.30557935748982" lon="9.671505572569892"><ele>67.8</ele><time>2026-03-30T09:18:15Z</time></trkpt><trkpt lat="45.305464323645126" lon="9.671537223148574"><ele>67.6</ele><time>2026-03-30T09:18:16Z</time></trkpt><trkpt lat="45.305352005384776" lon="9.671543745450258"><ele>67.4</ele><time>2026-03-30T09:18:17Z</time></trkpt><trkpt lat="45.30525499787127" lon="9.671552211134735"><ele>67.2</ele><time>2026-03-30T09:18:18Z</time></trkpt><trkpt lat="45.30517728099035" lon="9.67156916278755"><ele>67.0</ele><time>2026-03-30T09:18:19Z</time></trkpt><trkpt lat="45.305103543648244" lon="9.671556837115673"><ele>67.0</ele><time>2026-03-30T09:18:20Z</time></trkpt><trkpt lat="45.305023002477974" lon="9.671565561835864"><ele>67.0</ele><time>2026-03-30T09:18:21Z</time></trkpt><trkpt lat="45.30492708229446" lon="9.671575952501486"><ele>67.0</ele><time>2026-03-30T09:18:22Z</time></trkpt><trkpt lat="45.30481831813372" lon="9.671587734551105"><ele>67.0</ele><time>2026-03-30T09:18:23Z</time></trkpt><trkpt lat="45.30470740336537" lon="9.671599749574163"><ele>67.0</ele><time>2026-03-30T09:18:24Z</time></trkpt><trkpt lat="45.30459750584827" lon="9.671611654370398"><ele>67.0</ele><time>2026-03-30T09:18:25Z</time></trkpt><trkpt lat="45.30449482323474" lon="9.671630925050268"><ele>67.0</ele><time>2026-03-30T09:18:26Z</time></trkpt><trkpt lat="45.30439678126929" lon="9.671647937319142"><ele>67.0</ele><time>2026-03-30T09:18:27Z</time></trkpt><trkpt lat="45.30429502899125" lon="9.671654952636864"><ele>67.0</ele><time>2026-03-30T09:18:28Z</time></trkpt><trkpt lat="45.304190140499976" lon="9.671668549877015"><ele>67.0</ele><time>2026-03-30T09:18:29Z</time></trkpt><trkpt lat="45.30408854117812" lon="9.671655176573468"><ele>67.0</ele><time>2026-03-30T09:18:30Z</time></trkpt><trkpt lat="45.30398937943564" lon="9.671663574801903"><ele>67.0</ele><time>2026-03-30T09:18:31Z</time></trkpt><trkpt lat="45.30389134436951" lon="9.671671877618461"><ele>67.0</ele><time>2026-03-30T09:18:32Z</time></trkpt><trkpt lat="45.30379814701121" lon="9.671680098898998"><ele>67.0</ele><time>2026-03-30T09:18:33Z</time></trkpt><trkpt lat="45.30371732824717" lon="9.671688184807577"><ele>67.0</ele><time>2026-03-30T09:18:34Z</time></trkpt><trkpt lat="45.303638440325834" lon="9.67169607752694"><ele>67.0</ele><time>2026-03-30T09:18:35Z</time></trkpt><trkpt lat="45.30356103612215" lon="9.671706611752995"><ele>67.0</ele><time>2026-03-30T09:18:36Z</time></trkpt><trkpt lat="45.30348247460169" lon="9.67172477853554"><ele>67.0</ele><time>2026-03-30T09:18:37Z</time></trkpt><trkpt lat="45.30341274724611" lon="9.671754575600902"><ele>67.0</ele><time>2026-03-30T09:18:38Z</time></trkpt><trkpt lat="45.30335320917283" lon="9.671805395872378"><ele>67.0</ele><time>2026-03-30T09:18:39Z</time></trkpt><trkpt lat="45.30328432219318" lon="9.67184630166336"><ele>67.0</ele><time>2026-03-30T09:18:40Z</time></trkpt><trkpt lat="45.303205620542336" lon="9.67186704551328"><ele>67.0</ele><time>2026-03-30T09:18:41Z</time></trkpt><trkpt lat="45.30312964399988" lon="9.671906150420892"><ele>67.0</ele><time>2026-03-30T09:18:42Z</time></trkpt><trkpt lat="45.30305327426566" lon="9.671927567414896"><ele>67.0</ele><time>2026-03-30T09:18:43Z</time></trkpt><trkpt lat="45.302960856759746" lon="9.671938569829358"><ele>67.0</ele><time>2026-03-30T09:18:44Z</time></trkpt><trkpt lat="45.30284922829614" lon="9.671939435703987"><ele>67.0</ele><time>2026-03-30T09:18:45Z</time></trkpt><trkpt lat="45.3027105466127" lon="9.671940440010719"><ele>66.8</ele><time>2026-03-30T09:18:46Z</time></trkpt><trkpt lat="45.302599217552725" lon="9.671938115270606"><ele>66.6</ele><time>2026-03-30T09:18:47Z</time></trkpt><trkpt lat="45.30250284508478" lon="9.671934555333374"><ele>66.39999999999999</ele><time>2026-03-30T09:18:48Z</time></trkpt><trkpt lat="45.302421253914744" lon="9.671930850690371"><ele>66.2</ele><time>2026-03-30T09:18:49Z</time></trkpt><trkpt lat="45.30234168341441" lon="9.671926193824767"><ele>66.0</ele><time>2026-03-30T09:18:50Z</time></trkpt><trkpt lat="45.302257628619195" lon="9.671921274471746"><ele>66.0</ele><time>2026-03-30T09:18:51Z</time></trkpt><trkpt lat="45.30216900257888" lon="9.671916087597603"><ele>66.0</ele><time>2026-03-30T09:18:52Z</time></trkpt><trkpt lat="45.3020801688325" lon="9.671910888587377"><ele>66.0</ele><time>2026-03-30T09:18:53Z</time></trkpt><trkpt lat="45.30199326268499" lon="9.67190445397475"><ele>66.0</ele><time>2026-03-30T09:18:54Z</time></trkpt><trkpt lat="45.30191554237605" lon="9.67189593907549"><ele>66.0</ele><time>2026-03-30T09:18:55Z</time></trkpt><trkpt lat="45.301832281157196" lon="9.671878457447793"><ele>66.0</ele><time>2026-03-30T09:18:56Z</time></trkpt><trkpt lat="45.30175202397878" lon="9.67184615609543"><ele>66.0</ele><time>2026-03-30T09:18:57Z</time></trkpt><trkpt lat="45.301672460173364" lon="9.671810767141919"><ele>66.0</ele><time>2026-03-30T09:18:57.999Z</time></trkpt><trkpt lat="45.30159520159557" lon="9.671770273678069"><ele>66.0</ele><time>2026-03-30T09:18:58.999Z</time></trkpt><trkpt lat="45.301515925757805" lon="9.671727596052133"><ele>66.0</ele><time>2026-03-30T09:18:59.999Z</time></trkpt><trkpt lat="45.301435665706556" lon="9.671685586242385"><ele>66.0</ele><time>2026-03-30T09:19:00.999Z</time></trkpt><trkpt lat="45.30136438014852" lon="9.671650550038775"><ele>66.0</ele><time>2026-03-30T09:19:01.999Z</time></trkpt><trkpt lat="45.301293938316725" lon="9.6716381772817"><ele>65.85714285714286</ele><time>2026-03-30T09:19:02.999Z</time></trkpt><trkpt lat="45.3012228932741" lon="9.671604174209937"><ele>65.71428571428572</ele><time>2026-03-30T09:19:03.999Z</time></trkpt><trkpt lat="45.30113076824497" lon="9.671580282692"><ele>65.57142857142858</ele><time>2026-03-30T09:19:05.999Z</time></trkpt><trkpt lat="45.301063652134616" lon="9.671572953479611"><ele>65.42857142857143</ele><time>2026-03-30T09:19:07.999Z</time></trkpt><trkpt lat="45.30099915075014" lon="9.671564073990847"><ele>65.28571428571429</ele><time>2026-03-30T09:19:08.999Z</time></trkpt><trkpt lat="45.300925085478994" lon="9.671556292710951"><ele>65.14285714285715</ele><time>2026-03-30T09:19:09.999Z</time></trkpt><trkpt lat="45.300861348873404" lon="9.67154280079697"><ele>65.0</ele><time>2026-03-30T09:19:11Z</time></trkpt><trkpt lat="45.3007984034952" lon="9.671512662286355"><ele>65.0</ele><time>2026-03-30T09:19:12Z</time></trkpt><trkpt lat="45.30071181534757" lon="9.671494991760204"><ele>65.0</ele><time>2026-03-30T09:19:13Z</time></trkpt><trkpt lat="45.30062527033683" lon="9.671487725229724"><ele>65.0</ele><time>2026-03-30T09:19:14Z</time></trkpt><trkpt lat="45.300534938959025" lon="9.671457195954705"><ele>65.0</ele><time>2026-03-30T09:19:15Z</time></trkpt><trkpt lat="45.30044519030305" lon="9.671413804244505"><ele>65.0</ele><time>2026-03-30T09:19:16Z</time></trkpt><trkpt lat="45.30036116476097" lon="9.671374986557689"><ele>65.0</ele><time>2026-03-30T09:19:17Z</time></trkpt><trkpt lat="45.30028910490532" lon="9.67133968211253"><ele>65.0</ele><time>2026-03-30T09:19:18Z</time></trkpt><trkpt lat="45.30021323016716" lon="9.671293724105011"><ele>65.0</ele><time>2026-03-30T09:19:19Z</time></trkpt><trkpt lat="45.30014525476942" lon="9.671241609050346"><ele>65.0</ele><time>2026-03-30T09:19:20Z</time></trkpt><trkpt lat="45.30008197418536" lon="9.671189905401091"><ele>65.0</ele><time>2026-03-30T09:19:21Z</time></trkpt><trkpt lat="45.300015531931074" lon="9.671126600213292"><ele>65.0</ele><time>2026-03-30T09:19:22Z</time></trkpt><trkpt lat="45.299952679011206" lon="9.67105922363044"><ele>65.0</ele><time>2026-03-30T09:19:23Z</time></trkpt><trkpt lat="45.29988509370345" lon="9.670980211662378"><ele>65.0</ele><time>2026-03-30T09:19:24Z</time></trkpt><trkpt lat="45.299804375975604" lon="9.670886358972474"><ele>65.0</ele><time>2026-03-30T09:19:25Z</time></trkpt><trkpt lat="45.299710857360445" lon="9.670777632136012"><ele>65.0</ele><time>2026-03-30T09:19:26Z</time></trkpt><trkpt lat="45.29961272520608" lon="9.670649369634509"><ele>65.0</ele><time>2026-03-30T09:19:27Z</time></trkpt><trkpt lat="45.299498402669954" lon="9.670524239740493"><ele>65.75</ele><time>2026-03-30T09:19:28Z</time></trkpt><trkpt lat="45.29939503985423" lon="9.670413208960584"><ele>66.5</ele><time>2026-03-30T09:19:29Z</time></trkpt><trkpt lat="45.29930321827075" lon="9.670313410695847"><ele>67.25</ele><time>2026-03-30T09:19:30Z</time></trkpt><trkpt lat="45.299207054312475" lon="9.670230752564168"><ele>68.0</ele><time>2026-03-30T09:19:31Z</time></trkpt><trkpt lat="45.29911454550433" lon="9.670157461171156"><ele>68.0</ele><time>2026-03-30T09:19:32Z</time></trkpt><trkpt lat="45.29902623480021" lon="9.67008321253206"><ele>68.0</ele><time>2026-03-30T09:19:33Z</time></trkpt><trkpt lat="45.298947696442326" lon="9.670008632893655"><ele>68.0</ele><time>2026-03-30T09:19:34Z</time></trkpt><trkpt lat="45.29886437120535" lon="9.669942049777513"><ele>68.0</ele><time>2026-03-30T09:19:35Z</time></trkpt><trkpt lat="45.29879446457957" lon="9.669867310435377"><ele>68.0</ele><time>2026-03-30T09:19:36Z</time></trkpt><trkpt lat="45.298717016900476" lon="9.6698050314944"><ele>67.66666666666667</ele><time>2026-03-30T09:19:37Z</time></trkpt><trkpt lat="45.2986449565496" lon="9.669742731681183"><ele>67.33333333333334</ele><time>2026-03-30T09:19:38Z</time></trkpt><trkpt lat="45.29856682793917" lon="9.669688561754667"><ele>67.0</ele><time>2026-03-30T09:19:39Z</time></trkpt><trkpt lat="45.29849274057557" lon="9.669632379503517"><ele>66.66666666666667</ele><time>2026-03-30T09:19:40Z</time></trkpt><trkpt lat="45.29841231395838" lon="9.669588747867405"><ele>66.33333333333333</ele><time>2026-03-30T09:19:41Z</time></trkpt><trkpt lat="45.29833052097651" lon="9.66954125367286"><ele>66.0</ele><time>2026-03-30T09:19:42Z</time></trkpt><trkpt lat="45.29825950324844" lon="9.669498102832305"><ele>66.0</ele><time>2026-03-30T09:19:43Z</time></trkpt><trkpt lat="45.29819362158326" lon="9.66945855650319"><ele>66.0</ele><time>2026-03-30T09:19:44Z</time></trkpt><trkpt lat="45.29812568554138" lon="9.669433496455042"><ele>66.0</ele><time>2026-03-30T09:19:45Z</time></trkpt><trkpt lat="45.2980597907233" lon="9.669412960311927"><ele>66.0</ele><time>2026-03-30T09:19:46Z</time></trkpt><trkpt lat="45.29794028130236" lon="9.669376010957075"><ele>66.0</ele><time>2026-03-30T09:19:48Z</time></trkpt><trkpt lat="45.297842573211504" lon="9.669302376829423"><ele>66.0</ele><time>2026-03-30T09:19:50Z</time></trkpt><trkpt lat="45.297773413872946" lon="9.669269539866171"><ele>66.0</ele><time>2026-03-30T09:19:53Z</time></trkpt><trkpt lat="45.29775280039614" lon="9.66911280223935"><ele>66.0</ele><time>2026-03-30T09:19:55Z</time></trkpt><trkpt lat="45.297739502606724" lon="9.66900249221725"><ele>66.0</ele><time>2026-03-30T09:19:56Z</time></trkpt><trkpt lat="45.29772171028698" lon="9.668856312413107"><ele>66.0</ele><time>2026-03-30T09:19:57Z</time></trkpt><trkpt lat="45.29770353588181" lon="9.668673905980613"><ele>66.0</ele><time>2026-03-30T09:19:58Z</time></trkpt><trkpt lat="45.297686220986506" lon="9.66850723606751"><ele>66.0</ele><time>2026-03-30T09:19:59Z</time></trkpt><trkpt lat="45.29766751383577" lon="9.668358147378772"><ele>66.0</ele><time>2026-03-30T09:20:00Z</time></trkpt><trkpt lat="45.29764869010499" lon="9.668234865494783"><ele>66.0</ele><time>2026-03-30T09:20:01Z</time></trkpt><trkpt lat="45.2976284572766" lon="9.668129313287881"><ele>66.0</ele><time>2026-03-30T09:20:02Z</time></trkpt><trkpt lat="45.2976043190279" lon="9.668039300091394"><ele>66.0</ele><time>2026-03-30T09:20:03Z</time></trkpt><trkpt lat="45.29756421081568" lon="9.667923101215656"><ele>66.0</ele><time>2026-03-30T09:20:05Z</time></trkpt><trkpt lat="45.29751593329347" lon="9.6677936063231"><ele>66.25</ele><time>2026-03-30T09:20:08Z</time></trkpt><trkpt lat="45.29747884073794" lon="9.667679421770139"><ele>66.5</ele><time>2026-03-30T09:20:09Z</time></trkpt><trkpt lat="45.29742476673005" lon="9.667550445934225"><ele>66.75</ele><time>2026-03-30T09:20:10Z</time></trkpt><trkpt lat="45.29735987324571" lon="9.667380780446779"><ele>67.0</ele><time>2026-03-30T09:20:11Z</time></trkpt><trkpt lat="45.29731576782967" lon="9.667193836980323"><ele>67.0</ele><time>2026-03-30T09:20:12Z</time></trkpt><trkpt lat="45.297264731604244" lon="9.66700291664372"><ele>67.0</ele><time>2026-03-30T09:20:13Z</time></trkpt><trkpt lat="45.2971979207411" lon="9.666817405797357"><ele>67.0</ele><time>2026-03-30T09:20:14Z</time></trkpt><trkpt lat="45.29711908990677" lon="9.66666818100866"><ele>67.0</ele><time>2026-03-30T09:20:16Z</time></trkpt><trkpt lat="45.29705919610107" lon="9.666536962388873"><ele>67.4</ele><time>2026-03-30T09:20:17Z</time></trkpt><trkpt lat="45.29700297847258" lon="9.666401364752709"><ele>67.80000000000001</ele><time>2026-03-30T09:20:18Z</time></trkpt><trkpt lat="45.29695177723272" lon="9.66627364566238"><ele>68.2</ele><time>2026-03-30T09:20:19Z</time></trkpt><trkpt lat="45.296903626056846" lon="9.66614454312376"><ele>68.60000000000001</ele><time>2026-03-30T09:20:20Z</time></trkpt><trkpt lat="45.296856776575154" lon="9.666021914662325"><ele>69.0</ele><time>2026-03-30T09:20:21Z</time></trkpt><trkpt lat="45.296833269694915" lon="9.665891110676627"><ele>69.2</ele><time>2026-03-30T09:20:22Z</time></trkpt><trkpt lat="45.29680421488736" lon="9.665755753230359"><ele>69.4</ele><time>2026-03-30T09:20:23Z</time></trkpt><trkpt lat="45.29677799319907" lon="9.665613390039187"><ele>69.6</ele><time>2026-03-30T09:20:24Z</time></trkpt><trkpt lat="45.29675222653664" lon="9.665468499880333"><ele>69.8</ele><time>2026-03-30T09:20:25Z</time></trkpt><trkpt lat="45.296723848416306" lon="9.665320458246828"><ele>70.0</ele><time>2026-03-30T09:20:26Z</time></trkpt><trkpt lat="45.29669533513432" lon="9.665195244599884"><ele>69.66666666666666</ele><time>2026-03-30T09:20:27Z</time></trkpt><trkpt lat="45.29667207295991" lon="9.665096063419618"><ele>69.33333333333333</ele><time>2026-03-30T09:20:28Z</time></trkpt><trkpt lat="45.29661689356754" lon="9.665017017566901"><ele>69.0</ele><time>2026-03-30T09:20:29Z</time></trkpt><trkpt lat="45.29654421838306" lon="9.664987131636178"><ele>68.66666666666667</ele><time>2026-03-30T09:20:30Z</time></trkpt><trkpt lat="45.29646883321473" lon="9.66500342939332"><ele>68.33333333333334</ele><time>2026-03-30T09:20:31Z</time></trkpt><trkpt lat="45.296404411062106" lon="9.665007585188004"><ele>68.0</ele><time>2026-03-30T09:20:32Z</time></trkpt><trkpt lat="45.2963782330039" lon="9.664893175744785"><ele>68.0</ele><time>2026-03-30T09:20:34Z</time></trkpt><trkpt lat="45.29636619598555" lon="9.664747941285068"><ele>68.0</ele><time>2026-03-30T09:20:36Z</time></trkpt><trkpt lat="45.29629775518346" lon="9.664687755940585"><ele>68.0</ele><time>2026-03-30T09:20:38Z</time></trkpt><trkpt lat="45.29623026400269" lon="9.664694601743886"><ele>68.0</ele><time>2026-03-30T09:20:39Z</time></trkpt><trkpt lat="45.29616131071991" lon="9.664710904551082"><ele>68.0</ele><time>2026-03-30T09:20:40Z</time></trkpt><trkpt lat="45.29610992027048" lon="9.66463533809844"><ele>68.0</ele><time>2026-03-30T09:20:41Z</time></trkpt><trkpt lat="45.29603430093949" lon="9.664608420107305"><ele>68.0</ele><time>2026-03-30T09:20:42Z</time></trkpt><trkpt lat="45.295943954154275" lon="9.66460472724856"><ele>68.0</ele><time>2026-03-30T09:20:43Z</time></trkpt><trkpt lat="45.29585091841687" lon="9.664582375865884"><ele>68.0</ele><time>2026-03-30T09:20:44Z</time></trkpt><trkpt lat="45.295757941190246" lon="9.664559197845648"><ele>68.0</ele><time>2026-03-30T09:20:45Z</time></trkpt><trkpt lat="45.29567228758058" lon="9.664528518051247"><ele>68.0</ele><time>2026-03-30T09:20:46Z</time></trkpt><trkpt lat="45.29560130676813" lon="9.66446907915371"><ele>68.16666666666667</ele><time>2026-03-30T09:20:47Z</time></trkpt><trkpt lat="45.29552616542345" lon="9.664432457771019"><ele>68.33333333333334</ele><time>2026-03-30T09:20:48Z</time></trkpt><trkpt lat="45.29545693676603" lon="9.664429541943495"><ele>68.5</ele><time>2026-03-30T09:20:49Z</time></trkpt><trkpt lat="45.29538738956849" lon="9.664428221580932"><ele>68.66666666666667</ele><time>2026-03-30T09:20:50Z</time></trkpt><trkpt lat="45.295304943812084" lon="9.66443641386857"><ele>68.83333333333333</ele><time>2026-03-30T09:20:51Z</time></trkpt><trkpt lat="45.29521978494165" lon="9.664412374815045"><ele>69.0</ele><time>2026-03-30T09:20:52Z</time></trkpt><trkpt lat="45.295134708301035" lon="9.664412215293071"><ele>69.0</ele><time>2026-03-30T09:20:53Z</time></trkpt><trkpt lat="45.295067673284834" lon="9.664429516188722"><ele>69.0</ele><time>2026-03-30T09:20:54Z</time></trkpt><trkpt lat="45.294949136402984" lon="9.66444383954157"><ele>69.0</ele><time>2026-03-30T09:20:55.999Z</time></trkpt><trkpt lat="45.29488779046938" lon="9.664464158219104"><ele>69.0</ele><time>2026-03-30T09:20:56.999Z</time></trkpt><trkpt lat="45.29482546940757" lon="9.66448225374084"><ele>69.0</ele><time>2026-03-30T09:20:57.999Z</time></trkpt><trkpt lat="45.294746292127606" lon="9.664490982262896"><ele>69.0</ele><time>2026-03-30T09:20:58.999Z</time></trkpt><trkpt lat="45.29465082164239" lon="9.664493394947977"><ele>68.2</ele><time>2026-03-30T09:20:59.999Z</time></trkpt><trkpt lat="45.294559129088135" lon="9.664487659868644"><ele>67.4</ele><time>2026-03-30T09:21:00.999Z</time></trkpt><trkpt lat="45.294470961962624" lon="9.664473325649531"><ele>66.6</ele><time>2026-03-30T09:21:01.999Z</time></trkpt><trkpt lat="45.294377546679755" lon="9.664453165230151"><ele>65.8</ele><time>2026-03-30T09:21:02.999Z</time></trkpt><trkpt lat="45.2942790312498" lon="9.66443209361322"><ele>65.0</ele><time>2026-03-30T09:21:03.999Z</time></trkpt><trkpt lat="45.294177850608826" lon="9.664411028962293"><ele>65.0</ele><time>2026-03-30T09:21:04.999Z</time></trkpt><trkpt lat="45.29407539927145" lon="9.664389699772709"><ele>65.0</ele><time>2026-03-30T09:21:05.999Z</time></trkpt><trkpt lat="45.29395887609952" lon="9.66436532170039"><ele>65.0</ele><time>2026-03-30T09:21:06.999Z</time></trkpt><trkpt lat="45.29384225426187" lon="9.664339037879142"><ele>65.0</ele><time>2026-03-30T09:21:07.999Z</time></trkpt><trkpt lat="45.2937272569801" lon="9.664311144374768"><ele>64.6</ele><time>2026-03-30T09:21:08.999Z</time></trkpt><trkpt lat="45.2936211182343" lon="9.66427876191175"><ele>64.2</ele><time>2026-03-30T09:21:09.999Z</time></trkpt><trkpt lat="45.293515435202494" lon="9.664262002640944"><ele>63.8</ele><time>2026-03-30T09:21:10.999Z</time></trkpt><trkpt lat="45.293414235415455" lon="9.664227635851107"><ele>63.4</ele><time>2026-03-30T09:21:11.999Z</time></trkpt><trkpt lat="45.29331625471817" lon="9.6642347278461"><ele>63.0</ele><time>2026-03-30T09:21:12.999Z</time></trkpt><trkpt lat="45.293214684939294" lon="9.664254798607596"><ele>63.0</ele><time>2026-03-30T09:21:13.999Z</time></trkpt><trkpt lat="45.29310289662134" lon="9.66429900941441"><ele>63.0</ele><time>2026-03-30T09:21:14.999Z</time></trkpt><trkpt lat="45.292977243585895" lon="9.664363888884647"><ele>63.0</ele><time>2026-03-30T09:21:15.999Z</time></trkpt><trkpt lat="45.292848899528906" lon="9.664446898962348"><ele>63.0</ele><time>2026-03-30T09:21:17Z</time></trkpt><trkpt lat="45.29273785040683" lon="9.664523092505906"><ele>61.75</ele><time>2026-03-30T09:21:18Z</time></trkpt><trkpt lat="45.29263430293986" lon="9.66459989872379"><ele>60.5</ele><time>2026-03-30T09:21:19Z</time></trkpt><trkpt lat="45.29253636755906" lon="9.664670241568352"><ele>59.25</ele><time>2026-03-30T09:21:20Z</time></trkpt><trkpt lat="45.29242937328982" lon="9.664746739442446"><ele>58.0</ele><time>2026-03-30T09:21:21Z</time></trkpt><trkpt lat="45.29232148211394" lon="9.66481321598286"><ele>57.4</ele><time>2026-03-30T09:21:22Z</time></trkpt><trkpt lat="45.29221223406402" lon="9.66486841260155"><ele>56.8</ele><time>2026-03-30T09:21:23Z</time></trkpt><trkpt lat="45.292101608399676" lon="9.66491477355186"><ele>56.2</ele><time>2026-03-30T09:21:24Z</time></trkpt><trkpt lat="45.29199411689426" lon="9.66495750152772"><ele>55.6</ele><time>2026-03-30T09:21:25Z</time></trkpt><trkpt lat="45.29190653307999" lon="9.664960345564403"><ele>55.0</ele><time>2026-03-30T09:21:26Z</time></trkpt><trkpt lat="45.29184149026319" lon="9.665003443759653"><ele>54.99999999999999</ele><time>2026-03-30T09:21:27Z</time></trkpt><trkpt lat="45.29174921744223" lon="9.664998502897532"><ele>55.0</ele><time>2026-03-30T09:21:29Z</time></trkpt><trkpt lat="45.29166931044758" lon="9.665027641965754"><ele>55.0</ele><time>2026-03-30T09:21:31Z</time></trkpt><trkpt lat="45.29160246058848" lon="9.665000935997657"><ele>55.0</ele><time>2026-03-30T09:21:33Z</time></trkpt><trkpt lat="45.29154459913552" lon="9.664928792420739"><ele>54.99999999999999</ele><time>2026-03-30T09:21:35Z</time></trkpt><trkpt lat="45.29152440294264" lon="9.664776628012852"><ele>55.0</ele><time>2026-03-30T09:21:37Z</time></trkpt><trkpt lat="45.291507375790935" lon="9.664624633350675"><ele>54.99999999999999</ele><time>2026-03-30T09:21:39Z</time></trkpt><trkpt lat="45.29148061966172" lon="9.664528233463027"><ele>55.0</ele><time>2026-03-30T09:21:41Z</time></trkpt><trkpt lat="45.29148588106976" lon="9.664402189733469"><ele>55.0</ele><time>2026-03-30T09:21:43Z</time></trkpt><trkpt lat="45.29147530558657" lon="9.664254036936505"><ele>55.0</ele><time>2026-03-30T09:21:45Z</time></trkpt><trkpt lat="45.291466858086544" lon="9.664156587151835"><ele>54.99999999999999</ele><time>2026-03-30T09:21:46Z</time></trkpt><trkpt lat="45.2914514779398" lon="9.66405912102002"><ele>55.0</ele><time>2026-03-30T09:21:47Z</time></trkpt><trkpt lat="45.29140245992118" lon="9.663882993681314"><ele>54.8</ele><time>2026-03-30T09:21:49Z</time></trkpt><trkpt lat="45.291364787477086" lon="9.663807679698655"><ele>54.6</ele><time>2026-03-30T09:21:50Z</time></trkpt><trkpt lat="45.29130653627342" lon="9.663704547710523"><ele>54.400000000000006</ele><time>2026-03-30T09:21:52Z</time></trkpt><trkpt lat="45.29126155421682" lon="9.663613822250042"><ele>54.2</ele><time>2026-03-30T09:21:55Z</time></trkpt><trkpt lat="45.29107222531235" lon="9.663639307323638"><ele>54.0</ele><time>2026-03-30T09:21:57Z</time></trkpt><trkpt lat="45.29097435829633" lon="9.663625621286894"><ele>54.0</ele><time>2026-03-30T09:21:58Z</time></trkpt><trkpt lat="45.29085495004177" lon="9.663594718517373"><ele>54.0</ele><time>2026-03-30T09:21:59Z</time></trkpt><trkpt lat="45.29073456556479" lon="9.663542126703438"><ele>54.0</ele><time>2026-03-30T09:22:00Z</time></trkpt><trkpt lat="45.290606014740476" lon="9.66347487461797"><ele>54.0</ele><time>2026-03-30T09:22:01Z</time></trkpt><trkpt lat="45.29049359219766" lon="9.663406084154001"><ele>54.0</ele><time>2026-03-30T09:22:02Z</time></trkpt><trkpt lat="45.29039265899672" lon="9.663339619847262"><ele>54.0</ele><time>2026-03-30T09:22:03Z</time></trkpt><trkpt lat="45.29028638819313" lon="9.663272825944077"><ele>54.0</ele><time>2026-03-30T09:22:04Z</time></trkpt><trkpt lat="45.29017567957703" lon="9.663205493105739"><ele>54.0</ele><time>2026-03-30T09:22:05Z</time></trkpt><trkpt lat="45.29006833662462" lon="9.66314495664215"><ele>54.0</ele><time>2026-03-30T09:22:06Z</time></trkpt><trkpt lat="45.289972369069474" lon="9.66309139145888"><ele>54.00000000000001</ele><time>2026-03-30T09:22:07Z</time></trkpt><trkpt lat="45.289871896091135" lon="9.663042490633412"><ele>54.00000000000001</ele><time>2026-03-30T09:22:08Z</time></trkpt><trkpt lat="45.28977895739276" lon="9.663004923772643"><ele>54.0</ele><time>2026-03-30T09:22:09Z</time></trkpt><trkpt lat="45.28968170898109" lon="9.662966160844801"><ele>54.0</ele><time>2026-03-30T09:22:10Z</time></trkpt><trkpt lat="45.289588376796964" lon="9.662929541249413"><ele>54.2</ele><time>2026-03-30T09:22:11Z</time></trkpt><trkpt lat="45.289495651937294" lon="9.662916174484646"><ele>54.400000000000006</ele><time>2026-03-30T09:22:12Z</time></trkpt><trkpt lat="45.289400934680835" lon="9.662913636270458"><ele>54.6</ele><time>2026-03-30T09:22:13Z</time></trkpt><trkpt lat="45.28929378025995" lon="9.662925642456134"><ele>54.8</ele><time>2026-03-30T09:22:14Z</time></trkpt><trkpt lat="45.28918424590976" lon="9.662930381373615"><ele>55.0</ele><time>2026-03-30T09:22:15Z</time></trkpt><trkpt lat="45.28909057607008" lon="9.662926425455435"><ele>55.0</ele><time>2026-03-30T09:22:16Z</time></trkpt><trkpt lat="45.28898639789985" lon="9.662905782677155"><ele>55.0</ele><time>2026-03-30T09:22:17Z</time></trkpt><trkpt lat="45.28888535453621" lon="9.66287271085913"><ele>55.0</ele><time>2026-03-30T09:22:18Z</time></trkpt><trkpt lat="45.28878770879707" lon="9.662841877896568"><ele>55.0</ele><time>2026-03-30T09:22:19Z</time></trkpt><trkpt lat="45.28866668345825" lon="9.662814694823366"><ele>55.0</ele><time>2026-03-30T09:22:20Z</time></trkpt><trkpt lat="45.28852677246995" lon="9.662799325828303"><ele>55.0</ele><time>2026-03-30T09:22:21Z</time></trkpt><trkpt lat="45.288378692216206" lon="9.662783916290362"><ele>55.0</ele><time>2026-03-30T09:22:22Z</time></trkpt><trkpt lat="45.28825277331121" lon="9.662779261109891"><ele>55.0</ele><time>2026-03-30T09:22:23Z</time></trkpt><trkpt lat="45.28813969787162" lon="9.66277966348664"><ele>55.0</ele><time>2026-03-30T09:22:24Z</time></trkpt><trkpt lat="45.288025964188" lon="9.662782186101953"><ele>54.75</ele><time>2026-03-30T09:22:25Z</time></trkpt><trkpt lat="45.2879132761188" lon="9.662797844977172"><ele>54.5</ele><time>2026-03-30T09:22:26Z</time></trkpt><trkpt lat="45.28779822626783" lon="9.662826364047381"><ele>54.25</ele><time>2026-03-30T09:22:27Z</time></trkpt><trkpt lat="45.28766580096603" lon="9.662867500147177"><ele>54.0</ele><time>2026-03-30T09:22:28Z</time></trkpt><trkpt lat="45.28752608769612" lon="9.662916126076343"><ele>54.0</ele><time>2026-03-30T09:22:29Z</time></trkpt><trkpt lat="45.28739112244329" lon="9.662960641840531"><ele>54.0</ele><time>2026-03-30T09:22:30Z</time></trkpt><trkpt lat="45.287263110623826" lon="9.662995271024727"><ele>54.0</ele><time>2026-03-30T09:22:31Z</time></trkpt><trkpt lat="45.287142375752886" lon="9.663014026332249"><ele>54.0</ele><time>2026-03-30T09:22:32Z</time></trkpt><trkpt lat="45.28702731969761" lon="9.663034382105852"><ele>53.5</ele><time>2026-03-30T09:22:33Z</time></trkpt><trkpt lat="45.28691563870609" lon="9.663056918221226"><ele>53.0</ele><time>2026-03-30T09:22:34Z</time></trkpt><trkpt lat="45.28680659630019" lon="9.663080225824837"><ele>52.5</ele><time>2026-03-30T09:22:35Z</time></trkpt><trkpt lat="45.28669310848557" lon="9.66310893203473"><ele>52.0</ele><time>2026-03-30T09:22:36Z</time></trkpt><trkpt lat="45.2865775399834" lon="9.663142130633819"><ele>52.0</ele><time>2026-03-30T09:22:37Z</time></trkpt><trkpt lat="45.2864709357454" lon="9.663178375007524"><ele>52.0</ele><time>2026-03-30T09:22:38Z</time></trkpt><trkpt lat="45.28638428783486" lon="9.66322039473096"><ele>52.0</ele><time>2026-03-30T09:22:39Z</time></trkpt><trkpt lat="45.28629425727943" lon="9.663264189144892"><ele>52.0</ele><time>2026-03-30T09:22:40Z</time></trkpt><trkpt lat="45.286193399033536" lon="9.663299360057053"><ele>52.0</ele><time>2026-03-30T09:22:41Z</time></trkpt><trkpt lat="45.28608693680302" lon="9.66333025725887"><ele>52.400000000000006</ele><time>2026-03-30T09:22:42Z</time></trkpt><trkpt lat="45.285972357026154" lon="9.663366621861815"><ele>52.800000000000004</ele><time>2026-03-30T09:22:43Z</time></trkpt><trkpt lat="45.28585823328693" lon="9.663393163736675"><ele>53.2</ele><time>2026-03-30T09:22:44Z</time></trkpt><trkpt lat="45.28575993837365" lon="9.663415624713931"><ele>53.6</ele><time>2026-03-30T09:22:45Z</time></trkpt><trkpt lat="45.28567404337843" lon="9.663438618008588"><ele>54.0</ele><time>2026-03-30T09:22:46Z</time></trkpt><trkpt lat="45.285595996906366" lon="9.663462445522287"><ele>54.0</ele><time>2026-03-30T09:22:47Z</time></trkpt><trkpt lat="45.28551978129773" lon="9.663482642370154"><ele>54.00000000000001</ele><time>2026-03-30T09:22:48Z</time></trkpt><trkpt lat="45.28545113302028" lon="9.663499671298526"><ele>54.00000000000001</ele><time>2026-03-30T09:22:49Z</time></trkpt><trkpt lat="45.28533316409844" lon="9.663512815099184"><ele>54.0</ele><time>2026-03-30T09:22:51Z</time></trkpt><trkpt lat="45.285218423374836" lon="9.663421348769496"><ele>54.0</ele><time>2026-03-30T09:22:53Z</time></trkpt><trkpt lat="45.28516349032951" lon="9.663340963695216"><ele>54.0</ele><time>2026-03-30T09:22:54Z</time></trkpt><trkpt lat="45.285108214015466" lon="9.663237205166032"><ele>54.00000000000001</ele><time>2026-03-30T09:22:55Z</time></trkpt><trkpt lat="45.28504311837908" lon="9.663110392556181"><ele>54.00000000000001</ele><time>2026-03-30T09:22:56Z</time></trkpt><trkpt lat="45.28497463843375" lon="9.662993875702952"><ele>54.0</ele><time>2026-03-30T09:22:57Z</time></trkpt><trkpt lat="45.28491470546602" lon="9.66290114288295"><ele>54.0</ele><time>2026-03-30T09:22:58Z</time></trkpt><trkpt lat="45.28486698143699" lon="9.662827133989637"><ele>54.0</ele><time>2026-03-30T09:22:59Z</time></trkpt><trkpt lat="45.28478475934093" lon="9.66277786545147"><ele>54.00000000000001</ele><time>2026-03-30T09:23:00.999Z</time></trkpt><trkpt lat="45.28471703322522" lon="9.662779396332086"><ele>54.00000000000001</ele><time>2026-03-30T09:23:01.999Z</time></trkpt><trkpt lat="45.284632139581205" lon="9.662794024089315"><ele>54.0</ele><time>2026-03-30T09:23:02.999Z</time></trkpt><trkpt lat="45.28451955745734" lon="9.662810769703778"><ele>54.0</ele><time>2026-03-30T09:23:03.999Z</time></trkpt><trkpt lat="45.284387275987434" lon="9.662825624241119"><ele>53.5</ele><time>2026-03-30T09:23:04.999Z</time></trkpt><trkpt lat="45.28424599963868" lon="9.662843370157526"><ele>53.0</ele><time>2026-03-30T09:23:05.999Z</time></trkpt><trkpt lat="45.284122468991804" lon="9.662858048473787"><ele>52.5</ele><time>2026-03-30T09:23:06.999Z</time></trkpt><trkpt lat="45.28400313533444" lon="9.66289522096868"><ele>52.0</ele><time>2026-03-30T09:23:07.999Z</time></trkpt><trkpt lat="45.28389409402849" lon="9.662943633458205"><ele>51.6</ele><time>2026-03-30T09:23:08.999Z</time></trkpt><trkpt lat="45.28379234527775" lon="9.662990041745411"><ele>51.2</ele><time>2026-03-30T09:23:09.999Z</time></trkpt><trkpt lat="45.28368603507661" lon="9.66305257447044"><ele>50.8</ele><time>2026-03-30T09:23:10.999Z</time></trkpt><trkpt lat="45.283588680645146" lon="9.663099926140104"><ele>50.4</ele><time>2026-03-30T09:23:11.999Z</time></trkpt><trkpt lat="45.28349999410704" lon="9.663130128539779"><ele>50.0</ele><time>2026-03-30T09:23:12.999Z</time></trkpt><trkpt lat="45.28341009371653" lon="9.663161944631309"><ele>50.00000000000001</ele><time>2026-03-30T09:23:13.999Z</time></trkpt><trkpt lat="45.28331752838659" lon="9.663201052613738"><ele>50.0</ele><time>2026-03-30T09:23:14.999Z</time></trkpt><trkpt lat="45.283228371192706" lon="9.663237146312708"><ele>50.0</ele><time>2026-03-30T09:23:15.999Z</time></trkpt><trkpt lat="45.28315092793018" lon="9.663269555271068"><ele>50.0</ele><time>2026-03-30T09:23:16.999Z</time></trkpt><trkpt lat="45.28307853037963" lon="9.663302249094203"><ele>50.00000000000001</ele><time>2026-03-30T09:23:17.999Z</time></trkpt><trkpt lat="45.28300762864305" lon="9.663331548771952"><ele>50.0</ele><time>2026-03-30T09:23:18.999Z</time></trkpt><trkpt lat="45.28293231656945" lon="9.66336476548145"><ele>50.16666666666667</ele><time>2026-03-30T09:23:19.999Z</time></trkpt><trkpt lat="45.28285483876549" lon="9.6633985495721"><ele>50.333333333333336</ele><time>2026-03-30T09:23:20.999Z</time></trkpt><trkpt lat="45.28278277628225" lon="9.663424031871745"><ele>50.5</ele><time>2026-03-30T09:23:21.999Z</time></trkpt><trkpt lat="45.28271543203884" lon="9.663454312643873"><ele>50.66666666666667</ele><time>2026-03-30T09:23:23Z</time></trkpt><trkpt lat="45.282652320872245" lon="9.663479808452994"><ele>50.833333333333336</ele><time>2026-03-30T09:23:24Z</time></trkpt><trkpt lat="45.28259053753715" lon="9.663503034514447"><ele>51.0</ele><time>2026-03-30T09:23:25Z</time></trkpt><trkpt lat="45.28247295814739" lon="9.663556210396864"><ele>51.0</ele><time>2026-03-30T09:23:27Z</time></trkpt><trkpt lat="45.282407638465095" lon="9.663585227162462"><ele>51.0</ele><time>2026-03-30T09:23:28Z</time></trkpt><trkpt lat="45.28234647390039" lon="9.663613248802424"><ele>51.0</ele><time>2026-03-30T09:23:29Z</time></trkpt><trkpt lat="45.28224456341793" lon="9.66364921342343"><ele>51.0</ele><time>2026-03-30T09:23:31Z</time></trkpt><trkpt lat="45.28217638244884" lon="9.663664429387502"><ele>51.0</ele><time>2026-03-30T09:23:32Z</time></trkpt><trkpt lat="45.2820811091371" lon="9.663698995393297"><ele>51.0</ele><time>2026-03-30T09:23:33Z</time></trkpt><trkpt lat="45.281959893643226" lon="9.663756245603308"><ele>50.75</ele><time>2026-03-30T09:23:34Z</time></trkpt><trkpt lat="45.28182249918525" lon="9.663814879132367"><ele>50.5</ele><time>2026-03-30T09:23:35Z</time></trkpt><trkpt lat="45.281708997683786" lon="9.663861882043568"><ele>50.25</ele><time>2026-03-30T09:23:36Z</time></trkpt><trkpt lat="45.28161722865039" lon="9.663900496592069"><ele>50.0</ele><time>2026-03-30T09:23:37Z</time></trkpt><trkpt lat="45.281520393792334" lon="9.663932779864732"><ele>50.0</ele><time>2026-03-30T09:23:38Z</time></trkpt><trkpt lat="45.2814132844394" lon="9.663976312596963"><ele>50.0</ele><time>2026-03-30T09:23:39Z</time></trkpt><trkpt lat="45.28130422293637" lon="9.66401564575368"><ele>50.0</ele><time>2026-03-30T09:23:40Z</time></trkpt><trkpt lat="45.28120347916006" lon="9.664051250434893"><ele>50.0</ele><time>2026-03-30T09:23:41Z</time></trkpt><trkpt lat="45.281081750776714" lon="9.664105681332181"><ele>50.0</ele><time>2026-03-30T09:23:42Z</time></trkpt><trkpt lat="45.28093946175885" lon="9.664164422162346"><ele>50.0</ele><time>2026-03-30T09:23:43Z</time></trkpt><trkpt lat="45.28081364401016" lon="9.664215448713309"><ele>50.0</ele><time>2026-03-30T09:23:44Z</time></trkpt><trkpt lat="45.280715698839806" lon="9.664259876112252"><ele>50.0</ele><time>2026-03-30T09:23:45Z</time></trkpt><trkpt lat="45.28063306368502" lon="9.664294943721023"><ele>50.0</ele><time>2026-03-30T09:23:46Z</time></trkpt><trkpt lat="45.2804884033602" lon="9.664348424193484"><ele>50.0</ele><time>2026-03-30T09:23:48Z</time></trkpt><trkpt lat="45.28041471224337" lon="9.664379372960763"><ele>50.0</ele><time>2026-03-30T09:23:49Z</time></trkpt><trkpt lat="45.28034384162139" lon="9.66441024131078"><ele>50.0</ele><time>2026-03-30T09:23:50Z</time></trkpt><trkpt lat="45.28024471181542" lon="9.664432775585443"><ele>50.0</ele><time>2026-03-30T09:23:52Z</time></trkpt><trkpt lat="45.280180409561936" lon="9.66441820861561"><ele>50.00000000000001</ele><time>2026-03-30T09:23:55Z</time></trkpt><trkpt lat="45.28008115406017" lon="9.664462550772258"><ele>50.0</ele><time>2026-03-30T09:24:03Z</time></trkpt><trkpt lat="45.280026508063465" lon="9.66451149145409"><ele>50.0</ele><time>2026-03-30T09:24:04Z</time></trkpt><trkpt lat="45.27996478528199" lon="9.664591136101373"><ele>50.0</ele><time>2026-03-30T09:24:05Z</time></trkpt><trkpt lat="45.279906018933985" lon="9.664685740862335"><ele>50.00000000000001</ele><time>2026-03-30T09:24:06Z</time></trkpt><trkpt lat="45.279846901464616" lon="9.664790265384001"><ele>50.0</ele><time>2026-03-30T09:24:07Z</time></trkpt><trkpt lat="45.27977813712307" lon="9.664925360907489"><ele>50.0</ele><time>2026-03-30T09:24:08Z</time></trkpt><trkpt lat="45.27969538800857" lon="9.66508555876815"><ele>50.0</ele><time>2026-03-30T09:24:09Z</time></trkpt><trkpt lat="45.2796192221648" lon="9.665226141641327"><ele>50.0</ele><time>2026-03-30T09:24:10Z</time></trkpt><trkpt lat="45.2795553460879" lon="9.665341576282332"><ele>50.0</ele><time>2026-03-30T09:24:11Z</time></trkpt><trkpt lat="45.27948997490886" lon="9.665447756150567"><ele>50.16666666666667</ele><time>2026-03-30T09:24:12Z</time></trkpt><trkpt lat="45.279423717358185" lon="9.665548729835425"><ele>50.333333333333336</ele><time>2026-03-30T09:24:13Z</time></trkpt><trkpt lat="45.27935385245156" lon="9.665637787679014"><ele>50.5</ele><time>2026-03-30T09:24:14Z</time></trkpt><trkpt lat="45.27927753678994" lon="9.665718201967541"><ele>50.66666666666667</ele><time>2026-03-30T09:24:15Z</time></trkpt><trkpt lat="45.27921773848287" lon="9.665773141536624"><ele>50.833333333333336</ele><time>2026-03-30T09:24:16Z</time></trkpt><trkpt lat="45.279140517259286" lon="9.665832069077213"><ele>51.0</ele><time>2026-03-30T09:24:18Z</time></trkpt><trkpt lat="45.27906515340063" lon="9.665895043104062"><ele>51.0</ele><time>2026-03-30T09:24:32Z</time></trkpt><trkpt lat="45.2789923946551" lon="9.665962367738326"><ele>51.0</ele><time>2026-03-30T09:24:34Z</time></trkpt><trkpt lat="45.27892716013258" lon="9.66601429889062"><ele>51.0</ele><time>2026-03-30T09:24:36Z</time></trkpt><trkpt lat="45.2788684082315" lon="9.666060734599034"><ele>51.0</ele><time>2026-03-30T09:24:37Z</time></trkpt><trkpt lat="45.27881249407726" lon="9.666108287854703"><ele>51.0</ele><time>2026-03-30T09:24:38Z</time></trkpt><trkpt lat="45.27875576265874" lon="9.666153402114231"><ele>51.0</ele><time>2026-03-30T09:24:39Z</time></trkpt><trkpt lat="45.27865115670815" lon="9.666234980199844"><ele>51.0</ele><time>2026-03-30T09:24:41Z</time></trkpt><trkpt lat="45.278539311335905" lon="9.666309104270303"><ele>51.0</ele><time>2026-03-30T09:24:43Z</time></trkpt><trkpt lat="45.27844683111215" lon="9.666351839423726"><ele>51.0</ele><time>2026-03-30T09:24:45Z</time></trkpt><trkpt lat="45.27838897346206" lon="9.666390852176225"><ele>51.0</ele><time>2026-03-30T09:24:50Z</time></trkpt><trkpt lat="45.27849816090441" lon="9.666358586821582"><ele>51.0</ele><time>2026-03-30T09:31:02Z</time></trkpt><trkpt lat="45.27861163201186" lon="9.666294237028817"><ele>51.0</ele><time>2026-03-30T09:31:04Z</time></trkpt><trkpt lat="45.278667047084056" lon="9.666247084553591"><ele>51.0</ele><time>2026-03-30T09:31:05Z</time></trkpt><trkpt lat="45.27877385141596" lon="9.666171251091797"><ele>51.0</ele><time>2026-03-30T09:31:07Z</time></trkpt><trkpt lat="45.2788606447102" lon="9.666100872516909"><ele>51.0</ele><time>2026-03-30T09:31:09Z</time></trkpt><trkpt lat="45.27895057419178" lon="9.666022680399395"><ele>51.0</ele><time>2026-03-30T09:31:11Z</time></trkpt><trkpt lat="45.279009597025166" lon="9.66597160699601"><ele>51.0</ele><time>2026-03-30T09:31:12Z</time></trkpt><trkpt lat="45.27907454837568" lon="9.665911995554554"><ele>51.0</ele><time>2026-03-30T09:31:13Z</time></trkpt><trkpt lat="45.27914842230652" lon="9.66585191060033"><ele>51.0</ele><time>2026-03-30T09:31:14Z</time></trkpt><trkpt lat="45.27921095657171" lon="9.665806301154426"><ele>51.0</ele><time>2026-03-30T09:31:15Z</time></trkpt><trkpt lat="45.279271305726986" lon="9.665755636773136"><ele>51.0</ele><time>2026-03-30T09:31:16Z</time></trkpt><trkpt lat="45.27933076912763" lon="9.665702702028867"><ele>51.0</ele><time>2026-03-30T09:31:17Z</time></trkpt><trkpt lat="45.279388723167045" lon="9.665642772916321"><ele>51.0</ele><time>2026-03-30T09:31:18Z</time></trkpt><trkpt lat="45.2794788162067" lon="9.665524561706343"><ele>51.0</ele><time>2026-03-30T09:31:19.999Z</time></trkpt><trkpt lat="45.27952907549643" lon="9.665456474002056"><ele>51.0</ele><time>2026-03-30T09:31:20.999Z</time></trkpt><trkpt lat="45.27957020510171" lon="9.665383201956342"><ele>51.0</ele><time>2026-03-30T09:31:21.999Z</time></trkpt><trkpt lat="45.27961692292747" lon="9.665302084838109"><ele>51.0</ele><time>2026-03-30T09:31:22.999Z</time></trkpt><trkpt lat="45.279666756268846" lon="9.6652149666275"><ele>51.0</ele><time>2026-03-30T09:31:23.999Z</time></trkpt><trkpt lat="45.27971728344018" lon="9.665119636632507"><ele>51.0</ele><time>2026-03-30T09:31:24.999Z</time></trkpt><trkpt lat="45.27976579846595" lon="9.66502093446776"><ele>50.833333333333336</ele><time>2026-03-30T09:31:25.999Z</time></trkpt><trkpt lat="45.2798091987074" lon="9.664935459113744"><ele>50.66666666666667</ele><time>2026-03-30T09:31:26.999Z</time></trkpt><trkpt lat="45.27984868047556" lon="9.664856721364641"><ele>50.5</ele><time>2026-03-30T09:31:27.999Z</time></trkpt><trkpt lat="45.27988605220877" lon="9.664780476696297"><ele>50.333333333333336</ele><time>2026-03-30T09:31:28.999Z</time></trkpt><trkpt lat="45.2799508229912" lon="9.664651465231085"><ele>50.16666666666667</ele><time>2026-03-30T09:31:30.999Z</time></trkpt><trkpt lat="45.28001763058018" lon="9.664555011994388"><ele>50.0</ele><time>2026-03-30T09:31:32.999Z</time></trkpt><trkpt lat="45.28008715846495" lon="9.664515823615593"><ele>50.00000000000001</ele><time>2026-03-30T09:31:36.999Z</time></trkpt><trkpt lat="45.280156413017465" lon="9.664538348571872"><ele>50.0</ele><time>2026-03-30T09:31:48.999Z</time></trkpt><trkpt lat="45.280197109445666" lon="9.66462302102467"><ele>50.0</ele><time>2026-03-30T09:31:50.999Z</time></trkpt><trkpt lat="45.28026176185036" lon="9.664768587399879"><ele>50.0</ele><time>2026-03-30T09:31:52.999Z</time></trkpt><trkpt lat="45.28030236212429" lon="9.6648467858539"><ele>50.00000000000001</ele><time>2026-03-30T09:31:53.999Z</time></trkpt><trkpt lat="45.28034839860178" lon="9.66493806401298"><ele>50.0</ele><time>2026-03-30T09:31:54.999Z</time></trkpt><trkpt lat="45.28039887737792" lon="9.66503319016791"><ele>50.00000000000001</ele><time>2026-03-30T09:31:55.999Z</time></trkpt><trkpt lat="45.280446896791574" lon="9.665130507256654"><ele>50.0</ele><time>2026-03-30T09:31:56.999Z</time></trkpt><trkpt lat="45.28049188541081" lon="9.665219894238492"><ele>50.0</ele><time>2026-03-30T09:31:58Z</time></trkpt><trkpt lat="45.280532674817486" lon="9.665295726093282"><ele>50.0</ele><time>2026-03-30T09:31:59Z</time></trkpt><trkpt lat="45.28057203950361" lon="9.665370311188784"><ele>50.00000000000001</ele><time>2026-03-30T09:32:00Z</time></trkpt><trkpt lat="45.280648343844746" lon="9.665501136997168"><ele>50.0</ele><time>2026-03-30T09:32:02Z</time></trkpt><trkpt lat="45.280687892843964" lon="9.665577253513707"><ele>50.00000000000001</ele><time>2026-03-30T09:32:03Z</time></trkpt><trkpt lat="45.28073154141131" lon="9.66565897232919"><ele>50.0</ele><time>2026-03-30T09:32:04Z</time></trkpt><trkpt lat="45.28077920147324" lon="9.665739127339867"><ele>50.0</ele><time>2026-03-30T09:32:05Z</time></trkpt><trkpt lat="45.28083250787153" lon="9.665826592172076"><ele>50.0</ele><time>2026-03-30T09:32:06Z</time></trkpt><trkpt lat="45.28088670583737" lon="9.665904908062737"><ele>50.0</ele><time>2026-03-30T09:32:07Z</time></trkpt><trkpt lat="45.28094073986151" lon="9.665967884211307"><ele>50.00000000000001</ele><time>2026-03-30T09:32:08Z</time></trkpt><trkpt lat="45.280997962118896" lon="9.666023367724382"><ele>50.0</ele><time>2026-03-30T09:32:09Z</time></trkpt><trkpt lat="45.28106079475376" lon="9.666083392673109"><ele>50.2</ele><time>2026-03-30T09:32:10Z</time></trkpt><trkpt lat="45.281119846486305" lon="9.666137286893804"><ele>50.4</ele><time>2026-03-30T09:32:11Z</time></trkpt><trkpt lat="45.281180242935484" lon="9.666188972705779"><ele>50.599999999999994</ele><time>2026-03-30T09:32:12Z</time></trkpt><trkpt lat="45.28128570483622" lon="9.66626992419142"><ele>50.8</ele><time>2026-03-30T09:32:14Z</time></trkpt><trkpt lat="45.281374240444684" lon="9.666339671994042"><ele>51.0</ele><time>2026-03-30T09:32:16Z</time></trkpt><trkpt lat="45.281456041124024" lon="9.666411129958792"><ele>51.0</ele><time>2026-03-30T09:32:18Z</time></trkpt><trkpt lat="45.28150786700312" lon="9.666493567204464"><ele>51.0</ele><time>2026-03-30T09:32:20Z</time></trkpt><trkpt lat="45.281537737606115" lon="9.666614763181633"><ele>51.0</ele><time>2026-03-30T09:32:22Z</time></trkpt><trkpt lat="45.28153766599887" lon="9.666755713767643"><ele>51.0</ele><time>2026-03-30T09:32:24Z</time></trkpt><trkpt lat="45.281534356300085" lon="9.66685527599224"><ele>51.0</ele><time>2026-03-30T09:32:25Z</time></trkpt><trkpt lat="45.281528942081096" lon="9.66695932286828"><ele>51.0</ele><time>2026-03-30T09:32:26Z</time></trkpt><trkpt lat="45.281523726707576" lon="9.667058881351752"><ele>50.666666666666664</ele><time>2026-03-30T09:32:27Z</time></trkpt><trkpt lat="45.281516291812764" lon="9.667157494106068"><ele>50.33333333333333</ele><time>2026-03-30T09:32:28Z</time></trkpt><trkpt lat="45.28150551358082" lon="9.6672625165178"><ele>50.0</ele><time>2026-03-30T09:32:29Z</time></trkpt><trkpt lat="45.28149652457316" lon="9.667375858832445"><ele>49.666666666666664</ele><time>2026-03-30T09:32:30Z</time></trkpt><trkpt lat="45.28149096071867" lon="9.667488927551965"><ele>49.33333333333333</ele><time>2026-03-30T09:32:31Z</time></trkpt><trkpt lat="45.28148642738143" lon="9.66760951817291"><ele>49.0</ele><time>2026-03-30T09:32:32Z</time></trkpt><trkpt lat="45.281482263884975" lon="9.667735452269309"><ele>49.6</ele><time>2026-03-30T09:32:33Z</time></trkpt><trkpt lat="45.28147713427059" lon="9.667860276800639"><ele>50.2</ele><time>2026-03-30T09:32:34Z</time></trkpt><trkpt lat="45.28147194835296" lon="9.667996685741674"><ele>50.800000000000004</ele><time>2026-03-30T09:32:35Z</time></trkpt><trkpt lat="45.28146454654279" lon="9.668135638747646"><ele>51.400000000000006</ele><time>2026-03-30T09:32:36Z</time></trkpt><trkpt lat="45.28145829722232" lon="9.668273905677475"><ele>52.0</ele><time>2026-03-30T09:32:37Z</time></trkpt><trkpt lat="45.28145148523465" lon="9.668399645896875"><ele>51.99999999999999</ele><time>2026-03-30T09:32:38Z</time></trkpt><trkpt lat="45.28144637783634" lon="9.668523822153029"><ele>52.0</ele><time>2026-03-30T09:32:39Z</time></trkpt><trkpt lat="45.28144067709495" lon="9.668635754720526"><ele>52.0</ele><time>2026-03-30T09:32:40Z</time></trkpt><trkpt lat="45.28143443748761" lon="9.668749897827443"><ele>52.0</ele><time>2026-03-30T09:32:41Z</time></trkpt><trkpt lat="45.281426692490804" lon="9.66886349389534"><ele>51.99999999999999</ele><time>2026-03-30T09:32:42Z</time></trkpt><trkpt lat="45.28142138163077" lon="9.668977436900105"><ele>52.0</ele><time>2026-03-30T09:32:43Z</time></trkpt><trkpt lat="45.28141649430465" lon="9.669092128437157"><ele>51.857142857142854</ele><time>2026-03-30T09:32:44Z</time></trkpt><trkpt lat="45.28140813042426" lon="9.669201441828383"><ele>51.714285714285715</ele><time>2026-03-30T09:32:45Z</time></trkpt><trkpt lat="45.28140649739081" lon="9.66930910595569"><ele>51.57142857142857</ele><time>2026-03-30T09:32:46Z</time></trkpt><trkpt lat="45.28140302063687" lon="9.66941350051867"><ele>51.42857142857143</ele><time>2026-03-30T09:32:47Z</time></trkpt><trkpt lat="45.281395521181594" lon="9.669508031090341"><ele>51.28571428571429</ele><time>2026-03-30T09:32:48Z</time></trkpt><trkpt lat="45.281386343978255" lon="9.669608867485369"><ele>51.142857142857146</ele><time>2026-03-30T09:32:49Z</time></trkpt><trkpt lat="45.28138387202103" lon="9.669706966003881"><ele>51.0</ele><time>2026-03-30T09:32:50Z</time></trkpt><trkpt lat="45.28137931727098" lon="9.669796401343943"><ele>50.833333333333336</ele><time>2026-03-30T09:32:51Z</time></trkpt><trkpt lat="45.28137633987362" lon="9.669942876696709"><ele>50.66666666666667</ele><time>2026-03-30T09:32:53Z</time></trkpt><trkpt lat="45.28137035952951" lon="9.670083480603363"><ele>50.5</ele><time>2026-03-30T09:32:55Z</time></trkpt><trkpt lat="45.28137909355982" lon="9.670199558132154"><ele>50.333333333333336</ele><time>2026-03-30T09:32:57.999Z</time></trkpt><trkpt lat="45.28132710571642" lon="9.670273993575139"><ele>50.16666666666667</ele><time>2026-03-30T09:33:01.999Z</time></trkpt><trkpt lat="45.28123882421039" lon="9.670266788299406"><ele>50.0</ele><time>2026-03-30T09:33:03.999Z</time></trkpt><trkpt lat="45.28117293615237" lon="9.670244852412143"><ele>50.00000000000001</ele><time>2026-03-30T09:33:04.999Z</time></trkpt><trkpt lat="45.28108611998064" lon="9.67023613873175"><ele>50.0</ele><time>2026-03-30T09:33:05.999Z</time></trkpt><trkpt lat="45.28099959782108" lon="9.670233378519804"><ele>50.0</ele><time>2026-03-30T09:33:06.999Z</time></trkpt><trkpt lat="45.28091489634778" lon="9.670203557990924"><ele>50.0</ele><time>2026-03-30T09:33:07.999Z</time></trkpt><trkpt lat="45.28083207722168" lon="9.670242046110317"><ele>50.00000000000001</ele><time>2026-03-30T09:33:08.999Z</time></trkpt><trkpt lat="45.28075145330918" lon="9.670305606785032"><ele>50.0</ele><time>2026-03-30T09:33:09.999Z</time></trkpt><trkpt lat="45.28067263438417" lon="9.670371580964101"><ele>50.2</ele><time>2026-03-30T09:33:10.999Z</time></trkpt><trkpt lat="45.28058786120344" lon="9.67044253902912"><ele>50.4</ele><time>2026-03-30T09:33:11.999Z</time></trkpt><trkpt lat="45.28048079105292" lon="9.670532160480578"><ele>50.599999999999994</ele><time>2026-03-30T09:33:12.999Z</time></trkpt><trkpt lat="45.28037777736919" lon="9.670617047236766"><ele>50.8</ele><time>2026-03-30T09:33:13.999Z</time></trkpt><trkpt lat="45.28028747829572" lon="9.67068918926305"><ele>51.0</ele><time>2026-03-30T09:33:14.999Z</time></trkpt><trkpt lat="45.2802025337848" lon="9.670750094313107"><ele>51.0</ele><time>2026-03-30T09:33:15.999Z</time></trkpt><trkpt lat="45.28011928018379" lon="9.67080318996354"><ele>51.0</ele><time>2026-03-30T09:33:16.999Z</time></trkpt><trkpt lat="45.280029577353936" lon="9.67085305173004"><ele>51.0</ele><time>2026-03-30T09:33:17.999Z</time></trkpt><trkpt lat="45.27993440434739" lon="9.670894517401889"><ele>51.0</ele><time>2026-03-30T09:33:18.999Z</time></trkpt><trkpt lat="45.27984036558179" lon="9.670955658242711"><ele>51.0</ele><time>2026-03-30T09:33:19.999Z</time></trkpt><trkpt lat="45.27974743969841" lon="9.671010942894442"><ele>51.0</ele><time>2026-03-30T09:33:20.999Z</time></trkpt><trkpt lat="45.27966091091777" lon="9.671036257181681"><ele>51.0</ele><time>2026-03-30T09:33:21.999Z</time></trkpt><trkpt lat="45.27957065634163" lon="9.671060218541047"><ele>51.0</ele><time>2026-03-30T09:33:22.999Z</time></trkpt><trkpt lat="45.27948189712643" lon="9.67109267832208"><ele>51.0</ele><time>2026-03-30T09:33:23.999Z</time></trkpt><trkpt lat="45.27940071634322" lon="9.671126979608298"><ele>51.0</ele><time>2026-03-30T09:33:24.999Z</time></trkpt><trkpt lat="45.279311573818276" lon="9.671167739911361"><ele>51.199999999999996</ele><time>2026-03-30T09:33:25.999Z</time></trkpt><trkpt lat="45.2792217067274" lon="9.67120938816945"><ele>51.4</ele><time>2026-03-30T09:33:26.999Z</time></trkpt><trkpt lat="45.27913289975819" lon="9.671257898791966"><ele>51.6</ele><time>2026-03-30T09:33:27.999Z</time></trkpt><trkpt lat="45.27905041841444" lon="9.6713115551386"><ele>51.8</ele><time>2026-03-30T09:33:28.999Z</time></trkpt><trkpt lat="45.27896790630664" lon="9.671363591925223"><ele>52.0</ele><time>2026-03-30T09:33:29.999Z</time></trkpt><trkpt lat="45.27888390340813" lon="9.671407626774862"><ele>52.166666666666664</ele><time>2026-03-30T09:33:30.999Z</time></trkpt><trkpt lat="45.27879690869917" lon="9.671447177674414"><ele>52.33333333333333</ele><time>2026-03-30T09:33:31.999Z</time></trkpt><trkpt lat="45.278709998455405" lon="9.671486491998541"><ele>52.5</ele><time>2026-03-30T09:33:32.999Z</time></trkpt><trkpt lat="45.27861898713839" lon="9.67153201718771"><ele>52.66666666666667</ele><time>2026-03-30T09:33:33.999Z</time></trkpt><trkpt lat="45.27854223824722" lon="9.671573483082165"><ele>52.833333333333336</ele><time>2026-03-30T09:33:34.999Z</time></trkpt><trkpt lat="45.278477731943575" lon="9.671611021018682"><ele>53.0</ele><time>2026-03-30T09:33:35.999Z</time></trkpt><trkpt lat="45.27841190511302" lon="9.671654018229003"><ele>53.00000000000001</ele><time>2026-03-30T09:33:36.999Z</time></trkpt><trkpt lat="45.27833596021136" lon="9.67168887328269"><ele>53.0</ele><time>2026-03-30T09:33:37.999Z</time></trkpt><trkpt lat="45.27825443414284" lon="9.671727624213986"><ele>53.0</ele><time>2026-03-30T09:33:38.999Z</time></trkpt><trkpt lat="45.27817281599092" lon="9.671766473766613"><ele>53.0</ele><time>2026-03-30T09:33:39.999Z</time></trkpt><trkpt lat="45.27808043572564" lon="9.671803881462248"><ele>53.00000000000001</ele><time>2026-03-30T09:33:40.999Z</time></trkpt><trkpt lat="45.27798682114849" lon="9.671841210054753"><ele>53.0</ele><time>2026-03-30T09:33:41.999Z</time></trkpt><trkpt lat="45.27790163043363" lon="9.671881413956736"><ele>52.833333333333336</ele><time>2026-03-30T09:33:42.999Z</time></trkpt><trkpt lat="45.27782785536104" lon="9.671925026769452"><ele>52.66666666666667</ele><time>2026-03-30T09:33:43.999Z</time></trkpt><trkpt lat="45.277766778502354" lon="9.671998607062934"><ele>52.5</ele><time>2026-03-30T09:33:44.999Z</time></trkpt><trkpt lat="45.27770467952939" lon="9.67202669067055"><ele>52.33333333333333</ele><time>2026-03-30T09:33:45.999Z</time></trkpt><trkpt lat="45.27760786208578" lon="9.672098351647932"><ele>52.166666666666664</ele><time>2026-03-30T09:33:47.999Z</time></trkpt><trkpt lat="45.27754076165449" lon="9.67213067578588"><ele>52.0</ele><time>2026-03-30T09:33:48.999Z</time></trkpt><trkpt lat="45.27745929139463" lon="9.672157855331443"><ele>52.0</ele><time>2026-03-30T09:33:49.999Z</time></trkpt><trkpt lat="45.27734802320903" lon="9.672187522238517"><ele>52.0</ele><time>2026-03-30T09:33:50.999Z</time></trkpt><trkpt lat="45.27721549668007" lon="9.672222857126082"><ele>52.0</ele><time>2026-03-30T09:33:51.999Z</time></trkpt><trkpt lat="45.277069788744676" lon="9.672265314161134"><ele>52.0</ele><time>2026-03-30T09:33:52.999Z</time></trkpt><trkpt lat="45.27690244930911" lon="9.672321715315814"><ele>50.75</ele><time>2026-03-30T09:33:53.999Z</time></trkpt><trkpt lat="45.27675858638314" lon="9.672372219187471"><ele>49.5</ele><time>2026-03-30T09:33:54.999Z</time></trkpt><trkpt lat="45.27663742229486" lon="9.672411235911133"><ele>48.25</ele><time>2026-03-30T09:33:55.999Z</time></trkpt><trkpt lat="45.276530152789086" lon="9.672438640695576"><ele>47.0</ele><time>2026-03-30T09:33:56.999Z</time></trkpt><trkpt lat="45.276439838229855" lon="9.67245856871564"><ele>47.33333333333333</ele><time>2026-03-30T09:33:57.999Z</time></trkpt><trkpt lat="45.276359440681105" lon="9.672477892152132"><ele>47.666666666666664</ele><time>2026-03-30T09:33:58.999Z</time></trkpt><trkpt lat="45.27629189880271" lon="9.672499919774367"><ele>48.0</ele><time>2026-03-30T09:33:59.999Z</time></trkpt><trkpt lat="45.27620096867492" lon="9.672603032549096"><ele>48.33333333333333</ele><time>2026-03-30T09:34:01.999Z</time></trkpt><trkpt lat="45.276203142962984" lon="9.672698074834415"><ele>48.666666666666664</ele><time>2026-03-30T09:34:02.999Z</time></trkpt><trkpt lat="45.276209707359314" lon="9.672798567811924"><ele>49.0</ele><time>2026-03-30T09:34:03.999Z</time></trkpt><trkpt lat="45.27622506662074" lon="9.672917862892959"><ele>49.0</ele><time>2026-03-30T09:34:04.999Z</time></trkpt><trkpt lat="45.27623970757818" lon="9.673081386679582"><ele>49.0</ele><time>2026-03-30T09:34:05.999Z</time></trkpt><trkpt lat="45.2762547094359" lon="9.673292622515827"><ele>49.0</ele><time>2026-03-30T09:34:06.999Z</time></trkpt><trkpt lat="45.27627390581754" lon="9.673530498910552"><ele>49.0</ele><time>2026-03-30T09:34:07.999Z</time></trkpt><trkpt lat="45.27627748806758" lon="9.673808872193893"><ele>49.33333333333333</ele><time>2026-03-30T09:34:08.999Z</time></trkpt><trkpt lat="45.27629830097408" lon="9.674099673114524"><ele>49.66666666666667</ele><time>2026-03-30T09:34:09.999Z</time></trkpt><trkpt lat="45.27633638170827" lon="9.674403339386869"><ele>50.0</ele><time>2026-03-30T09:34:10.999Z</time></trkpt><trkpt lat="45.276345872346106" lon="9.674735027295451"><ele>50.0</ele><time>2026-03-30T09:34:11.999Z</time></trkpt><trkpt lat="45.27636849864517" lon="9.67502176958062"><ele>50.0</ele><time>2026-03-30T09:34:12.999Z</time></trkpt><trkpt lat="45.276390595840695" lon="9.675291501743091"><ele>50.0</ele><time>2026-03-30T09:34:13.999Z</time></trkpt><trkpt lat="45.276409003132514" lon="9.675540561436758"><ele>50.0</ele><time>2026-03-30T09:34:14.999Z</time></trkpt><trkpt lat="45.27642461717948" lon="9.67576756833598"><ele>50.0</ele><time>2026-03-30T09:34:15.999Z</time></trkpt><trkpt lat="45.27645519402976" lon="9.67597885493042"><ele>50.0</ele><time>2026-03-30T09:34:16.999Z</time></trkpt><trkpt lat="45.27647084410185" lon="9.676216141070249"><ele>50.333333333333336</ele><time>2026-03-30T09:34:17.999Z</time></trkpt><trkpt lat="45.27648736627583" lon="9.67645946909857"><ele>50.66666666666667</ele><time>2026-03-30T09:34:18.999Z</time></trkpt><trkpt lat="45.27650177233563" lon="9.6766983280096"><ele>51.0</ele><time>2026-03-30T09:34:19.999Z</time></trkpt><trkpt lat="45.2765087448178" lon="9.6769085910902"><ele>51.0</ele><time>2026-03-30T09:34:20.999Z</time></trkpt><trkpt lat="45.27653943004186" lon="9.677154152918872"><ele>51.0</ele><time>2026-03-30T09:34:21.999Z</time></trkpt><trkpt lat="45.27653924755449" lon="9.67736557035564"><ele>51.0</ele><time>2026-03-30T09:34:22.999Z</time></trkpt><trkpt lat="45.276552532358856" lon="9.67755381692012"><ele>51.0</ele><time>2026-03-30T09:34:23.999Z</time></trkpt><trkpt lat="45.27656458334308" lon="9.677749602986887"><ele>51.0</ele><time>2026-03-30T09:34:24.999Z</time></trkpt><trkpt lat="45.276575683700855" lon="9.677947613802788"><ele>51.0</ele><time>2026-03-30T09:34:25.999Z</time></trkpt><trkpt lat="45.27658684986109" lon="9.678147510826985"><ele>51.0</ele><time>2026-03-30T09:34:26.999Z</time></trkpt><trkpt lat="45.276597435171105" lon="9.678348609318363"><ele>51.25</ele><time>2026-03-30T09:34:27.999Z</time></trkpt><trkpt lat="45.27660740245786" lon="9.678541618217654"><ele>51.5</ele><time>2026-03-30T09:34:28.999Z</time></trkpt><trkpt lat="45.2766168100006" lon="9.678723788105803"><ele>51.75</ele><time>2026-03-30T09:34:29.999Z</time></trkpt><trkpt lat="45.27662485907747" lon="9.678900006538786"><ele>52.0</ele><time>2026-03-30T09:34:30.999Z</time></trkpt><trkpt lat="45.27663250861995" lon="9.679069957878271"><ele>51.99999999999999</ele><time>2026-03-30T09:34:31.999Z</time></trkpt><trkpt lat="45.27663950043822" lon="9.679221767712566"><ele>52.0</ele><time>2026-03-30T09:34:32.999Z</time></trkpt><trkpt lat="45.27664445236207" lon="9.679338033033194"><ele>52.0</ele><time>2026-03-30T09:34:34Z</time></trkpt><trkpt lat="45.27666255642654" lon="9.679440334711476"><ele>52.0</ele><time>2026-03-30T09:34:35Z</time></trkpt><trkpt lat="45.276661863701065" lon="9.679538200409086"><ele>51.99999999999999</ele><time>2026-03-30T09:34:36Z</time></trkpt><trkpt lat="45.27664397165117" lon="9.679679009087604"><ele>52.0</ele><time>2026-03-30T09:34:38Z</time></trkpt><trkpt lat="45.2766622700723" lon="9.67976862335761"><ele>52.0</ele><time>2026-03-30T09:34:40Z</time></trkpt><trkpt lat="45.276727774660856" lon="9.67979660235257"><ele>52.0</ele><time>2026-03-30T09:34:42Z</time></trkpt><trkpt lat="45.27680324473368" lon="9.679870191508385"><ele>52.0</ele><time>2026-03-30T09:34:44Z</time></trkpt><trkpt lat="45.2769224365215" lon="9.679781210152921"><ele>52.0</ele><time>2026-03-30T09:34:45Z</time></trkpt><trkpt lat="45.2770210192982" lon="9.679789993309885"><ele>52.0</ele><time>2026-03-30T09:34:46Z</time></trkpt><trkpt lat="45.2771175621189" lon="9.679794720872554"><ele>52.0</ele><time>2026-03-30T09:34:47Z</time></trkpt><trkpt lat="45.27720358829723" lon="9.679797013072772"><ele>52.0</ele><time>2026-03-30T09:34:48Z</time></trkpt><trkpt lat="45.27727609556587" lon="9.679806824384727"><ele>52.0</ele><time>2026-03-30T09:34:49Z</time></trkpt><trkpt lat="45.27737081082052" lon="9.679910606577453"><ele>52.0</ele><time>2026-03-30T09:34:50.999Z</time></trkpt><trkpt lat="45.27739351334049" lon="9.680032264673569"><ele>52.0</ele><time>2026-03-30T09:34:51.999Z</time></trkpt><trkpt lat="45.277422848928424" lon="9.680179124770506"><ele>52.33333333333333</ele><time>2026-03-30T09:34:52.999Z</time></trkpt><trkpt lat="45.27747681716754" lon="9.68036383759285"><ele>52.66666666666667</ele><time>2026-03-30T09:34:53.999Z</time></trkpt><trkpt lat="45.27753459724825" lon="9.680569204398502"><ele>53.0</ele><time>2026-03-30T09:34:54.999Z</time></trkpt><trkpt lat="45.27759435513876" lon="9.680778502054125"><ele>53.0</ele><time>2026-03-30T09:34:55.999Z</time></trkpt><trkpt lat="45.277652489991745" lon="9.680961672989167"><ele>53.0</ele><time>2026-03-30T09:34:56.999Z</time></trkpt><trkpt lat="45.27770822892139" lon="9.68112923180449"><ele>53.0</ele><time>2026-03-30T09:34:57.999Z</time></trkpt><trkpt lat="45.277767780312125" lon="9.681281105840192"><ele>53.0</ele><time>2026-03-30T09:34:58.999Z</time></trkpt><trkpt lat="45.27782329127202" lon="9.681418646600822"><ele>52.599999999999994</ele><time>2026-03-30T09:34:59.999Z</time></trkpt><trkpt lat="45.27787204444545" lon="9.681532755044483"><ele>52.199999999999996</ele><time>2026-03-30T09:35:00.999Z</time></trkpt><trkpt lat="45.277924445236266" lon="9.681636562840799"><ele>51.8</ele><time>2026-03-30T09:35:01.999Z</time></trkpt><trkpt lat="45.27798728264467" lon="9.681724758115898"><ele>51.4</ele><time>2026-03-30T09:35:02.999Z</time></trkpt><trkpt lat="45.27805988004005" lon="9.68180963740698"><ele>51.0</ele><time>2026-03-30T09:35:03.999Z</time></trkpt><trkpt lat="45.27813186959141" lon="9.681900344216828"><ele>51.199999999999996</ele><time>2026-03-30T09:35:04.999Z</time></trkpt><trkpt lat="45.278198812878365" lon="9.681997882507822"><ele>51.4</ele><time>2026-03-30T09:35:05.999Z</time></trkpt><trkpt lat="45.278261817219345" lon="9.682100899150523"><ele>51.6</ele><time>2026-03-30T09:35:06.999Z</time></trkpt><trkpt lat="45.27831910720524" lon="9.682212174382846"><ele>51.8</ele><time>2026-03-30T09:35:07.999Z</time></trkpt><trkpt lat="45.27836334110829" lon="9.682333300752237"><ele>52.0</ele><time>2026-03-30T09:35:08.999Z</time></trkpt><trkpt lat="45.27839850297114" lon="9.682457311869424"><ele>52.0</ele><time>2026-03-30T09:35:09.999Z</time></trkpt><trkpt lat="45.27842346237941" lon="9.68258656513422"><ele>52.0</ele><time>2026-03-30T09:35:10.999Z</time></trkpt><trkpt lat="45.27842894909741" lon="9.682714278282772"><ele>52.0</ele><time>2026-03-30T09:35:11.999Z</time></trkpt><trkpt lat="45.27842713183585" lon="9.682849019405984"><ele>52.0</ele><time>2026-03-30T09:35:12.999Z</time></trkpt><trkpt lat="45.27842918082869" lon="9.682994720537247"><ele>52.0</ele><time>2026-03-30T09:35:13.999Z</time></trkpt><trkpt lat="45.27844083067837" lon="9.683152579890828"><ele>52.2</ele><time>2026-03-30T09:35:14.999Z</time></trkpt><trkpt lat="45.278461776377064" lon="9.683332516293651"><ele>52.400000000000006</ele><time>2026-03-30T09:35:15.999Z</time></trkpt><trkpt lat="45.278479598555066" lon="9.683472092081638"><ele>52.599999999999994</ele><time>2026-03-30T09:35:16.999Z</time></trkpt><trkpt lat="45.27849896990687" lon="9.683590437191874"><ele>52.8</ele><time>2026-03-30T09:35:17.999Z</time></trkpt><trkpt lat="45.27851914529495" lon="9.68369079381792"><ele>53.0</ele><time>2026-03-30T09:35:18.999Z</time></trkpt><trkpt lat="45.278536193242516" lon="9.683834263371779"><ele>53.00000000000001</ele><time>2026-03-30T09:35:20.999Z</time></trkpt><trkpt lat="45.27852049254125" lon="9.683941189717464"><ele>53.0</ele><time>2026-03-30T09:35:24.999Z</time></trkpt><trkpt lat="45.27844080491422" lon="9.683920161759866"><ele>53.0</ele><time>2026-03-30T09:35:28.999Z</time></trkpt><trkpt lat="45.27836525939267" lon="9.683910335475968"><ele>53.0</ele><time>2026-03-30T09:35:47.999Z</time></trkpt><trkpt lat="45.278289729605326" lon="9.683900032089701"><ele>53.00000000000001</ele><time>2026-03-30T09:35:49.999Z</time></trkpt><trkpt lat="45.278213688638246" lon="9.683886652579861"><ele>53.0</ele><time>2026-03-30T09:35:52.999Z</time></trkpt><trkpt lat="45.2781493707944" lon="9.683875242281436"><ele>52.66666666666667</ele><time>2026-03-30T09:35:54.999Z</time></trkpt><trkpt lat="45.278077715233835" lon="9.683864157753087"><ele>52.333333333333336</ele><time>2026-03-30T09:35:57.999Z</time></trkpt><trkpt lat="45.27801235463178" lon="9.683853668741124"><ele>52.0</ele><time>2026-03-30T09:36:08.999Z</time></trkpt><trkpt lat="45.27788872523914" lon="9.683838228749364"><ele>51.66666666666667</ele><time>2026-03-30T09:36:11.999Z</time></trkpt><trkpt lat="45.27782144258171" lon="9.683829943660843"><ele>51.333333333333336</ele><time>2026-03-30T09:36:12.999Z</time></trkpt><trkpt lat="45.27774484297443" lon="9.683819938279964"><ele>51.0</ele><time>2026-03-30T09:36:13.999Z</time></trkpt><trkpt lat="45.27765580151733" lon="9.683850455690278"><ele>51.0</ele><time>2026-03-30T09:36:14.999Z</time></trkpt><trkpt lat="45.27755919801853" lon="9.683831827458643"><ele>51.0</ele><time>2026-03-30T09:36:15.999Z</time></trkpt><trkpt lat="45.277468492372535" lon="9.683823072303175"><ele>51.0</ele><time>2026-03-30T09:36:16.999Z</time></trkpt><trkpt lat="45.27737371794489" lon="9.683808295616144"><ele>51.0</ele><time>2026-03-30T09:36:18.999Z</time></trkpt><trkpt lat="45.27733079208338" lon="9.683715091438192"><ele>51.0</ele><time>2026-03-30T09:36:21.999Z</time></trkpt><trkpt lat="45.27725994700316" lon="9.683729421100406"><ele>51.0</ele><time>2026-03-30T09:36:24Z</time></trkpt><trkpt lat="45.277186615583254" lon="9.68374425366952"><ele>50.833333333333336</ele><time>2026-03-30T09:36:26Z</time></trkpt><trkpt lat="45.27711265859393" lon="9.683759212768255"><ele>50.66666666666667</ele><time>2026-03-30T09:36:29Z</time></trkpt><trkpt lat="45.277024236599935" lon="9.68377709766853"><ele>50.5</ele><time>2026-03-30T09:36:37Z</time></trkpt><trkpt lat="45.276968468176314" lon="9.68372691022271"><ele>50.333333333333336</ele><time>2026-03-30T09:36:38Z</time></trkpt><trkpt lat="45.27689784318483" lon="9.683728302957382"><ele>50.16666666666667</ele><time>2026-03-30T09:36:39Z</time></trkpt><trkpt lat="45.276815196507094" lon="9.683727418446418"><ele>50.0</ele><time>2026-03-30T09:36:40Z</time></trkpt><trkpt lat="45.276734311253804" lon="9.683704889343126"><ele>50.0</ele><time>2026-03-30T09:36:41Z</time></trkpt><trkpt lat="45.27665608541641" lon="9.683684860743307"><ele>50.0</ele><time>2026-03-30T09:36:42Z</time></trkpt><trkpt lat="45.276564257459675" lon="9.683664865921568"><ele>50.0</ele><time>2026-03-30T09:36:43Z</time></trkpt><trkpt lat="45.27647593079746" lon="9.68363827248337"><ele>50.0</ele><time>2026-03-30T09:36:44Z</time></trkpt><trkpt lat="45.276378916447456" lon="9.683623249353072"><ele>50.0</ele><time>2026-03-30T09:36:45Z</time></trkpt><trkpt lat="45.27628103307829" lon="9.683604399558321"><ele>50.2</ele><time>2026-03-30T09:36:46Z</time></trkpt><trkpt lat="45.276177656904615" lon="9.683578070453883"><ele>50.4</ele><time>2026-03-30T09:36:47Z</time></trkpt><trkpt lat="45.27607263339544" lon="9.683554376984725"><ele>50.599999999999994</ele><time>2026-03-30T09:36:48Z</time></trkpt><trkpt lat="45.27597069585866" lon="9.683528636365587"><ele>50.8</ele><time>2026-03-30T09:36:49Z</time></trkpt><trkpt lat="45.2758775561361" lon="9.683508361842051"><ele>51.0</ele><time>2026-03-30T09:36:50Z</time></trkpt><trkpt lat="45.27578793876806" lon="9.68349124666146"><ele>51.0</ele><time>2026-03-30T09:36:51Z</time></trkpt><trkpt lat="45.27570778343024" lon="9.683476086647754"><ele>51.0</ele><time>2026-03-30T09:36:52Z</time></trkpt><trkpt lat="45.27562488333209" lon="9.683468228146737"><ele>51.0</ele><time>2026-03-30T09:36:53Z</time></trkpt><trkpt lat="45.275551050361955" lon="9.683454146153274"><ele>51.0</ele><time>2026-03-30T09:36:54Z</time></trkpt><trkpt lat="45.27547328746133" lon="9.68343853940785"><ele>51.0</ele><time>2026-03-30T09:36:55Z</time></trkpt><trkpt lat="45.275391552963704" lon="9.68341878441568"><ele>51.0</ele><time>2026-03-30T09:36:56Z</time></trkpt><trkpt lat="45.27530468859156" lon="9.683392571406339"><ele>50.8</ele><time>2026-03-30T09:36:57Z</time></trkpt><trkpt lat="45.27521246272736" lon="9.683373005367912"><ele>50.599999999999994</ele><time>2026-03-30T09:36:58Z</time></trkpt><trkpt lat="45.27512704271985" lon="9.683353183644403"><ele>50.4</ele><time>2026-03-30T09:36:59Z</time></trkpt><trkpt lat="45.275039420867316" lon="9.683332311727497"><ele>50.2</ele><time>2026-03-30T09:37:00Z</time></trkpt><trkpt lat="45.27495493609487" lon="9.683309468254444"><ele>50.0</ele><time>2026-03-30T09:37:01Z</time></trkpt><trkpt lat="45.27486003214028" lon="9.683287192985565"><ele>50.2</ele><time>2026-03-30T09:37:02Z</time></trkpt><trkpt lat="45.274751581614524" lon="9.683264257074594"><ele>50.4</ele><time>2026-03-30T09:37:03Z</time></trkpt><trkpt lat="45.27464554875783" lon="9.683245795290151"><ele>50.599999999999994</ele><time>2026-03-30T09:37:04Z</time></trkpt><trkpt lat="45.27454932119512" lon="9.68323043443928"><ele>50.8</ele><time>2026-03-30T09:37:05Z</time></trkpt><trkpt lat="45.27446837133043" lon="9.683213721596044"><ele>51.0</ele><time>2026-03-30T09:37:06Z</time></trkpt><trkpt lat="45.27439154940855" lon="9.683184177698928"><ele>51.0</ele><time>2026-03-30T09:37:07Z</time></trkpt><trkpt lat="45.2743058446854" lon="9.68315006765115"><ele>51.0</ele><time>2026-03-30T09:37:08Z</time></trkpt><trkpt lat="45.274213492444424" lon="9.683114325031859"><ele>51.0</ele><time>2026-03-30T09:37:09Z</time></trkpt><trkpt lat="45.27412315086676" lon="9.683073235353824"><ele>51.0</ele><time>2026-03-30T09:37:10Z</time></trkpt><trkpt lat="45.27403103011472" lon="9.683024803475524"><ele>51.0</ele><time>2026-03-30T09:37:11Z</time></trkpt><trkpt lat="45.27394318660544" lon="9.682979520114786"><ele>51.0</ele><time>2026-03-30T09:37:12Z</time></trkpt><trkpt lat="45.27385838341188" lon="9.68293661954705"><ele>51.0</ele><time>2026-03-30T09:37:13Z</time></trkpt><trkpt lat="45.27377213589837" lon="9.682891936138594"><ele>51.0</ele><time>2026-03-30T09:37:14Z</time></trkpt><trkpt lat="45.27368510729809" lon="9.682842760391827"><ele>51.0</ele><time>2026-03-30T09:37:15Z</time></trkpt><trkpt lat="45.273598213545824" lon="9.682797237723115"><ele>51.0</ele><time>2026-03-30T09:37:16Z</time></trkpt><trkpt lat="45.27351545202055" lon="9.6827629734958"><ele>51.0</ele><time>2026-03-30T09:37:17Z</time></trkpt><trkpt lat="45.27342928985398" lon="9.682729075826076"><ele>51.0</ele><time>2026-03-30T09:37:18Z</time></trkpt><trkpt lat="45.273352410534784" lon="9.68268674233578"><ele>51.0</ele><time>2026-03-30T09:37:19Z</time></trkpt><trkpt lat="45.27326969340696" lon="9.682645619462516"><ele>51.0</ele><time>2026-03-30T09:37:20Z</time></trkpt><trkpt lat="45.27318751943204" lon="9.682607998245171"><ele>51.0</ele><time>2026-03-30T09:37:21Z</time></trkpt><trkpt lat="45.27309875859128" lon="9.682568677333057"><ele>51.0</ele><time>2026-03-30T09:37:22Z</time></trkpt><trkpt lat="45.27300642373194" lon="9.682523633252801"><ele>51.199999999999996</ele><time>2026-03-30T09:37:23Z</time></trkpt><trkpt lat="45.272900525999034" lon="9.682472523606663"><ele>51.4</ele><time>2026-03-30T09:37:24Z</time></trkpt><trkpt lat="45.27279732672626" lon="9.682422492318665"><ele>51.6</ele><time>2026-03-30T09:37:25Z</time></trkpt><trkpt lat="45.27270286696354" lon="9.682374689936072"><ele>51.8</ele><time>2026-03-30T09:37:26Z</time></trkpt><trkpt lat="45.27261451025214" lon="9.682331672773962"><ele>52.0</ele><time>2026-03-30T09:37:27Z</time></trkpt><trkpt lat="45.27253372936109" lon="9.682293149550011"><ele>52.0</ele><time>2026-03-30T09:37:28Z</time></trkpt><trkpt lat="45.27243886312233" lon="9.682245474390982"><ele>52.0</ele><time>2026-03-30T09:37:29Z</time></trkpt><trkpt lat="45.27233882824687" lon="9.68219665985165"><ele>52.0</ele><time>2026-03-30T09:37:30Z</time></trkpt><trkpt lat="45.2722358991216" lon="9.68213913398218"><ele>52.0</ele><time>2026-03-30T09:37:31Z</time></trkpt><trkpt lat="45.27211860784499" lon="9.682082737945207"><ele>52.0</ele><time>2026-03-30T09:37:32Z</time></trkpt><trkpt lat="45.27200496432055" lon="9.68202812910447"><ele>52.0</ele><time>2026-03-30T09:37:33Z</time></trkpt><trkpt lat="45.27190367789349" lon="9.681976913263304"><ele>52.0</ele><time>2026-03-30T09:37:34Z</time></trkpt><trkpt lat="45.27180674648483" lon="9.681925731910672"><ele>52.0</ele><time>2026-03-30T09:37:35Z</time></trkpt><trkpt lat="45.271710715796594" lon="9.681867880812849"><ele>52.0</ele><time>2026-03-30T09:37:36Z</time></trkpt><trkpt lat="45.27161630078175" lon="9.681815136653153"><ele>52.0</ele><time>2026-03-30T09:37:37Z</time></trkpt><trkpt lat="45.27152193485376" lon="9.681770984326956"><ele>51.6</ele><time>2026-03-30T09:37:38Z</time></trkpt><trkpt lat="45.271428380496744" lon="9.681733669334623"><ele>51.2</ele><time>2026-03-30T09:37:39Z</time></trkpt><trkpt lat="45.27133115852192" lon="9.681703983748271"><ele>50.8</ele><time>2026-03-30T09:37:40Z</time></trkpt><trkpt lat="45.271236201399326" lon="9.681680628616833"><ele>50.4</ele><time>2026-03-30T09:37:41Z</time></trkpt><trkpt lat="45.27114046925352" lon="9.681656747500494"><ele>50.0</ele><time>2026-03-30T09:37:42Z</time></trkpt><trkpt lat="45.27105377962605" lon="9.681636235383856"><ele>50.00000000000001</ele><time>2026-03-30T09:37:43Z</time></trkpt><trkpt lat="45.27096610060198" lon="9.681612195093477"><ele>50.0</ele><time>2026-03-30T09:37:44Z</time></trkpt><trkpt lat="45.27088252125804" lon="9.681590168965975"><ele>50.0</ele><time>2026-03-30T09:37:45Z</time></trkpt><trkpt lat="45.27080546334077" lon="9.681571088852555"><ele>50.0</ele><time>2026-03-30T09:37:46Z</time></trkpt><trkpt lat="45.270731012970074" lon="9.681550988069528"><ele>50.00000000000001</ele><time>2026-03-30T09:37:47Z</time></trkpt><trkpt lat="45.27062206852752" lon="9.681520439887501"><ele>50.0</ele><time>2026-03-30T09:37:49Z</time></trkpt><trkpt lat="45.270500532951154" lon="9.68148667974415"><ele>50.28571428571429</ele><time>2026-03-30T09:37:51Z</time></trkpt><trkpt lat="45.270434114369884" lon="9.681468757757017"><ele>50.57142857142857</ele><time>2026-03-30T09:37:52Z</time></trkpt><trkpt lat="45.27036917908639" lon="9.681448326844604"><ele>50.85714285714286</ele><time>2026-03-30T09:37:52.999Z</time></trkpt><trkpt lat="45.270303955772945" lon="9.6814306622029"><ele>51.142857142857146</ele><time>2026-03-30T09:37:53.999Z</time></trkpt><trkpt lat="45.27024193446468" lon="9.681412577321153"><ele>51.42857142857143</ele><time>2026-03-30T09:37:54.999Z</time></trkpt><trkpt lat="45.270174894352465" lon="9.681392311795763"><ele>51.714285714285715</ele><time>2026-03-30T09:37:55.999Z</time></trkpt><trkpt lat="45.2700974708656" lon="9.681374432443828"><ele>52.0</ele><time>2026-03-30T09:37:56.999Z</time></trkpt><trkpt lat="45.27001417498558" lon="9.681349020580887"><ele>51.99999999999999</ele><time>2026-03-30T09:37:57.999Z</time></trkpt><trkpt lat="45.26992464711783" lon="9.681323062962377"><ele>52.0</ele><time>2026-03-30T09:37:58.999Z</time></trkpt><trkpt lat="45.26983318895555" lon="9.681295232703874"><ele>52.0</ele><time>2026-03-30T09:37:59.999Z</time></trkpt><trkpt lat="45.2697588224313" lon="9.681248341720842"><ele>52.0</ele><time>2026-03-30T09:38:00.999Z</time></trkpt><trkpt lat="45.26968529696716" lon="9.681179483108405"><ele>51.99999999999999</ele><time>2026-03-30T09:38:01.999Z</time></trkpt><trkpt lat="45.26962109740248" lon="9.681105103193026"><ele>52.0</ele><time>2026-03-30T09:38:02.999Z</time></trkpt><trkpt lat="45.26955882336365" lon="9.681023342209242"><ele>51.6</ele><time>2026-03-30T09:38:03.999Z</time></trkpt><trkpt lat="45.26949647559935" lon="9.680938377829913"><ele>51.2</ele><time>2026-03-30T09:38:04.999Z</time></trkpt><trkpt lat="45.26944049284578" lon="9.68086030230345"><ele>50.8</ele><time>2026-03-30T09:38:05.999Z</time></trkpt><trkpt lat="45.26936824441141" lon="9.68076254395547"><ele>50.4</ele><time>2026-03-30T09:38:07.999Z</time></trkpt><trkpt lat="45.26928528988976" lon="9.680782522585883"><ele>50.0</ele><time>2026-03-30T09:38:09.999Z</time></trkpt><trkpt lat="45.26921069742754" lon="9.680905434744448"><ele>50.0</ele><time>2026-03-30T09:38:11.999Z</time></trkpt><trkpt lat="45.26917470342347" lon="9.680998815004504"><ele>50.0</ele><time>2026-03-30T09:38:12.999Z</time></trkpt><trkpt lat="45.26911919946074" lon="9.681093059169678"><ele>50.0</ele><time>2026-03-30T09:38:13.999Z</time></trkpt><trkpt lat="45.2690489682888" lon="9.681202924261683"><ele>50.0</ele><time>2026-03-30T09:38:14.999Z</time></trkpt><trkpt lat="45.268951980227804" lon="9.681334503939228"><ele>50.0</ele><time>2026-03-30T09:38:16Z</time></trkpt><trkpt lat="45.268862826177696" lon="9.681458572813032"><ele>50.2</ele><time>2026-03-30T09:38:17Z</time></trkpt><trkpt lat="45.268776188779235" lon="9.681562326321448"><ele>50.4</ele><time>2026-03-30T09:38:18Z</time></trkpt><trkpt lat="45.26869479389618" lon="9.681672878564264"><ele>50.599999999999994</ele><time>2026-03-30T09:38:19Z</time></trkpt><trkpt lat="45.26861407488529" lon="9.681779181331864"><ele>50.8</ele><time>2026-03-30T09:38:20Z</time></trkpt><trkpt lat="45.2685358069351" lon="9.681890660043958"><ele>51.0</ele><time>2026-03-30T09:38:21Z</time></trkpt><trkpt lat="45.26846588113281" lon="9.681991336293978"><ele>51.0</ele><time>2026-03-30T09:38:22Z</time></trkpt><trkpt lat="45.26840356737207" lon="9.682083132439674"><ele>51.0</ele><time>2026-03-30T09:38:23Z</time></trkpt><trkpt lat="45.26834115497335" lon="9.682157178327484"><ele>51.0</ele><time>2026-03-30T09:38:24Z</time></trkpt><trkpt lat="45.268289913841045" lon="9.682226036386647"><ele>51.0</ele><time>2026-03-30T09:38:25Z</time></trkpt><trkpt lat="45.2682124707712" lon="9.682324310150742"><ele>51.0</ele><time>2026-03-30T09:38:27Z</time></trkpt><trkpt lat="45.26816168980834" lon="9.682382031143815"><ele>51.0</ele><time>2026-03-30T09:38:28Z</time></trkpt><trkpt lat="45.268100612066654" lon="9.682443001896504"><ele>51.199999999999996</ele><time>2026-03-30T09:38:29Z</time></trkpt><trkpt lat="45.26802817122366" lon="9.682498856714727"><ele>51.4</ele><time>2026-03-30T09:38:30Z</time></trkpt><trkpt lat="45.267943729052924" lon="9.682557700492403"><ele>51.6</ele><time>2026-03-30T09:38:31Z</time></trkpt><trkpt lat="45.2678669556857" lon="9.682622327535952"><ele>51.8</ele><time>2026-03-30T09:38:32Z</time></trkpt><trkpt lat="45.2677802619544" lon="9.682674423639478"><ele>52.0</ele><time>2026-03-30T09:38:33Z</time></trkpt><trkpt lat="45.267694793223434" lon="9.68273298952927"><ele>51.49999999999999</ele><time>2026-03-30T09:38:34Z</time></trkpt><trkpt lat="45.267605348911864" lon="9.682785822956061"><ele>51.0</ele><time>2026-03-30T09:38:35Z</time></trkpt><trkpt lat="45.267504886776" lon="9.682842175712489"><ele>50.5</ele><time>2026-03-30T09:38:36Z</time></trkpt><trkpt lat="45.26741911265898" lon="9.682883386226889"><ele>50.0</ele><time>2026-03-30T09:38:37Z</time></trkpt><trkpt lat="45.26734741681733" lon="9.68290966321384"><ele>49.49999999999999</ele><time>2026-03-30T09:38:38Z</time></trkpt><trkpt lat="45.26727667997073" lon="9.682923055033813"><ele>49.0</ele><time>2026-03-30T09:38:39Z</time></trkpt><trkpt lat="45.26720502274994" lon="9.682936649304308"><ele>49.0</ele><time>2026-03-30T09:38:40Z</time></trkpt><trkpt lat="45.26711835256523" lon="9.682960374581778"><ele>49.0</ele><time>2026-03-30T09:38:41Z</time></trkpt><trkpt lat="45.267027904062424" lon="9.682985150244594"><ele>49.0</ele><time>2026-03-30T09:38:42Z</time></trkpt><trkpt lat="45.266924608934765" lon="9.683013994440197"><ele>49.0</ele><time>2026-03-30T09:38:43Z</time></trkpt><trkpt lat="45.266820310272614" lon="9.68304677408452"><ele>49.0</ele><time>2026-03-30T09:38:44Z</time></trkpt><trkpt lat="45.2667413544975" lon="9.683065921128254"><ele>49.0</ele><time>2026-03-30T09:38:45Z</time></trkpt><trkpt lat="45.26666258070552" lon="9.68308066683681"><ele>49.0</ele><time>2026-03-30T09:38:46Z</time></trkpt><trkpt lat="45.26657893821446" lon="9.683093922251246"><ele>49.0</ele><time>2026-03-30T09:38:47Z</time></trkpt><trkpt lat="45.26647866830688" lon="9.683095044498403"><ele>49.0</ele><time>2026-03-30T09:38:48Z</time></trkpt><trkpt lat="45.26638545812715" lon="9.683096160292326"><ele>49.0</ele><time>2026-03-30T09:38:49Z</time></trkpt><trkpt lat="45.26628968190128" lon="9.683077276024278"><ele>49.0</ele><time>2026-03-30T09:38:50Z</time></trkpt><trkpt lat="45.26619085090656" lon="9.683059272657083"><ele>49.0</ele><time>2026-03-30T09:38:51Z</time></trkpt><trkpt lat="45.26609096152707" lon="9.68304399021471"><ele>49.0</ele><time>2026-03-30T09:38:52Z</time></trkpt><trkpt lat="45.26597966515628" lon="9.683025655985753"><ele>49.0</ele><time>2026-03-30T09:38:53Z</time></trkpt><trkpt lat="45.2658819070316" lon="9.68301629540236"><ele>49.0</ele><time>2026-03-30T09:38:54Z</time></trkpt><trkpt lat="45.26579847846643" lon="9.683010933874451"><ele>48.99999999999999</ele><time>2026-03-30T09:38:55Z</time></trkpt><trkpt lat="45.26571341921592" lon="9.682999525144844"><ele>49.0</ele><time>2026-03-30T09:38:56Z</time></trkpt><trkpt lat="45.26563627582197" lon="9.682979314315258"><ele>49.0</ele><time>2026-03-30T09:38:57Z</time></trkpt><trkpt lat="45.265557103716525" lon="9.682948520615893"><ele>49.0</ele><time>2026-03-30T09:38:58Z</time></trkpt><trkpt lat="45.26547654664382" lon="9.682907494254904"><ele>48.99999999999999</ele><time>2026-03-30T09:38:59Z</time></trkpt><trkpt lat="45.265384230251314" lon="9.682850290995734"><ele>49.0</ele><time>2026-03-30T09:39:00Z</time></trkpt><trkpt lat="45.26527642058547" lon="9.682788432812819"><ele>49.0</ele><time>2026-03-30T09:39:01Z</time></trkpt><trkpt lat="45.26514676226666" lon="9.682713806336603"><ele>49.0</ele><time>2026-03-30T09:39:02Z</time></trkpt><trkpt lat="45.26502825909515" lon="9.682649439822892"><ele>49.0</ele><time>2026-03-30T09:39:03Z</time></trkpt><trkpt lat="45.26492277558256" lon="9.682582439524902"><ele>49.0</ele><time>2026-03-30T09:39:04Z</time></trkpt><trkpt lat="45.26481882688298" lon="9.682513301073104"><ele>49.33333333333333</ele><time>2026-03-30T09:39:05Z</time></trkpt><trkpt lat="45.26472911310856" lon="9.68244823421565"><ele>49.666666666666664</ele><time>2026-03-30T09:39:06Z</time></trkpt><trkpt lat="45.26465227377969" lon="9.682395213392683"><ele>50.0</ele><time>2026-03-30T09:39:07Z</time></trkpt><trkpt lat="45.26458250226407" lon="9.682358777113421"><ele>50.33333333333333</ele><time>2026-03-30T09:39:08Z</time></trkpt><trkpt lat="45.26450719000222" lon="9.682303027319142"><ele>50.666666666666664</ele><time>2026-03-30T09:39:09Z</time></trkpt><trkpt lat="45.26442345559246" lon="9.68221993365318"><ele>51.0</ele><time>2026-03-30T09:39:10Z</time></trkpt><trkpt lat="45.264326203843964" lon="9.682130478320843"><ele>51.0</ele><time>2026-03-30T09:39:11Z</time></trkpt><trkpt lat="45.26423269489139" lon="9.68203293939144"><ele>51.0</ele><time>2026-03-30T09:39:12Z</time></trkpt><trkpt lat="45.26415148640394" lon="9.681934920781385"><ele>51.0</ele><time>2026-03-30T09:39:13Z</time></trkpt><trkpt lat="45.26408393663902" lon="9.681849778231113"><ele>51.0</ele><time>2026-03-30T09:39:14Z</time></trkpt><trkpt lat="45.26400696856489" lon="9.681752511004266"><ele>51.0</ele><time>2026-03-30T09:39:15Z</time></trkpt><trkpt lat="45.26394099089755" lon="9.68166826856434"><ele>50.833333333333336</ele><time>2026-03-30T09:39:16Z</time></trkpt><trkpt lat="45.26388708009096" lon="9.681592986472557"><ele>50.66666666666667</ele><time>2026-03-30T09:39:17Z</time></trkpt><trkpt lat="45.26383870226767" lon="9.681500486166913"><ele>50.5</ele><time>2026-03-30T09:39:18Z</time></trkpt><trkpt lat="45.26379346102442" lon="9.681404601492181"><ele>50.333333333333336</ele><time>2026-03-30T09:39:19Z</time></trkpt><trkpt lat="45.263747775845616" lon="9.681296321634528"><ele>50.16666666666667</ele><time>2026-03-30T09:39:20Z</time></trkpt><trkpt lat="45.263696378123534" lon="9.681181006811205"><ele>50.0</ele><time>2026-03-30T09:39:21Z</time></trkpt><trkpt lat="45.263645815482995" lon="9.681060187113173"><ele>50.0</ele><time>2026-03-30T09:39:22Z</time></trkpt><trkpt lat="45.263593980297756" lon="9.680940124844568"><ele>50.0</ele><time>2026-03-30T09:39:23Z</time></trkpt><trkpt lat="45.26354381289193" lon="9.680820212305143"><ele>50.0</ele><time>2026-03-30T09:39:24Z</time></trkpt><trkpt lat="45.26349140899726" lon="9.680710608637607"><ele>50.0</ele><time>2026-03-30T09:39:25Z</time></trkpt><trkpt lat="45.26344229580076" lon="9.680612627432657"><ele>50.0</ele><time>2026-03-30T09:39:26Z</time></trkpt><trkpt lat="45.263401271519534" lon="9.680503291612485"><ele>50.0</ele><time>2026-03-30T09:39:27Z</time></trkpt><trkpt lat="45.26335956123959" lon="9.680385728506868"><ele>50.0</ele><time>2026-03-30T09:39:28Z</time></trkpt><trkpt lat="45.263329122671124" lon="9.680275346152337"><ele>50.0</ele><time>2026-03-30T09:39:29Z</time></trkpt><trkpt lat="45.26328506286776" lon="9.680133205714903"><ele>50.0</ele><time>2026-03-30T09:39:30Z</time></trkpt><trkpt lat="45.26323347645903" lon="9.679943032802896"><ele>50.0</ele><time>2026-03-30T09:39:31Z</time></trkpt><trkpt lat="45.263166519600446" lon="9.679736970111675"><ele>49.333333333333336</ele><time>2026-03-30T09:39:32Z</time></trkpt><trkpt lat="45.26308240105178" lon="9.679509673974819"><ele>48.66666666666667</ele><time>2026-03-30T09:39:33Z</time></trkpt><trkpt lat="45.26301732007283" lon="9.679318794825083"><ele>48.0</ele><time>2026-03-30T09:39:34Z</time></trkpt><trkpt lat="45.26296154310459" lon="9.679162875505858"><ele>48.0</ele><time>2026-03-30T09:39:35Z</time></trkpt><trkpt lat="45.26290617131218" lon="9.679019138551398"><ele>48.0</ele><time>2026-03-30T09:39:36Z</time></trkpt><trkpt lat="45.26285188631554" lon="9.678882103798214"><ele>48.0</ele><time>2026-03-30T09:39:37Z</time></trkpt><trkpt lat="45.26280077301439" lon="9.678745216859255"><ele>48.0</ele><time>2026-03-30T09:39:38Z</time></trkpt><trkpt lat="45.26276005580773" lon="9.678616887460173"><ele>48.0</ele><time>2026-03-30T09:39:39Z</time></trkpt><trkpt lat="45.26272612279046" lon="9.678480268925059"><ele>48.0</ele><time>2026-03-30T09:39:40Z</time></trkpt><trkpt lat="45.262680839095765" lon="9.678316320659352"><ele>48.0</ele><time>2026-03-30T09:39:41Z</time></trkpt><trkpt lat="45.26262800441927" lon="9.67812975733569"><ele>48.0</ele><time>2026-03-30T09:39:42Z</time></trkpt><trkpt lat="45.26259537002817" lon="9.677980610032247"><ele>48.0</ele><time>2026-03-30T09:39:43Z</time></trkpt><trkpt lat="45.262560215141434" lon="9.677868547559594"><ele>48.2</ele><time>2026-03-30T09:39:44Z</time></trkpt><trkpt lat="45.262526899983015" lon="9.677767486642217"><ele>48.4</ele><time>2026-03-30T09:39:45Z</time></trkpt><trkpt lat="45.262498148647275" lon="9.677676089688088"><ele>48.6</ele><time>2026-03-30T09:39:46Z</time></trkpt><trkpt lat="45.262464139789806" lon="9.677596145430588"><ele>48.800000000000004</ele><time>2026-03-30T09:39:47Z</time></trkpt><trkpt lat="45.26237690723299" lon="9.677479500202178"><ele>49.0</ele><time>2026-03-30T09:39:49Z</time></trkpt><trkpt lat="45.26226883446617" lon="9.677389757860237"><ele>48.99999999999999</ele><time>2026-03-30T09:39:51Z</time></trkpt><trkpt lat="45.26219227937413" lon="9.677344189078612"><ele>49.0</ele><time>2026-03-30T09:39:52Z</time></trkpt><trkpt lat="45.26212339131404" lon="9.677299122798813"><ele>49.0</ele><time>2026-03-30T09:39:53Z</time></trkpt><trkpt lat="45.26204801332193" lon="9.677256371261407"><ele>49.0</ele><time>2026-03-30T09:39:54Z</time></trkpt><trkpt lat="45.2619790121593" lon="9.677202726239386"><ele>48.99999999999999</ele><time>2026-03-30T09:39:55Z</time></trkpt><trkpt lat="45.26192242161555" lon="9.67713479055648"><ele>49.0</ele><time>2026-03-30T09:39:56Z</time></trkpt><trkpt lat="45.261868644131525" lon="9.677060711303083"><ele>48.99999999999999</ele><time>2026-03-30T09:39:57Z</time></trkpt><trkpt lat="45.26181068865913" lon="9.676976278415786"><ele>49.0</ele><time>2026-03-30T09:39:58Z</time></trkpt><trkpt lat="45.26175581298895" lon="9.676877393325078"><ele>49.0</ele><time>2026-03-30T09:39:59Z</time></trkpt><trkpt lat="45.26170104462582" lon="9.67676452451717"><ele>49.0</ele><time>2026-03-30T09:40:00Z</time></trkpt><trkpt lat="45.26165821344059" lon="9.676659521404787"><ele>48.99999999999999</ele><time>2026-03-30T09:40:01Z</time></trkpt><trkpt lat="45.26162330124669" lon="9.67655032129594"><ele>49.0</ele><time>2026-03-30T09:40:02Z</time></trkpt><trkpt lat="45.261591338926564" lon="9.676430137582342"><ele>49.0</ele><time>2026-03-30T09:40:03Z</time></trkpt><trkpt lat="45.261564620793564" lon="9.676287778367708"><ele>49.0</ele><time>2026-03-30T09:40:04Z</time></trkpt><trkpt lat="45.261532399104475" lon="9.676096490464412"><ele>49.0</ele><time>2026-03-30T09:40:05Z</time></trkpt><trkpt lat="45.26149553186373" lon="9.675909553497656"><ele>49.0</ele><time>2026-03-30T09:40:06Z</time></trkpt><trkpt lat="45.26144897845924" lon="9.675716274085687"><ele>49.0</ele><time>2026-03-30T09:40:07Z</time></trkpt><trkpt lat="45.26138193388266" lon="9.675526016971142"><ele>49.0</ele><time>2026-03-30T09:40:08Z</time></trkpt><trkpt lat="45.261299638955414" lon="9.675319937327304"><ele>49.0</ele><time>2026-03-30T09:40:09Z</time></trkpt><trkpt lat="45.2612272961313" lon="9.675132265687909"><ele>49.2</ele><time>2026-03-30T09:40:10Z</time></trkpt><trkpt lat="45.26117359629675" lon="9.674977442863371"><ele>49.400000000000006</ele><time>2026-03-30T09:40:11Z</time></trkpt><trkpt lat="45.2611327767747" lon="9.674854271202719"><ele>49.6</ele><time>2026-03-30T09:40:12Z</time></trkpt><trkpt lat="45.26110277580942" lon="9.674756809567006"><ele>49.8</ele><time>2026-03-30T09:40:13Z</time></trkpt><trkpt lat="45.261063421226694" lon="9.674646127912604"><ele>50.0</ele><time>2026-03-30T09:40:14Z</time></trkpt><trkpt lat="45.261020211675316" lon="9.674521545833285"><ele>50.333333333333336</ele><time>2026-03-30T09:40:15Z</time></trkpt><trkpt lat="45.26098699870941" lon="9.67441060133098"><ele>50.66666666666667</ele><time>2026-03-30T09:40:16Z</time></trkpt><trkpt lat="45.26095876155063" lon="9.674312652662492"><ele>51.0</ele><time>2026-03-30T09:40:17Z</time></trkpt><trkpt lat="45.260923750569845" lon="9.674233846176893"><ele>51.33333333333333</ele><time>2026-03-30T09:40:18Z</time></trkpt><trkpt lat="45.260837938892585" lon="9.674153678616024"><ele>51.666666666666664</ele><time>2026-03-30T09:40:20Z</time></trkpt><trkpt lat="45.260766436315755" lon="9.67413313626739"><ele>52.0</ele><time>2026-03-30T09:40:21Z</time></trkpt><trkpt lat="45.26067927804425" lon="9.67412180955734"><ele>51.25</ele><time>2026-03-30T09:40:22Z</time></trkpt><trkpt lat="45.26056988986243" lon="9.674106552818028"><ele>50.5</ele><time>2026-03-30T09:40:23Z</time></trkpt><trkpt lat="45.26043099627152" lon="9.674083224508562"><ele>49.75</ele><time>2026-03-30T09:40:24Z</time></trkpt><trkpt lat="45.26029014446219" lon="9.674070644334844"><ele>49.0</ele><time>2026-03-30T09:40:25Z</time></trkpt><trkpt lat="45.260177435209876" lon="9.674052885669893"><ele>48.99999999999999</ele><time>2026-03-30T09:40:26Z</time></trkpt><trkpt lat="45.260086312476325" lon="9.674033434288877"><ele>49.0</ele><time>2026-03-30T09:40:27Z</time></trkpt><trkpt lat="45.2599943365423" lon="9.674018513416216"><ele>49.0</ele><time>2026-03-30T09:40:28Z</time></trkpt><trkpt lat="45.25991224725942" lon="9.674000643924819"><ele>49.0</ele><time>2026-03-30T09:40:29Z</time></trkpt><trkpt lat="45.259817403576115" lon="9.673997375065277"><ele>48.99999999999999</ele><time>2026-03-30T09:40:31Z</time></trkpt><trkpt lat="45.2597702361561" lon="9.674076145580527"><ele>49.0</ele><time>2026-03-30T09:40:33Z</time></trkpt><trkpt lat="45.25975114108151" lon="9.67416201806473"><ele>48.6</ele><time>2026-03-30T09:40:34Z</time></trkpt><trkpt lat="45.2597376173434" lon="9.674265056567672"><ele>48.2</ele><time>2026-03-30T09:40:35Z</time></trkpt><trkpt lat="45.25972706166005" lon="9.67438939066115"><ele>47.800000000000004</ele><time>2026-03-30T09:40:36Z</time></trkpt><trkpt lat="45.25970803093899" lon="9.674527325074338"><ele>47.400000000000006</ele><time>2026-03-30T09:40:37Z</time></trkpt><trkpt lat="45.25968471152569" lon="9.674693534453365"><ele>47.0</ele><time>2026-03-30T09:40:38Z</time></trkpt><trkpt lat="45.259660823631926" lon="9.674860383366438"><ele>46.8</ele><time>2026-03-30T09:40:39Z</time></trkpt><trkpt lat="45.25963178011822" lon="9.67500504288738"><ele>46.6</ele><time>2026-03-30T09:40:40Z</time></trkpt><trkpt lat="45.25960153432907" lon="9.675121269677541"><ele>46.4</ele><time>2026-03-30T09:40:41Z</time></trkpt><trkpt lat="45.25957140201758" lon="9.675247368490588"><ele>46.199999999999996</ele><time>2026-03-30T09:40:42Z</time></trkpt><trkpt lat="45.25953503669517" lon="9.675377265087631"><ele>46.0</ele><time>2026-03-30T09:40:43Z</time></trkpt><trkpt lat="45.259488967633665" lon="9.675519359394334"><ele>46.4</ele><time>2026-03-30T09:40:44Z</time></trkpt><trkpt lat="45.259442603856336" lon="9.675668906949365"><ele>46.8</ele><time>2026-03-30T09:40:45Z</time></trkpt><trkpt lat="45.25940564011202" lon="9.67580834272387"><ele>47.199999999999996</ele><time>2026-03-30T09:40:46Z</time></trkpt><trkpt lat="45.259373011057086" lon="9.675924847559413"><ele>47.599999999999994</ele><time>2026-03-30T09:40:47Z</time></trkpt><trkpt lat="45.25932604769408" lon="9.676047056568047"><ele>48.0</ele><time>2026-03-30T09:40:48Z</time></trkpt><trkpt lat="45.25927293132221" lon="9.676143386003684"><ele>48.0</ele><time>2026-03-30T09:40:49Z</time></trkpt><trkpt lat="45.259230850752814" lon="9.676227751590368"><ele>48.0</ele><time>2026-03-30T09:40:50Z</time></trkpt><trkpt lat="45.25916327794024" lon="9.676368419695045"><ele>48.0</ele><time>2026-03-30T09:40:52Z</time></trkpt><trkpt lat="45.25911478050391" lon="9.67644927909994"><ele>48.0</ele><time>2026-03-30T09:40:53Z</time></trkpt><trkpt lat="45.25906597406208" lon="9.67652844839353"><ele>48.0</ele><time>2026-03-30T09:40:54Z</time></trkpt><trkpt lat="45.25901548976486" lon="9.676608323223439"><ele>48.0</ele><time>2026-03-30T09:40:55Z</time></trkpt><trkpt lat="45.258966581495024" lon="9.67670167500231"><ele>48.14285714285714</ele><time>2026-03-30T09:40:56Z</time></trkpt><trkpt lat="45.25893090423623" lon="9.676793224920498"><ele>48.285714285714285</ele><time>2026-03-30T09:40:57Z</time></trkpt><trkpt lat="45.25888924687901" lon="9.676861736041324"><ele>48.42857142857143</ele><time>2026-03-30T09:40:58Z</time></trkpt><trkpt lat="45.25883757412483" lon="9.67691399786296"><ele>48.57142857142857</ele><time>2026-03-30T09:40:59Z</time></trkpt><trkpt lat="45.258787404680525" lon="9.676969363466645"><ele>48.714285714285715</ele><time>2026-03-30T09:41:00Z</time></trkpt><trkpt lat="45.25873223185972" lon="9.677070594152132"><ele>48.857142857142854</ele><time>2026-03-30T09:41:01Z</time></trkpt><trkpt lat="45.258675013520616" lon="9.677168018603588"><ele>49.0</ele><time>2026-03-30T09:41:02Z</time></trkpt><trkpt lat="45.258610237428485" lon="9.677234771582592"><ele>49.0</ele><time>2026-03-30T09:41:03Z</time></trkpt><trkpt lat="45.25855779392646" lon="9.677284383920977"><ele>49.0</ele><time>2026-03-30T09:41:04Z</time></trkpt><trkpt lat="45.25850568409389" lon="9.67739381905956"><ele>49.0</ele><time>2026-03-30T09:41:06Z</time></trkpt><trkpt lat="45.258462687272775" lon="9.677476240948325"><ele>49.0</ele><time>2026-03-30T09:41:07Z</time></trkpt><trkpt lat="45.25840760814611" lon="9.677546289446846"><ele>49.0</ele><time>2026-03-30T09:41:08Z</time></trkpt><trkpt lat="45.25834519434839" lon="9.677595942129047"><ele>49.0</ele><time>2026-03-30T09:41:09Z</time></trkpt><trkpt lat="45.258278133399244" lon="9.67762730172996"><ele>49.0</ele><time>2026-03-30T09:41:10Z</time></trkpt><trkpt lat="45.25820226559959" lon="9.67768734492064"><ele>48.99999999999999</ele><time>2026-03-30T09:41:11Z</time></trkpt><trkpt lat="45.258134332099516" lon="9.677752547234217"><ele>49.0</ele><time>2026-03-30T09:41:12Z</time></trkpt><trkpt lat="45.25808358695796" lon="9.677818040444402"><ele>49.0</ele><time>2026-03-30T09:41:13Z</time></trkpt><trkpt lat="45.258042220432785" lon="9.677896700376655"><ele>49.0</ele><time>2026-03-30T09:41:14Z</time></trkpt><trkpt lat="45.257999967415024" lon="9.677997085582804"><ele>48.99999999999999</ele><time>2026-03-30T09:41:15Z</time></trkpt><trkpt lat="45.25793594164859" lon="9.678137235077104"><ele>49.0</ele><time>2026-03-30T09:41:17Z</time></trkpt><trkpt lat="45.2578885954035" lon="9.678204367288105"><ele>49.0</ele><time>2026-03-30T09:41:18Z</time></trkpt><trkpt lat="45.25782779784961" lon="9.678237290211541"><ele>49.0</ele><time>2026-03-30T09:41:19Z</time></trkpt><trkpt lat="45.25774610921693" lon="9.678287749046534"><ele>49.0</ele><time>2026-03-30T09:41:20Z</time></trkpt><trkpt lat="45.25764772036521" lon="9.678367154501565"><ele>49.0</ele><time>2026-03-30T09:41:21Z</time></trkpt><trkpt lat="45.25754662066092" lon="9.678443189400857"><ele>49.0</ele><time>2026-03-30T09:41:22Z</time></trkpt><trkpt lat="45.257468302731596" lon="9.678508999845667"><ele>49.0</ele><time>2026-03-30T09:41:23Z</time></trkpt><trkpt lat="45.257399590778775" lon="9.678568608836118"><ele>49.0</ele><time>2026-03-30T09:41:24Z</time></trkpt><trkpt lat="45.257335241473356" lon="9.678615794920931"><ele>49.0</ele><time>2026-03-30T09:41:25Z</time></trkpt><trkpt lat="45.25725290108204" lon="9.678703905490885"><ele>49.0</ele><time>2026-03-30T09:41:27Z</time></trkpt><trkpt lat="45.25724355534786" lon="9.678829072547293"><ele>49.0</ele><time>2026-03-30T09:41:29Z</time></trkpt><trkpt lat="45.25713605780047" lon="9.678865441415889"><ele>49.166666666666664</ele><time>2026-03-30T09:41:32Z</time></trkpt><trkpt lat="45.25704598460357" lon="9.678863740367799"><ele>49.33333333333333</ele><time>2026-03-30T09:41:33Z</time></trkpt><trkpt lat="45.25696027852377" lon="9.678886210351626"><ele>49.5</ele><time>2026-03-30T09:41:34Z</time></trkpt><trkpt lat="45.25687990500814" lon="9.67894697596106"><ele>49.66666666666667</ele><time>2026-03-30T09:41:35Z</time></trkpt><trkpt lat="45.25682205426121" lon="9.679012405376277"><ele>49.833333333333336</ele><time>2026-03-30T09:41:36Z</time></trkpt><trkpt lat="45.256750301103295" lon="9.679105917985845"><ele>50.0</ele><time>2026-03-30T09:41:37Z</time></trkpt><trkpt lat="45.256686451265345" lon="9.679207287111286"><ele>50.0</ele><time>2026-03-30T09:41:38Z</time></trkpt><trkpt lat="45.25662776884853" lon="9.679316261144361"><ele>50.0</ele><time>2026-03-30T09:41:39Z</time></trkpt><trkpt lat="45.256498060471394" lon="9.679596643334742"><ele>50.0</ele><time>2026-03-30T09:41:41Z</time></trkpt><trkpt lat="45.25643016876343" lon="9.679753551273391"><ele>49.4</ele><time>2026-03-30T09:41:42Z</time></trkpt><trkpt lat="45.256373401389666" lon="9.679883822004355"><ele>48.8</ele><time>2026-03-30T09:41:43Z</time></trkpt><trkpt lat="45.25632374975611" lon="9.679998337749623"><ele>48.2</ele><time>2026-03-30T09:41:44Z</time></trkpt><trkpt lat="45.25627722367985" lon="9.68010567515545"><ele>47.6</ele><time>2026-03-30T09:41:45Z</time></trkpt><trkpt lat="45.25623499341449" lon="9.68022006075095"><ele>47.0</ele><time>2026-03-30T09:41:46Z</time></trkpt><trkpt lat="45.25619482001161" lon="9.680325338644439"><ele>46.83333333333333</ele><time>2026-03-30T09:41:47Z</time></trkpt><trkpt lat="45.256158011645695" lon="9.68042200008995"><ele>46.666666666666664</ele><time>2026-03-30T09:41:48Z</time></trkpt><trkpt lat="45.2561185505679" lon="9.680531722516536"><ele>46.5</ele><time>2026-03-30T09:41:49Z</time></trkpt><trkpt lat="45.25608179074319" lon="9.680647069469764"><ele>46.333333333333336</ele><time>2026-03-30T09:41:50Z</time></trkpt><trkpt lat="45.256049576414775" lon="9.680760957534947"><ele>46.16666666666667</ele><time>2026-03-30T09:41:51Z</time></trkpt><trkpt lat="45.25602132474589" lon="9.680872225956543"><ele>46.0</ele><time>2026-03-30T09:41:52Z</time></trkpt><trkpt lat="45.25599925693982" lon="9.680973909843441"><ele>46.0</ele><time>2026-03-30T09:41:53Z</time></trkpt><trkpt lat="45.25598597449762" lon="9.681062825692388"><ele>46.0</ele><time>2026-03-30T09:41:54Z</time></trkpt><trkpt lat="45.2559715411254" lon="9.681182072297645"><ele>47.0</ele><time>2026-03-30T09:41:56Z</time></trkpt><trkpt lat="45.255963179463265" lon="9.681279629759795"><ele>47.0</ele><time>2026-03-30T09:42:11Z</time></trkpt></trkseg></trk></gpx>